<?xml version="1.0" encoding="UTF-8" standalone="no" ?>
<gpx xmlns="http://www.topografix.com/GPX/1/1" xmlns:xsi="http://www.w3.org/2001/XMLSchema-instance" xsi:schemaLocation="http://www.topografix.com/GPX/1/1 http://www.topografix.com/GPX/1/1/gpx.xsd" version="1.1" creator="VisuGPX - https://www.visugpx.com">
  <metadata>
    <name>Giroussens - St Anatole 2018-02-07</name>
    <desc><![CDATA[
]]></desc>
  </metadata>
  <trk>
    <name><![CDATA[Giroussens - St Anatole 2018-02-07]]></name>
    <trkseg>
      <trkpt lat="43.76486" lon="1.77375">
        <ele>231.1</ele>
        <time>2018-02-07T08:37:35.096Z</time>
      </trkpt>
      <trkpt lat="43.76493" lon="1.77374">
        <ele>227.9</ele>
        <time>2018-02-07T08:37:37.000Z</time>
      </trkpt>
      <trkpt lat="43.765" lon="1.77366">
        <ele>208.7</ele>
        <time>2018-02-07T08:37:45.000Z</time>
      </trkpt>
      <trkpt lat="43.76491" lon="1.77369">
        <ele>193.6</ele>
        <time>2018-02-07T08:37:57.000Z</time>
      </trkpt>
      <trkpt lat="43.76482" lon="1.77371">
        <ele>180.6</ele>
        <time>2018-02-07T08:47:49.000Z</time>
      </trkpt>
      <trkpt lat="43.76473" lon="1.77375">
        <ele>180.6</ele>
        <time>2018-02-07T08:48:5.000Z</time>
      </trkpt>
      <trkpt lat="43.76468" lon="1.77363">
        <ele>180.5</ele>
        <time>2018-02-07T08:48:15.000Z</time>
      </trkpt>
      <trkpt lat="43.76462" lon="1.77353">
        <ele>180.7</ele>
        <time>2018-02-07T08:48:24.000Z</time>
      </trkpt>
      <trkpt lat="43.76453" lon="1.77348">
        <ele>180.8</ele>
        <time>2018-02-07T08:48:33.000Z</time>
      </trkpt>
      <trkpt lat="43.76445" lon="1.77342">
        <ele>181</ele>
        <time>2018-02-07T08:48:42.000Z</time>
      </trkpt>
      <trkpt lat="43.76436" lon="1.7734">
        <ele>181.7</ele>
        <time>2018-02-07T08:48:51.000Z</time>
      </trkpt>
      <trkpt lat="43.76426" lon="1.77344">
        <ele>182.3</ele>
        <time>2018-02-07T08:49:0.000Z</time>
      </trkpt>
      <trkpt lat="43.76417" lon="1.77349">
        <ele>183</ele>
        <time>2018-02-07T08:49:10.000Z</time>
      </trkpt>
      <trkpt lat="43.76405" lon="1.77357">
        <ele>183.4</ele>
        <time>2018-02-07T08:49:17.000Z</time>
      </trkpt>
      <trkpt lat="43.76395" lon="1.77354">
        <ele>183.9</ele>
        <time>2018-02-07T08:49:25.000Z</time>
      </trkpt>
      <trkpt lat="43.76388" lon="1.77362">
        <ele>184.7</ele>
        <time>2018-02-07T08:49:36.000Z</time>
      </trkpt>
      <trkpt lat="43.7638" lon="1.77366">
        <ele>185</ele>
        <time>2018-02-07T08:49:52.000Z</time>
      </trkpt>
      <trkpt lat="43.7637" lon="1.77371">
        <ele>185.4</ele>
        <time>2018-02-07T08:50:1.000Z</time>
      </trkpt>
      <trkpt lat="43.76361" lon="1.77374">
        <ele>185.8</ele>
        <time>2018-02-07T08:50:10.000Z</time>
      </trkpt>
      <trkpt lat="43.76352" lon="1.77379">
        <ele>186.3</ele>
        <time>2018-02-07T08:50:22.000Z</time>
      </trkpt>
      <trkpt lat="43.76346" lon="1.77384">
        <ele>176.2</ele>
        <time>2018-02-07T08:50:36.000Z</time>
      </trkpt>
      <trkpt lat="43.76341" lon="1.77389">
        <ele>176.8</ele>
        <time>2018-02-07T08:52:54.000Z</time>
      </trkpt>
      <trkpt lat="43.76337" lon="1.77397">
        <ele>187.2</ele>
        <time>2018-02-07T08:53:8.000Z</time>
      </trkpt>
      <trkpt lat="43.76329" lon="1.77403">
        <ele>187.4</ele>
        <time>2018-02-07T08:53:20.000Z</time>
      </trkpt>
      <trkpt lat="43.76321" lon="1.77412">
        <ele>187.5</ele>
        <time>2018-02-07T08:53:30.000Z</time>
      </trkpt>
      <trkpt lat="43.76316" lon="1.77423">
        <ele>187.5</ele>
        <time>2018-02-07T08:53:38.000Z</time>
      </trkpt>
      <trkpt lat="43.76308" lon="1.77431">
        <ele>187.9</ele>
        <time>2018-02-07T08:53:52.000Z</time>
      </trkpt>
      <trkpt lat="43.76302" lon="1.77441">
        <ele>181.9</ele>
        <time>2018-02-07T08:54:1.000Z</time>
      </trkpt>
      <trkpt lat="43.76295" lon="1.77453">
        <ele>182.6</ele>
        <time>2018-02-07T08:54:13.000Z</time>
      </trkpt>
      <trkpt lat="43.76289" lon="1.77461">
        <ele>183.2</ele>
        <time>2018-02-07T08:54:24.000Z</time>
      </trkpt>
      <trkpt lat="43.76282" lon="1.77469">
        <ele>183.7</ele>
        <time>2018-02-07T08:54:32.000Z</time>
      </trkpt>
      <trkpt lat="43.76276" lon="1.77475">
        <ele>184.1</ele>
        <time>2018-02-07T08:54:35.000Z</time>
      </trkpt>
      <trkpt lat="43.76272" lon="1.7748">
        <ele>184.6</ele>
        <time>2018-02-07T08:54:44.000Z</time>
      </trkpt>
      <trkpt lat="43.76266" lon="1.77486">
        <ele>184.9</ele>
        <time>2018-02-07T08:54:52.000Z</time>
      </trkpt>
      <trkpt lat="43.76261" lon="1.77493">
        <ele>189.4</ele>
        <time>2018-02-07T08:54:58.000Z</time>
      </trkpt>
      <trkpt lat="43.76254" lon="1.77501">
        <ele>189.5</ele>
        <time>2018-02-07T08:55:4.000Z</time>
      </trkpt>
      <trkpt lat="43.76244" lon="1.77507">
        <ele>189.8</ele>
        <time>2018-02-07T08:55:14.000Z</time>
      </trkpt>
      <trkpt lat="43.76239" lon="1.77517">
        <ele>190</ele>
        <time>2018-02-07T08:55:22.000Z</time>
      </trkpt>
      <trkpt lat="43.76231" lon="1.77525">
        <ele>190.4</ele>
        <time>2018-02-07T08:55:31.000Z</time>
      </trkpt>
      <trkpt lat="43.76232" lon="1.77539">
        <ele>190.6</ele>
        <time>2018-02-07T08:55:35.000Z</time>
      </trkpt>
      <trkpt lat="43.76232" lon="1.77553">
        <ele>190.7</ele>
        <time>2018-02-07T08:55:39.000Z</time>
      </trkpt>
      <trkpt lat="43.76236" lon="1.77566">
        <ele>190.9</ele>
        <time>2018-02-07T08:55:45.000Z</time>
      </trkpt>
      <trkpt lat="43.76241" lon="1.77577">
        <ele>191</ele>
        <time>2018-02-07T08:55:52.000Z</time>
      </trkpt>
      <trkpt lat="43.76249" lon="1.77586">
        <ele>190.9</ele>
        <time>2018-02-07T08:56:2.000Z</time>
      </trkpt>
      <trkpt lat="43.76257" lon="1.77592">
        <ele>190.9</ele>
        <time>2018-02-07T08:56:9.000Z</time>
      </trkpt>
      <trkpt lat="43.76264" lon="1.77602">
        <ele>190.9</ele>
        <time>2018-02-07T08:56:19.000Z</time>
      </trkpt>
      <trkpt lat="43.76265" lon="1.77614">
        <ele>191.1</ele>
        <time>2018-02-07T08:56:28.000Z</time>
      </trkpt>
      <trkpt lat="43.76263" lon="1.77627">
        <ele>191.6</ele>
        <time>2018-02-07T08:56:37.000Z</time>
      </trkpt>
      <trkpt lat="43.76261" lon="1.77641">
        <ele>191.9</ele>
        <time>2018-02-07T08:56:43.000Z</time>
      </trkpt>
      <trkpt lat="43.76255" lon="1.77651">
        <ele>192.3</ele>
        <time>2018-02-07T08:56:50.000Z</time>
      </trkpt>
      <trkpt lat="43.76251" lon="1.77664">
        <ele>192.5</ele>
        <time>2018-02-07T08:57:0.000Z</time>
      </trkpt>
      <trkpt lat="43.76244" lon="1.77675">
        <ele>192.9</ele>
        <time>2018-02-07T08:57:7.000Z</time>
      </trkpt>
      <trkpt lat="43.76243" lon="1.77688">
        <ele>193.1</ele>
        <time>2018-02-07T08:57:16.000Z</time>
      </trkpt>
      <trkpt lat="43.76238" lon="1.77698">
        <ele>193.2</ele>
        <time>2018-02-07T08:57:23.000Z</time>
      </trkpt>
      <trkpt lat="43.7623" lon="1.77705">
        <ele>193.3</ele>
        <time>2018-02-07T08:57:28.000Z</time>
      </trkpt>
      <trkpt lat="43.76221" lon="1.77713">
        <ele>193.6</ele>
        <time>2018-02-07T08:57:34.000Z</time>
      </trkpt>
      <trkpt lat="43.76213" lon="1.77722">
        <ele>194</ele>
        <time>2018-02-07T08:57:43.000Z</time>
      </trkpt>
      <trkpt lat="43.76206" lon="1.77732">
        <ele>194.5</ele>
        <time>2018-02-07T08:57:51.000Z</time>
      </trkpt>
      <trkpt lat="43.76199" lon="1.77743">
        <ele>194.9</ele>
        <time>2018-02-07T08:58:0.000Z</time>
      </trkpt>
      <trkpt lat="43.76192" lon="1.77751">
        <ele>195.1</ele>
        <time>2018-02-07T08:58:7.000Z</time>
      </trkpt>
      <trkpt lat="43.76185" lon="1.7776">
        <ele>195.3</ele>
        <time>2018-02-07T08:58:17.000Z</time>
      </trkpt>
      <trkpt lat="43.76178" lon="1.77751">
        <ele>195.3</ele>
        <time>2018-02-07T08:58:27.000Z</time>
      </trkpt>
      <trkpt lat="43.76173" lon="1.7774">
        <ele>195.5</ele>
        <time>2018-02-07T08:58:37.000Z</time>
      </trkpt>
      <trkpt lat="43.76172" lon="1.77726">
        <ele>195.7</ele>
        <time>2018-02-07T08:58:46.000Z</time>
      </trkpt>
      <trkpt lat="43.76167" lon="1.77714">
        <ele>195.9</ele>
        <time>2018-02-07T08:58:54.000Z</time>
      </trkpt>
      <trkpt lat="43.76162" lon="1.77703">
        <ele>196.3</ele>
        <time>2018-02-07T08:59:2.000Z</time>
      </trkpt>
      <trkpt lat="43.76155" lon="1.77695">
        <ele>196.2</ele>
        <time>2018-02-07T08:59:10.000Z</time>
      </trkpt>
      <trkpt lat="43.76149" lon="1.77685">
        <ele>196.3</ele>
        <time>2018-02-07T08:59:20.000Z</time>
      </trkpt>
      <trkpt lat="43.7614" lon="1.77685">
        <ele>196.4</ele>
        <time>2018-02-07T08:59:31.000Z</time>
      </trkpt>
      <trkpt lat="43.76131" lon="1.77691">
        <ele>196.8</ele>
        <time>2018-02-07T08:59:42.000Z</time>
      </trkpt>
      <trkpt lat="43.76131" lon="1.77704">
        <ele>197</ele>
        <time>2018-02-07T08:59:48.000Z</time>
      </trkpt>
      <trkpt lat="43.76126" lon="1.77715">
        <ele>197.3</ele>
        <time>2018-02-07T08:59:56.000Z</time>
      </trkpt>
      <trkpt lat="43.76119" lon="1.77722">
        <ele>197.7</ele>
        <time>2018-02-07T09:00:4.000Z</time>
      </trkpt>
      <trkpt lat="43.76114" lon="1.77734">
        <ele>198</ele>
        <time>2018-02-07T09:00:12.000Z</time>
      </trkpt>
      <trkpt lat="43.76107" lon="1.77741">
        <ele>198.3</ele>
        <time>2018-02-07T09:00:20.000Z</time>
      </trkpt>
      <trkpt lat="43.76103" lon="1.77754">
        <ele>198.8</ele>
        <time>2018-02-07T09:00:29.000Z</time>
      </trkpt>
      <trkpt lat="43.76098" lon="1.77765">
        <ele>199.1</ele>
        <time>2018-02-07T09:00:37.000Z</time>
      </trkpt>
      <trkpt lat="43.76094" lon="1.77776">
        <ele>199.6</ele>
        <time>2018-02-07T09:00:48.000Z</time>
      </trkpt>
      <trkpt lat="43.76087" lon="1.77785">
        <ele>200.1</ele>
        <time>2018-02-07T09:00:57.000Z</time>
      </trkpt>
      <trkpt lat="43.76083" lon="1.77797">
        <ele>200.6</ele>
        <time>2018-02-07T09:01:6.000Z</time>
      </trkpt>
      <trkpt lat="43.76075" lon="1.77805">
        <ele>200.9</ele>
        <time>2018-02-07T09:01:13.000Z</time>
      </trkpt>
      <trkpt lat="43.76065" lon="1.77806">
        <ele>201.1</ele>
        <time>2018-02-07T09:01:16.000Z</time>
      </trkpt>
      <trkpt lat="43.76062" lon="1.77818">
        <ele>201.4</ele>
        <time>2018-02-07T09:01:24.000Z</time>
      </trkpt>
      <trkpt lat="43.76056" lon="1.77829">
        <ele>201.7</ele>
        <time>2018-02-07T09:01:31.000Z</time>
      </trkpt>
      <trkpt lat="43.76051" lon="1.7784">
        <ele>202.1</ele>
        <time>2018-02-07T09:01:38.000Z</time>
      </trkpt>
      <trkpt lat="43.76043" lon="1.77849">
        <ele>202.4</ele>
        <time>2018-02-07T09:01:46.000Z</time>
      </trkpt>
      <trkpt lat="43.76034" lon="1.77855">
        <ele>202.6</ele>
        <time>2018-02-07T09:01:50.000Z</time>
      </trkpt>
      <trkpt lat="43.7603" lon="1.77867">
        <ele>202.9</ele>
        <time>2018-02-07T09:01:57.000Z</time>
      </trkpt>
      <trkpt lat="43.76027" lon="1.77879">
        <ele>203.1</ele>
        <time>2018-02-07T09:02:5.000Z</time>
      </trkpt>
      <trkpt lat="43.76019" lon="1.77888">
        <ele>203.3</ele>
        <time>2018-02-07T09:02:14.000Z</time>
      </trkpt>
      <trkpt lat="43.76015" lon="1.779">
        <ele>203.9</ele>
        <time>2018-02-07T09:02:25.000Z</time>
      </trkpt>
      <trkpt lat="43.76011" lon="1.77912">
        <ele>204.4</ele>
        <time>2018-02-07T09:02:34.000Z</time>
      </trkpt>
      <trkpt lat="43.76011" lon="1.77925">
        <ele>205</ele>
        <time>2018-02-07T09:02:40.000Z</time>
      </trkpt>
      <trkpt lat="43.76004" lon="1.77935">
        <ele>205.8</ele>
        <time>2018-02-07T09:02:47.000Z</time>
      </trkpt>
      <trkpt lat="43.76" lon="1.77948">
        <ele>206.6</ele>
        <time>2018-02-07T09:02:54.000Z</time>
      </trkpt>
      <trkpt lat="43.76004" lon="1.77963">
        <ele>207.5</ele>
        <time>2018-02-07T09:03:9.000Z</time>
      </trkpt>
      <trkpt lat="43.76006" lon="1.77975">
        <ele>208.7</ele>
        <time>2018-02-07T09:03:19.000Z</time>
      </trkpt>
      <trkpt lat="43.75998" lon="1.77968">
        <ele>209.4</ele>
        <time>2018-02-07T09:04:26.000Z</time>
      </trkpt>
      <trkpt lat="43.75994" lon="1.77956">
        <ele>209.2</ele>
        <time>2018-02-07T09:04:35.000Z</time>
      </trkpt>
      <trkpt lat="43.75996" lon="1.77943">
        <ele>209.1</ele>
        <time>2018-02-07T09:04:41.000Z</time>
      </trkpt>
      <trkpt lat="43.75998" lon="1.77929">
        <ele>208.4</ele>
        <time>2018-02-07T09:04:52.000Z</time>
      </trkpt>
      <trkpt lat="43.75999" lon="1.77915">
        <ele>207.6</ele>
        <time>2018-02-07T09:04:59.000Z</time>
      </trkpt>
      <trkpt lat="43.76003" lon="1.77901">
        <ele>207.1</ele>
        <time>2018-02-07T09:05:5.000Z</time>
      </trkpt>
      <trkpt lat="43.76008" lon="1.7789">
        <ele>205.9</ele>
        <time>2018-02-07T09:05:14.000Z</time>
      </trkpt>
      <trkpt lat="43.76014" lon="1.7788">
        <ele>204.8</ele>
        <time>2018-02-07T09:05:24.000Z</time>
      </trkpt>
      <trkpt lat="43.7602" lon="1.7787">
        <ele>204.6</ele>
        <time>2018-02-07T09:05:33.000Z</time>
      </trkpt>
      <trkpt lat="43.76025" lon="1.77859">
        <ele>204.5</ele>
        <time>2018-02-07T09:05:41.000Z</time>
      </trkpt>
      <trkpt lat="43.7603" lon="1.77848">
        <ele>204.2</ele>
        <time>2018-02-07T09:05:50.000Z</time>
      </trkpt>
      <trkpt lat="43.76037" lon="1.77838">
        <ele>204</ele>
        <time>2018-02-07T09:05:58.000Z</time>
      </trkpt>
      <trkpt lat="43.76043" lon="1.77827">
        <ele>203.8</ele>
        <time>2018-02-07T09:06:3.000Z</time>
      </trkpt>
      <trkpt lat="43.76051" lon="1.7782">
        <ele>203.7</ele>
        <time>2018-02-07T09:06:11.000Z</time>
      </trkpt>
      <trkpt lat="43.76055" lon="1.77808">
        <ele>203.6</ele>
        <time>2018-02-07T09:06:17.000Z</time>
      </trkpt>
      <trkpt lat="43.76062" lon="1.77799">
        <ele>203.1</ele>
        <time>2018-02-07T09:06:25.000Z</time>
      </trkpt>
      <trkpt lat="43.7607" lon="1.77792">
        <ele>202.5</ele>
        <time>2018-02-07T09:06:32.000Z</time>
      </trkpt>
      <trkpt lat="43.76077" lon="1.77783">
        <ele>202.2</ele>
        <time>2018-02-07T09:06:37.000Z</time>
      </trkpt>
      <trkpt lat="43.76082" lon="1.77773">
        <ele>201.8</ele>
        <time>2018-02-07T09:06:46.000Z</time>
      </trkpt>
      <trkpt lat="43.76089" lon="1.77764">
        <ele>201.5</ele>
        <time>2018-02-07T09:06:54.000Z</time>
      </trkpt>
      <trkpt lat="43.76096" lon="1.77755">
        <ele>200.9</ele>
        <time>2018-02-07T09:07:2.000Z</time>
      </trkpt>
      <trkpt lat="43.76103" lon="1.77748">
        <ele>200.3</ele>
        <time>2018-02-07T09:07:8.000Z</time>
      </trkpt>
      <trkpt lat="43.7611" lon="1.77739">
        <ele>199.8</ele>
        <time>2018-02-07T09:07:16.000Z</time>
      </trkpt>
      <trkpt lat="43.76115" lon="1.77728">
        <ele>199.5</ele>
        <time>2018-02-07T09:07:23.000Z</time>
      </trkpt>
      <trkpt lat="43.7612" lon="1.77718">
        <ele>199.3</ele>
        <time>2018-02-07T09:07:31.000Z</time>
      </trkpt>
      <trkpt lat="43.76124" lon="1.77706">
        <ele>199</ele>
        <time>2018-02-07T09:07:38.000Z</time>
      </trkpt>
      <trkpt lat="43.7613" lon="1.77697">
        <ele>198.6</ele>
        <time>2018-02-07T09:07:45.000Z</time>
      </trkpt>
      <trkpt lat="43.76138" lon="1.77687">
        <ele>198.3</ele>
        <time>2018-02-07T09:07:52.000Z</time>
      </trkpt>
      <trkpt lat="43.76146" lon="1.77678">
        <ele>197.8</ele>
        <time>2018-02-07T09:08:0.000Z</time>
      </trkpt>
      <trkpt lat="43.76155" lon="1.77684">
        <ele>197.3</ele>
        <time>2018-02-07T09:08:7.000Z</time>
      </trkpt>
      <trkpt lat="43.76164" lon="1.7769">
        <ele>197</ele>
        <time>2018-02-07T09:08:13.000Z</time>
      </trkpt>
      <trkpt lat="43.76169" lon="1.77702">
        <ele>196.8</ele>
        <time>2018-02-07T09:08:21.000Z</time>
      </trkpt>
      <trkpt lat="43.76174" lon="1.77714">
        <ele>196.8</ele>
        <time>2018-02-07T09:08:30.000Z</time>
      </trkpt>
      <trkpt lat="43.76179" lon="1.77725">
        <ele>196.6</ele>
        <time>2018-02-07T09:08:38.000Z</time>
      </trkpt>
      <trkpt lat="43.76183" lon="1.77737">
        <ele>196.4</ele>
        <time>2018-02-07T09:08:46.000Z</time>
      </trkpt>
      <trkpt lat="43.76187" lon="1.7775">
        <ele>196.3</ele>
        <time>2018-02-07T09:08:54.000Z</time>
      </trkpt>
      <trkpt lat="43.7619" lon="1.77763">
        <ele>196.2</ele>
        <time>2018-02-07T09:09:3.000Z</time>
      </trkpt>
      <trkpt lat="43.76191" lon="1.77776">
        <ele>195.9</ele>
        <time>2018-02-07T09:09:11.000Z</time>
      </trkpt>
      <trkpt lat="43.76194" lon="1.77788">
        <ele>195.7</ele>
        <time>2018-02-07T09:09:20.000Z</time>
      </trkpt>
      <trkpt lat="43.76197" lon="1.77801">
        <ele>195.8</ele>
        <time>2018-02-07T09:09:29.000Z</time>
      </trkpt>
      <trkpt lat="43.76202" lon="1.77813">
        <ele>195.9</ele>
        <time>2018-02-07T09:09:37.000Z</time>
      </trkpt>
      <trkpt lat="43.76208" lon="1.77824">
        <ele>195.9</ele>
        <time>2018-02-07T09:09:45.000Z</time>
      </trkpt>
      <trkpt lat="43.76213" lon="1.77834">
        <ele>196</ele>
        <time>2018-02-07T09:09:53.000Z</time>
      </trkpt>
      <trkpt lat="43.76219" lon="1.77844">
        <ele>195.8</ele>
        <time>2018-02-07T09:10:1.000Z</time>
      </trkpt>
      <trkpt lat="43.76225" lon="1.77854">
        <ele>195.6</ele>
        <time>2018-02-07T09:10:9.000Z</time>
      </trkpt>
      <trkpt lat="43.76231" lon="1.77864">
        <ele>195.3</ele>
        <time>2018-02-07T09:10:17.000Z</time>
      </trkpt>
      <trkpt lat="43.76237" lon="1.77875">
        <ele>195.2</ele>
        <time>2018-02-07T09:10:25.000Z</time>
      </trkpt>
      <trkpt lat="43.76242" lon="1.77886">
        <ele>195.1</ele>
        <time>2018-02-07T09:10:33.000Z</time>
      </trkpt>
      <trkpt lat="43.76247" lon="1.77899">
        <ele>195.1</ele>
        <time>2018-02-07T09:10:42.000Z</time>
      </trkpt>
      <trkpt lat="43.76251" lon="1.77911">
        <ele>195.2</ele>
        <time>2018-02-07T09:10:52.000Z</time>
      </trkpt>
      <trkpt lat="43.76254" lon="1.77923">
        <ele>195.3</ele>
        <time>2018-02-07T09:11:8.000Z</time>
      </trkpt>
      <trkpt lat="43.76257" lon="1.77937">
        <ele>196.1</ele>
        <time>2018-02-07T09:11:19.000Z</time>
      </trkpt>
      <trkpt lat="43.76258" lon="1.7795">
        <ele>196.6</ele>
        <time>2018-02-07T09:11:28.000Z</time>
      </trkpt>
      <trkpt lat="43.76259" lon="1.77963">
        <ele>197.2</ele>
        <time>2018-02-07T09:11:38.000Z</time>
      </trkpt>
      <trkpt lat="43.76262" lon="1.77975">
        <ele>197.7</ele>
        <time>2018-02-07T09:11:46.000Z</time>
      </trkpt>
      <trkpt lat="43.76263" lon="1.77988">
        <ele>198.3</ele>
        <time>2018-02-07T09:11:53.000Z</time>
      </trkpt>
      <trkpt lat="43.76263" lon="1.78001">
        <ele>198.8</ele>
        <time>2018-02-07T09:12:1.000Z</time>
      </trkpt>
      <trkpt lat="43.76263" lon="1.78013">
        <ele>199.4</ele>
        <time>2018-02-07T09:12:8.000Z</time>
      </trkpt>
      <trkpt lat="43.76264" lon="1.78026">
        <ele>199.9</ele>
        <time>2018-02-07T09:12:16.000Z</time>
      </trkpt>
      <trkpt lat="43.76259" lon="1.78039">
        <ele>200.5</ele>
        <time>2018-02-07T09:12:25.000Z</time>
      </trkpt>
      <trkpt lat="43.76255" lon="1.78052">
        <ele>201.3</ele>
        <time>2018-02-07T09:12:34.000Z</time>
      </trkpt>
      <trkpt lat="43.76251" lon="1.78065">
        <ele>201.7</ele>
        <time>2018-02-07T09:12:41.000Z</time>
      </trkpt>
      <trkpt lat="43.76248" lon="1.78078">
        <ele>201.8</ele>
        <time>2018-02-07T09:12:47.000Z</time>
      </trkpt>
      <trkpt lat="43.76243" lon="1.78088">
        <ele>202</ele>
        <time>2018-02-07T09:12:54.000Z</time>
      </trkpt>
      <trkpt lat="43.76237" lon="1.78098">
        <ele>202.6</ele>
        <time>2018-02-07T09:13:2.000Z</time>
      </trkpt>
      <trkpt lat="43.7623" lon="1.78109">
        <ele>202.7</ele>
        <time>2018-02-07T09:13:9.000Z</time>
      </trkpt>
      <trkpt lat="43.76226" lon="1.78121">
        <ele>202.9</ele>
        <time>2018-02-07T09:13:17.000Z</time>
      </trkpt>
      <trkpt lat="43.7622" lon="1.78132">
        <ele>203.1</ele>
        <time>2018-02-07T09:13:25.000Z</time>
      </trkpt>
      <trkpt lat="43.76217" lon="1.78144">
        <ele>203.5</ele>
        <time>2018-02-07T09:13:33.000Z</time>
      </trkpt>
      <trkpt lat="43.76212" lon="1.78155">
        <ele>203.9</ele>
        <time>2018-02-07T09:13:40.000Z</time>
      </trkpt>
      <trkpt lat="43.76208" lon="1.78167">
        <ele>204</ele>
        <time>2018-02-07T09:13:47.000Z</time>
      </trkpt>
      <trkpt lat="43.76202" lon="1.78177">
        <ele>204.3</ele>
        <time>2018-02-07T09:13:53.000Z</time>
      </trkpt>
      <trkpt lat="43.76197" lon="1.78189">
        <ele>204.4</ele>
        <time>2018-02-07T09:14:0.000Z</time>
      </trkpt>
      <trkpt lat="43.76194" lon="1.78202">
        <ele>204.7</ele>
        <time>2018-02-07T09:14:7.000Z</time>
      </trkpt>
      <trkpt lat="43.76192" lon="1.78215">
        <ele>205</ele>
        <time>2018-02-07T09:14:15.000Z</time>
      </trkpt>
      <trkpt lat="43.7619" lon="1.78228">
        <ele>205.2</ele>
        <time>2018-02-07T09:14:23.000Z</time>
      </trkpt>
      <trkpt lat="43.76188" lon="1.78242">
        <ele>205.4</ele>
        <time>2018-02-07T09:14:31.000Z</time>
      </trkpt>
      <trkpt lat="43.76184" lon="1.78254">
        <ele>205.7</ele>
        <time>2018-02-07T09:14:38.000Z</time>
      </trkpt>
      <trkpt lat="43.7618" lon="1.78265">
        <ele>206</ele>
        <time>2018-02-07T09:14:45.000Z</time>
      </trkpt>
      <trkpt lat="43.76177" lon="1.78278">
        <ele>206.3</ele>
        <time>2018-02-07T09:14:53.000Z</time>
      </trkpt>
      <trkpt lat="43.76172" lon="1.78289">
        <ele>206.6</ele>
        <time>2018-02-07T09:15:2.000Z</time>
      </trkpt>
      <trkpt lat="43.76169" lon="1.78302">
        <ele>206.8</ele>
        <time>2018-02-07T09:15:11.000Z</time>
      </trkpt>
      <trkpt lat="43.76165" lon="1.78313">
        <ele>207.1</ele>
        <time>2018-02-07T09:15:17.000Z</time>
      </trkpt>
      <trkpt lat="43.76161" lon="1.78325">
        <ele>207.6</ele>
        <time>2018-02-07T09:15:25.000Z</time>
      </trkpt>
      <trkpt lat="43.76158" lon="1.78338">
        <ele>208.3</ele>
        <time>2018-02-07T09:15:34.000Z</time>
      </trkpt>
      <trkpt lat="43.76156" lon="1.78351">
        <ele>209.1</ele>
        <time>2018-02-07T09:15:42.000Z</time>
      </trkpt>
      <trkpt lat="43.76154" lon="1.78364">
        <ele>209.7</ele>
        <time>2018-02-07T09:15:49.000Z</time>
      </trkpt>
      <trkpt lat="43.76151" lon="1.78377">
        <ele>210.7</ele>
        <time>2018-02-07T09:15:58.000Z</time>
      </trkpt>
      <trkpt lat="43.76149" lon="1.78391">
        <ele>211.9</ele>
        <time>2018-02-07T09:16:6.000Z</time>
      </trkpt>
      <trkpt lat="43.76147" lon="1.78404">
        <ele>212.9</ele>
        <time>2018-02-07T09:16:14.000Z</time>
      </trkpt>
      <trkpt lat="43.76144" lon="1.78417">
        <ele>214</ele>
        <time>2018-02-07T09:16:22.000Z</time>
      </trkpt>
      <trkpt lat="43.76141" lon="1.7843">
        <ele>215</ele>
        <time>2018-02-07T09:16:30.000Z</time>
      </trkpt>
      <trkpt lat="43.7614" lon="1.78443">
        <ele>215.5</ele>
        <time>2018-02-07T09:16:36.000Z</time>
      </trkpt>
      <trkpt lat="43.76137" lon="1.78456">
        <ele>216.1</ele>
        <time>2018-02-07T09:16:43.000Z</time>
      </trkpt>
      <trkpt lat="43.76132" lon="1.78468">
        <ele>216.7</ele>
        <time>2018-02-07T09:16:50.000Z</time>
      </trkpt>
      <trkpt lat="43.76129" lon="1.7848">
        <ele>217.3</ele>
        <time>2018-02-07T09:16:59.000Z</time>
      </trkpt>
      <trkpt lat="43.76126" lon="1.78493">
        <ele>218</ele>
        <time>2018-02-07T09:17:8.000Z</time>
      </trkpt>
      <trkpt lat="43.76122" lon="1.78505">
        <ele>218.7</ele>
        <time>2018-02-07T09:17:16.000Z</time>
      </trkpt>
      <trkpt lat="43.76121" lon="1.78517">
        <ele>219.4</ele>
        <time>2018-02-07T09:17:24.000Z</time>
      </trkpt>
      <trkpt lat="43.76118" lon="1.7853">
        <ele>219.8</ele>
        <time>2018-02-07T09:17:31.000Z</time>
      </trkpt>
      <trkpt lat="43.76118" lon="1.78542">
        <ele>220.2</ele>
        <time>2018-02-07T09:17:39.000Z</time>
      </trkpt>
      <trkpt lat="43.76116" lon="1.78556">
        <ele>220.7</ele>
        <time>2018-02-07T09:17:47.000Z</time>
      </trkpt>
      <trkpt lat="43.76112" lon="1.78568">
        <ele>221.1</ele>
        <time>2018-02-07T09:17:55.000Z</time>
      </trkpt>
      <trkpt lat="43.7611" lon="1.78581">
        <ele>221.9</ele>
        <time>2018-02-07T09:18:5.000Z</time>
      </trkpt>
      <trkpt lat="43.76106" lon="1.78593">
        <ele>222.4</ele>
        <time>2018-02-07T09:18:11.000Z</time>
      </trkpt>
      <trkpt lat="43.76097" lon="1.78595">
        <ele>222.9</ele>
        <time>2018-02-07T09:18:21.000Z</time>
      </trkpt>
      <trkpt lat="43.76088" lon="1.78592">
        <ele>222.9</ele>
        <time>2018-02-07T09:18:28.000Z</time>
      </trkpt>
      <trkpt lat="43.76078" lon="1.78588">
        <ele>222.8</ele>
        <time>2018-02-07T09:18:36.000Z</time>
      </trkpt>
      <trkpt lat="43.76069" lon="1.78585">
        <ele>222.7</ele>
        <time>2018-02-07T09:18:43.000Z</time>
      </trkpt>
      <trkpt lat="43.76058" lon="1.78581">
        <ele>222.3</ele>
        <time>2018-02-07T09:18:50.000Z</time>
      </trkpt>
      <trkpt lat="43.76049" lon="1.78576">
        <ele>221.8</ele>
        <time>2018-02-07T09:18:58.000Z</time>
      </trkpt>
      <trkpt lat="43.76039" lon="1.78572">
        <ele>221.2</ele>
        <time>2018-02-07T09:19:7.000Z</time>
      </trkpt>
      <trkpt lat="43.76031" lon="1.78566">
        <ele>220.9</ele>
        <time>2018-02-07T09:19:14.000Z</time>
      </trkpt>
      <trkpt lat="43.76023" lon="1.7856">
        <ele>220.6</ele>
        <time>2018-02-07T09:19:21.000Z</time>
      </trkpt>
      <trkpt lat="43.76015" lon="1.78554">
        <ele>220.4</ele>
        <time>2018-02-07T09:19:28.000Z</time>
      </trkpt>
      <trkpt lat="43.76007" lon="1.78548">
        <ele>220</ele>
        <time>2018-02-07T09:19:36.000Z</time>
      </trkpt>
      <trkpt lat="43.75997" lon="1.78544">
        <ele>220.2</ele>
        <time>2018-02-07T09:19:43.000Z</time>
      </trkpt>
      <trkpt lat="43.76007" lon="1.78546">
        <ele>220.9</ele>
        <time>2018-02-07T09:20:3.000Z</time>
      </trkpt>
      <trkpt lat="43.76017" lon="1.78547">
        <ele>221</ele>
        <time>2018-02-07T09:20:12.000Z</time>
      </trkpt>
      <trkpt lat="43.76025" lon="1.78553">
        <ele>220.8</ele>
        <time>2018-02-07T09:20:20.000Z</time>
      </trkpt>
      <trkpt lat="43.76027" lon="1.78567">
        <ele>220.6</ele>
        <time>2018-02-07T09:20:30.000Z</time>
      </trkpt>
      <trkpt lat="43.76024" lon="1.78579">
        <ele>220.6</ele>
        <time>2018-02-07T09:20:37.000Z</time>
      </trkpt>
      <trkpt lat="43.7602" lon="1.78591">
        <ele>220.5</ele>
        <time>2018-02-07T09:20:44.000Z</time>
      </trkpt>
      <trkpt lat="43.76017" lon="1.78604">
        <ele>220.5</ele>
        <time>2018-02-07T09:20:51.000Z</time>
      </trkpt>
      <trkpt lat="43.76013" lon="1.78615">
        <ele>220.6</ele>
        <time>2018-02-07T09:20:57.000Z</time>
      </trkpt>
      <trkpt lat="43.7601" lon="1.78628">
        <ele>220.9</ele>
        <time>2018-02-07T09:21:4.000Z</time>
      </trkpt>
      <trkpt lat="43.76005" lon="1.78639">
        <ele>221.2</ele>
        <time>2018-02-07T09:21:11.000Z</time>
      </trkpt>
      <trkpt lat="43.76003" lon="1.78651">
        <ele>221.6</ele>
        <time>2018-02-07T09:21:18.000Z</time>
      </trkpt>
      <trkpt lat="43.76" lon="1.78664">
        <ele>222.1</ele>
        <time>2018-02-07T09:21:26.000Z</time>
      </trkpt>
      <trkpt lat="43.75997" lon="1.78676">
        <ele>222.7</ele>
        <time>2018-02-07T09:21:33.000Z</time>
      </trkpt>
      <trkpt lat="43.75997" lon="1.7869">
        <ele>223.3</ele>
        <time>2018-02-07T09:21:41.000Z</time>
      </trkpt>
      <trkpt lat="43.75994" lon="1.78703">
        <ele>223.9</ele>
        <time>2018-02-07T09:21:48.000Z</time>
      </trkpt>
      <trkpt lat="43.75992" lon="1.78715">
        <ele>224.6</ele>
        <time>2018-02-07T09:21:56.000Z</time>
      </trkpt>
      <trkpt lat="43.7599" lon="1.78728">
        <ele>224.3</ele>
        <time>2018-02-07T09:22:4.000Z</time>
      </trkpt>
      <trkpt lat="43.75989" lon="1.78741">
        <ele>224.2</ele>
        <time>2018-02-07T09:22:11.000Z</time>
      </trkpt>
      <trkpt lat="43.75986" lon="1.78753">
        <ele>223.1</ele>
        <time>2018-02-07T09:22:19.000Z</time>
      </trkpt>
      <trkpt lat="43.75985" lon="1.78767">
        <ele>222</ele>
        <time>2018-02-07T09:22:28.000Z</time>
      </trkpt>
      <trkpt lat="43.75985" lon="1.7878">
        <ele>221</ele>
        <time>2018-02-07T09:22:35.000Z</time>
      </trkpt>
      <trkpt lat="43.75983" lon="1.78793">
        <ele>219.3</ele>
        <time>2018-02-07T09:22:43.000Z</time>
      </trkpt>
      <trkpt lat="43.75979" lon="1.78806">
        <ele>218.1</ele>
        <time>2018-02-07T09:22:50.000Z</time>
      </trkpt>
      <trkpt lat="43.75975" lon="1.78818">
        <ele>216.7</ele>
        <time>2018-02-07T09:22:59.000Z</time>
      </trkpt>
      <trkpt lat="43.75974" lon="1.78832">
        <ele>215</ele>
        <time>2018-02-07T09:23:8.000Z</time>
      </trkpt>
      <trkpt lat="43.75971" lon="1.78844">
        <ele>213.3</ele>
        <time>2018-02-07T09:23:16.000Z</time>
      </trkpt>
      <trkpt lat="43.75969" lon="1.78856">
        <ele>211.5</ele>
        <time>2018-02-07T09:23:23.000Z</time>
      </trkpt>
      <trkpt lat="43.75965" lon="1.78869">
        <ele>209.5</ele>
        <time>2018-02-07T09:23:32.000Z</time>
      </trkpt>
      <trkpt lat="43.75964" lon="1.78883">
        <ele>207.6</ele>
        <time>2018-02-07T09:23:40.000Z</time>
      </trkpt>
      <trkpt lat="43.75959" lon="1.78896">
        <ele>206.2</ele>
        <time>2018-02-07T09:23:47.000Z</time>
      </trkpt>
      <trkpt lat="43.75954" lon="1.78907">
        <ele>204.2</ele>
        <time>2018-02-07T09:23:57.000Z</time>
      </trkpt>
      <trkpt lat="43.7595" lon="1.7892">
        <ele>202.5</ele>
        <time>2018-02-07T09:24:5.000Z</time>
      </trkpt>
      <trkpt lat="43.75947" lon="1.78934">
        <ele>200.9</ele>
        <time>2018-02-07T09:24:12.000Z</time>
      </trkpt>
      <trkpt lat="43.75942" lon="1.78945">
        <ele>199.5</ele>
        <time>2018-02-07T09:24:19.000Z</time>
      </trkpt>
      <trkpt lat="43.75938" lon="1.78958">
        <ele>197.5</ele>
        <time>2018-02-07T09:24:27.000Z</time>
      </trkpt>
      <trkpt lat="43.75932" lon="1.78969">
        <ele>196.2</ele>
        <time>2018-02-07T09:24:34.000Z</time>
      </trkpt>
      <trkpt lat="43.75928" lon="1.78981">
        <ele>194.3</ele>
        <time>2018-02-07T09:24:43.000Z</time>
      </trkpt>
      <trkpt lat="43.75924" lon="1.78993">
        <ele>193</ele>
        <time>2018-02-07T09:24:50.000Z</time>
      </trkpt>
      <trkpt lat="43.75921" lon="1.79005">
        <ele>191.9</ele>
        <time>2018-02-07T09:24:56.000Z</time>
      </trkpt>
      <trkpt lat="43.75917" lon="1.79018">
        <ele>190.4</ele>
        <time>2018-02-07T09:25:4.000Z</time>
      </trkpt>
      <trkpt lat="43.75914" lon="1.79031">
        <ele>189.3</ele>
        <time>2018-02-07T09:25:11.000Z</time>
      </trkpt>
      <trkpt lat="43.75909" lon="1.79043">
        <ele>188.1</ele>
        <time>2018-02-07T09:25:19.000Z</time>
      </trkpt>
      <trkpt lat="43.75901" lon="1.7905">
        <ele>187.1</ele>
        <time>2018-02-07T09:25:27.000Z</time>
      </trkpt>
      <trkpt lat="43.75894" lon="1.79059">
        <ele>185.9</ele>
        <time>2018-02-07T09:25:35.000Z</time>
      </trkpt>
      <trkpt lat="43.75888" lon="1.7907">
        <ele>184.9</ele>
        <time>2018-02-07T09:25:44.000Z</time>
      </trkpt>
      <trkpt lat="43.75883" lon="1.79081">
        <ele>184.1</ele>
        <time>2018-02-07T09:25:53.000Z</time>
      </trkpt>
      <trkpt lat="43.7588" lon="1.79093">
        <ele>182.8</ele>
        <time>2018-02-07T09:26:6.000Z</time>
      </trkpt>
      <trkpt lat="43.7588" lon="1.79107">
        <ele>182.4</ele>
        <time>2018-02-07T09:26:14.000Z</time>
      </trkpt>
      <trkpt lat="43.75882" lon="1.79121">
        <ele>182.1</ele>
        <time>2018-02-07T09:26:20.000Z</time>
      </trkpt>
      <trkpt lat="43.75884" lon="1.79135">
        <ele>181.7</ele>
        <time>2018-02-07T09:26:26.000Z</time>
      </trkpt>
      <trkpt lat="43.75884" lon="1.79149">
        <ele>181.1</ele>
        <time>2018-02-07T09:26:33.000Z</time>
      </trkpt>
      <trkpt lat="43.75884" lon="1.79163">
        <ele>180.7</ele>
        <time>2018-02-07T09:26:41.000Z</time>
      </trkpt>
      <trkpt lat="43.75884" lon="1.79175">
        <ele>180.7</ele>
        <time>2018-02-07T09:26:47.000Z</time>
      </trkpt>
      <trkpt lat="43.75884" lon="1.79189">
        <ele>180.6</ele>
        <time>2018-02-07T09:26:54.000Z</time>
      </trkpt>
      <trkpt lat="43.75884" lon="1.79203">
        <ele>180.2</ele>
        <time>2018-02-07T09:27:2.000Z</time>
      </trkpt>
      <trkpt lat="43.75885" lon="1.79216">
        <ele>179.9</ele>
        <time>2018-02-07T09:27:10.000Z</time>
      </trkpt>
      <trkpt lat="43.75885" lon="1.79229">
        <ele>179.8</ele>
        <time>2018-02-07T09:27:17.000Z</time>
      </trkpt>
      <trkpt lat="43.75885" lon="1.79242">
        <ele>179.7</ele>
        <time>2018-02-07T09:27:25.000Z</time>
      </trkpt>
      <trkpt lat="43.75882" lon="1.79255">
        <ele>179.7</ele>
        <time>2018-02-07T09:27:34.000Z</time>
      </trkpt>
      <trkpt lat="43.75881" lon="1.79269">
        <ele>179.8</ele>
        <time>2018-02-07T09:27:41.000Z</time>
      </trkpt>
      <trkpt lat="43.75879" lon="1.79281">
        <ele>179.9</ele>
        <time>2018-02-07T09:27:49.000Z</time>
      </trkpt>
      <trkpt lat="43.75877" lon="1.79295">
        <ele>180</ele>
        <time>2018-02-07T09:27:55.000Z</time>
      </trkpt>
      <trkpt lat="43.75872" lon="1.79305">
        <ele>180.2</ele>
        <time>2018-02-07T09:28:2.000Z</time>
      </trkpt>
      <trkpt lat="43.75867" lon="1.79317">
        <ele>180.2</ele>
        <time>2018-02-07T09:28:9.000Z</time>
      </trkpt>
      <trkpt lat="43.75862" lon="1.79329">
        <ele>180.5</ele>
        <time>2018-02-07T09:28:17.000Z</time>
      </trkpt>
      <trkpt lat="43.75858" lon="1.79342">
        <ele>180.7</ele>
        <time>2018-02-07T09:28:25.000Z</time>
      </trkpt>
      <trkpt lat="43.75853" lon="1.79354">
        <ele>180.9</ele>
        <time>2018-02-07T09:28:33.000Z</time>
      </trkpt>
      <trkpt lat="43.75851" lon="1.79366">
        <ele>180.9</ele>
        <time>2018-02-07T09:28:40.000Z</time>
      </trkpt>
      <trkpt lat="43.75846" lon="1.79378">
        <ele>180.6</ele>
        <time>2018-02-07T09:28:46.000Z</time>
      </trkpt>
      <trkpt lat="43.75845" lon="1.7939">
        <ele>180.3</ele>
        <time>2018-02-07T09:28:53.000Z</time>
      </trkpt>
      <trkpt lat="43.75843" lon="1.79403">
        <ele>180.2</ele>
        <time>2018-02-07T09:29:0.000Z</time>
      </trkpt>
      <trkpt lat="43.75844" lon="1.79416">
        <ele>180.1</ele>
        <time>2018-02-07T09:29:9.000Z</time>
      </trkpt>
      <trkpt lat="43.75842" lon="1.79429">
        <ele>179.8</ele>
        <time>2018-02-07T09:29:18.000Z</time>
      </trkpt>
      <trkpt lat="43.75838" lon="1.79443">
        <ele>179.2</ele>
        <time>2018-02-07T09:29:27.000Z</time>
      </trkpt>
      <trkpt lat="43.75836" lon="1.79456">
        <ele>179.1</ele>
        <time>2018-02-07T09:29:36.000Z</time>
      </trkpt>
      <trkpt lat="43.75834" lon="1.79469">
        <ele>178.7</ele>
        <time>2018-02-07T09:29:46.000Z</time>
      </trkpt>
      <trkpt lat="43.7583" lon="1.79481">
        <ele>178.4</ele>
        <time>2018-02-07T09:29:55.000Z</time>
      </trkpt>
      <trkpt lat="43.75831" lon="1.79495">
        <ele>178.2</ele>
        <time>2018-02-07T09:30:2.000Z</time>
      </trkpt>
      <trkpt lat="43.75826" lon="1.79506">
        <ele>178</ele>
        <time>2018-02-07T09:30:8.000Z</time>
      </trkpt>
      <trkpt lat="43.75822" lon="1.79517">
        <ele>177.4</ele>
        <time>2018-02-07T09:30:16.000Z</time>
      </trkpt>
      <trkpt lat="43.75821" lon="1.7953">
        <ele>177.3</ele>
        <time>2018-02-07T09:30:24.000Z</time>
      </trkpt>
      <trkpt lat="43.75821" lon="1.79543">
        <ele>177</ele>
        <time>2018-02-07T09:30:31.000Z</time>
      </trkpt>
      <trkpt lat="43.7582" lon="1.79556">
        <ele>176.7</ele>
        <time>2018-02-07T09:30:37.000Z</time>
      </trkpt>
      <trkpt lat="43.75821" lon="1.79569">
        <ele>176.4</ele>
        <time>2018-02-07T09:30:45.000Z</time>
      </trkpt>
      <trkpt lat="43.75822" lon="1.79582">
        <ele>176.3</ele>
        <time>2018-02-07T09:30:52.000Z</time>
      </trkpt>
      <trkpt lat="43.75821" lon="1.79595">
        <ele>176.2</ele>
        <time>2018-02-07T09:30:59.000Z</time>
      </trkpt>
      <trkpt lat="43.75822" lon="1.79609">
        <ele>176.1</ele>
        <time>2018-02-07T09:31:6.000Z</time>
      </trkpt>
      <trkpt lat="43.75821" lon="1.79622">
        <ele>176</ele>
        <time>2018-02-07T09:31:14.000Z</time>
      </trkpt>
      <trkpt lat="43.7582" lon="1.79635">
        <ele>176</ele>
        <time>2018-02-07T09:31:23.000Z</time>
      </trkpt>
      <trkpt lat="43.75819" lon="1.79648">
        <ele>175.8</ele>
        <time>2018-02-07T09:31:31.000Z</time>
      </trkpt>
      <trkpt lat="43.75817" lon="1.7966">
        <ele>175.7</ele>
        <time>2018-02-07T09:31:53.000Z</time>
      </trkpt>
      <trkpt lat="43.75819" lon="1.79675">
        <ele>175.2</ele>
        <time>2018-02-07T09:32:13.000Z</time>
      </trkpt>
      <trkpt lat="43.75819" lon="1.79688">
        <ele>174.8</ele>
        <time>2018-02-07T09:32:23.000Z</time>
      </trkpt>
      <trkpt lat="43.75819" lon="1.79701">
        <ele>174.7</ele>
        <time>2018-02-07T09:32:32.000Z</time>
      </trkpt>
      <trkpt lat="43.7582" lon="1.79714">
        <ele>174.5</ele>
        <time>2018-02-07T09:32:39.000Z</time>
      </trkpt>
      <trkpt lat="43.75821" lon="1.79728">
        <ele>174.5</ele>
        <time>2018-02-07T09:32:46.000Z</time>
      </trkpt>
      <trkpt lat="43.75821" lon="1.79742">
        <ele>174.5</ele>
        <time>2018-02-07T09:32:54.000Z</time>
      </trkpt>
      <trkpt lat="43.75822" lon="1.79755">
        <ele>174.5</ele>
        <time>2018-02-07T09:33:2.000Z</time>
      </trkpt>
      <trkpt lat="43.75823" lon="1.79768">
        <ele>174.4</ele>
        <time>2018-02-07T09:33:10.000Z</time>
      </trkpt>
      <trkpt lat="43.75824" lon="1.7978">
        <ele>174.3</ele>
        <time>2018-02-07T09:33:17.000Z</time>
      </trkpt>
      <trkpt lat="43.75824" lon="1.79793">
        <ele>174.3</ele>
        <time>2018-02-07T09:33:26.000Z</time>
      </trkpt>
      <trkpt lat="43.75824" lon="1.79807">
        <ele>174</ele>
        <time>2018-02-07T09:33:34.000Z</time>
      </trkpt>
      <trkpt lat="43.75824" lon="1.79822">
        <ele>173.7</ele>
        <time>2018-02-07T09:33:41.000Z</time>
      </trkpt>
      <trkpt lat="43.75826" lon="1.79834">
        <ele>173.5</ele>
        <time>2018-02-07T09:33:48.000Z</time>
      </trkpt>
      <trkpt lat="43.75826" lon="1.79848">
        <ele>173.1</ele>
        <time>2018-02-07T09:33:56.000Z</time>
      </trkpt>
      <trkpt lat="43.75826" lon="1.79862">
        <ele>172.7</ele>
        <time>2018-02-07T09:34:4.000Z</time>
      </trkpt>
      <trkpt lat="43.75828" lon="1.79875">
        <ele>172.6</ele>
        <time>2018-02-07T09:34:10.000Z</time>
      </trkpt>
      <trkpt lat="43.75828" lon="1.79888">
        <ele>172.4</ele>
        <time>2018-02-07T09:34:18.000Z</time>
      </trkpt>
      <trkpt lat="43.75828" lon="1.79902">
        <ele>172.3</ele>
        <time>2018-02-07T09:34:27.000Z</time>
      </trkpt>
      <trkpt lat="43.75831" lon="1.79915">
        <ele>172.1</ele>
        <time>2018-02-07T09:34:35.000Z</time>
      </trkpt>
      <trkpt lat="43.75831" lon="1.79928">
        <ele>171.9</ele>
        <time>2018-02-07T09:34:44.000Z</time>
      </trkpt>
      <trkpt lat="43.75834" lon="1.7994">
        <ele>171.6</ele>
        <time>2018-02-07T09:34:52.000Z</time>
      </trkpt>
      <trkpt lat="43.75837" lon="1.79953">
        <ele>171.1</ele>
        <time>2018-02-07T09:35:0.000Z</time>
      </trkpt>
      <trkpt lat="43.7584" lon="1.79967">
        <ele>170.7</ele>
        <time>2018-02-07T09:35:8.000Z</time>
      </trkpt>
      <trkpt lat="43.75841" lon="1.79981">
        <ele>170.4</ele>
        <time>2018-02-07T09:35:16.000Z</time>
      </trkpt>
      <trkpt lat="43.75842" lon="1.79994">
        <ele>170.2</ele>
        <time>2018-02-07T09:35:24.000Z</time>
      </trkpt>
      <trkpt lat="43.75844" lon="1.80007">
        <ele>170</ele>
        <time>2018-02-07T09:35:32.000Z</time>
      </trkpt>
      <trkpt lat="43.75846" lon="1.80021">
        <ele>169.8</ele>
        <time>2018-02-07T09:35:39.000Z</time>
      </trkpt>
      <trkpt lat="43.7585" lon="1.80033">
        <ele>169.6</ele>
        <time>2018-02-07T09:35:47.000Z</time>
      </trkpt>
      <trkpt lat="43.75852" lon="1.80045">
        <ele>169.3</ele>
        <time>2018-02-07T09:35:54.000Z</time>
      </trkpt>
      <trkpt lat="43.75855" lon="1.80057">
        <ele>169.3</ele>
        <time>2018-02-07T09:36:1.000Z</time>
      </trkpt>
      <trkpt lat="43.75858" lon="1.8007">
        <ele>169.2</ele>
        <time>2018-02-07T09:36:8.000Z</time>
      </trkpt>
      <trkpt lat="43.7586" lon="1.80082">
        <ele>169.1</ele>
        <time>2018-02-07T09:36:15.000Z</time>
      </trkpt>
      <trkpt lat="43.75864" lon="1.80094">
        <ele>169</ele>
        <time>2018-02-07T09:36:22.000Z</time>
      </trkpt>
      <trkpt lat="43.75868" lon="1.80106">
        <ele>168.9</ele>
        <time>2018-02-07T09:36:31.000Z</time>
      </trkpt>
      <trkpt lat="43.7587" lon="1.80119">
        <ele>168.7</ele>
        <time>2018-02-07T09:36:38.000Z</time>
      </trkpt>
      <trkpt lat="43.75872" lon="1.80132">
        <ele>168.5</ele>
        <time>2018-02-07T09:36:45.000Z</time>
      </trkpt>
      <trkpt lat="43.75875" lon="1.80145">
        <ele>168.2</ele>
        <time>2018-02-07T09:36:52.000Z</time>
      </trkpt>
      <trkpt lat="43.75876" lon="1.80159">
        <ele>167.9</ele>
        <time>2018-02-07T09:37:1.000Z</time>
      </trkpt>
      <trkpt lat="43.75877" lon="1.80173">
        <ele>167.8</ele>
        <time>2018-02-07T09:37:9.000Z</time>
      </trkpt>
      <trkpt lat="43.75877" lon="1.80186">
        <ele>167.6</ele>
        <time>2018-02-07T09:37:16.000Z</time>
      </trkpt>
      <trkpt lat="43.75876" lon="1.802">
        <ele>167.5</ele>
        <time>2018-02-07T09:37:24.000Z</time>
      </trkpt>
      <trkpt lat="43.75876" lon="1.80214">
        <ele>167.3</ele>
        <time>2018-02-07T09:37:32.000Z</time>
      </trkpt>
      <trkpt lat="43.75877" lon="1.80226">
        <ele>167</ele>
        <time>2018-02-07T09:37:40.000Z</time>
      </trkpt>
      <trkpt lat="43.75878" lon="1.80239">
        <ele>166.8</ele>
        <time>2018-02-07T09:37:47.000Z</time>
      </trkpt>
      <trkpt lat="43.75881" lon="1.80252">
        <ele>165.9</ele>
        <time>2018-02-07T09:37:55.000Z</time>
      </trkpt>
      <trkpt lat="43.75882" lon="1.80265">
        <ele>166</ele>
        <time>2018-02-07T09:38:3.000Z</time>
      </trkpt>
      <trkpt lat="43.75882" lon="1.80278">
        <ele>166</ele>
        <time>2018-02-07T09:38:11.000Z</time>
      </trkpt>
      <trkpt lat="43.75883" lon="1.8029">
        <ele>166</ele>
        <time>2018-02-07T09:38:19.000Z</time>
      </trkpt>
      <trkpt lat="43.75881" lon="1.80303">
        <ele>166</ele>
        <time>2018-02-07T09:38:28.000Z</time>
      </trkpt>
      <trkpt lat="43.75876" lon="1.80315">
        <ele>166</ele>
        <time>2018-02-07T09:38:38.000Z</time>
      </trkpt>
      <trkpt lat="43.7587" lon="1.80324">
        <ele>165.3</ele>
        <time>2018-02-07T09:38:45.000Z</time>
      </trkpt>
      <trkpt lat="43.75863" lon="1.80335">
        <ele>165</ele>
        <time>2018-02-07T09:38:54.000Z</time>
      </trkpt>
      <trkpt lat="43.75864" lon="1.80348">
        <ele>164.7</ele>
        <time>2018-02-07T09:39:2.000Z</time>
      </trkpt>
      <trkpt lat="43.75867" lon="1.80361">
        <ele>164.5</ele>
        <time>2018-02-07T09:39:11.000Z</time>
      </trkpt>
      <trkpt lat="43.75869" lon="1.80375">
        <ele>164.2</ele>
        <time>2018-02-07T09:39:22.000Z</time>
      </trkpt>
      <trkpt lat="43.75869" lon="1.80388">
        <ele>164</ele>
        <time>2018-02-07T09:39:29.000Z</time>
      </trkpt>
      <trkpt lat="43.75868" lon="1.80401">
        <ele>163.9</ele>
        <time>2018-02-07T09:39:38.000Z</time>
      </trkpt>
      <trkpt lat="43.75867" lon="1.80414">
        <ele>163.9</ele>
        <time>2018-02-07T09:39:46.000Z</time>
      </trkpt>
      <trkpt lat="43.75866" lon="1.80427">
        <ele>163.7</ele>
        <time>2018-02-07T09:39:55.000Z</time>
      </trkpt>
      <trkpt lat="43.75868" lon="1.8044">
        <ele>163.6</ele>
        <time>2018-02-07T09:40:2.000Z</time>
      </trkpt>
      <trkpt lat="43.75869" lon="1.80453">
        <ele>163.7</ele>
        <time>2018-02-07T09:40:9.000Z</time>
      </trkpt>
      <trkpt lat="43.75869" lon="1.80467">
        <ele>163.6</ele>
        <time>2018-02-07T09:40:16.000Z</time>
      </trkpt>
      <trkpt lat="43.7587" lon="1.8048">
        <ele>163.5</ele>
        <time>2018-02-07T09:40:23.000Z</time>
      </trkpt>
      <trkpt lat="43.75871" lon="1.80494">
        <ele>163.5</ele>
        <time>2018-02-07T09:40:30.000Z</time>
      </trkpt>
      <trkpt lat="43.75871" lon="1.80507">
        <ele>163.5</ele>
        <time>2018-02-07T09:40:37.000Z</time>
      </trkpt>
      <trkpt lat="43.75871" lon="1.80521">
        <ele>163.2</ele>
        <time>2018-02-07T09:40:45.000Z</time>
      </trkpt>
      <trkpt lat="43.75872" lon="1.80534">
        <ele>163.1</ele>
        <time>2018-02-07T09:40:53.000Z</time>
      </trkpt>
      <trkpt lat="43.75873" lon="1.80547">
        <ele>163</ele>
        <time>2018-02-07T09:41:1.000Z</time>
      </trkpt>
      <trkpt lat="43.75873" lon="1.8056">
        <ele>162.9</ele>
        <time>2018-02-07T09:41:9.000Z</time>
      </trkpt>
      <trkpt lat="43.75874" lon="1.80574">
        <ele>162.5</ele>
        <time>2018-02-07T09:41:16.000Z</time>
      </trkpt>
      <trkpt lat="43.75875" lon="1.80587">
        <ele>162.4</ele>
        <time>2018-02-07T09:41:22.000Z</time>
      </trkpt>
      <trkpt lat="43.75875" lon="1.806">
        <ele>162.4</ele>
        <time>2018-02-07T09:41:29.000Z</time>
      </trkpt>
      <trkpt lat="43.75875" lon="1.80612">
        <ele>162.5</ele>
        <time>2018-02-07T09:41:36.000Z</time>
      </trkpt>
      <trkpt lat="43.75875" lon="1.80626">
        <ele>162.1</ele>
        <time>2018-02-07T09:41:43.000Z</time>
      </trkpt>
      <trkpt lat="43.75875" lon="1.80639">
        <ele>161.9</ele>
        <time>2018-02-07T09:41:52.000Z</time>
      </trkpt>
      <trkpt lat="43.75876" lon="1.80652">
        <ele>161.8</ele>
        <time>2018-02-07T09:42:0.000Z</time>
      </trkpt>
      <trkpt lat="43.75876" lon="1.80665">
        <ele>161.6</ele>
        <time>2018-02-07T09:42:8.000Z</time>
      </trkpt>
      <trkpt lat="43.75876" lon="1.80678">
        <ele>161.6</ele>
        <time>2018-02-07T09:42:17.000Z</time>
      </trkpt>
      <trkpt lat="43.7588" lon="1.8069">
        <ele>161.6</ele>
        <time>2018-02-07T09:42:25.000Z</time>
      </trkpt>
      <trkpt lat="43.75886" lon="1.80701">
        <ele>161.7</ele>
        <time>2018-02-07T09:42:33.000Z</time>
      </trkpt>
      <trkpt lat="43.75892" lon="1.8071">
        <ele>161.8</ele>
        <time>2018-02-07T09:42:40.000Z</time>
      </trkpt>
      <trkpt lat="43.759" lon="1.80717">
        <ele>161.8</ele>
        <time>2018-02-07T09:42:47.000Z</time>
      </trkpt>
      <trkpt lat="43.75907" lon="1.80726">
        <ele>161.9</ele>
        <time>2018-02-07T09:42:54.000Z</time>
      </trkpt>
      <trkpt lat="43.75914" lon="1.80734">
        <ele>162</ele>
        <time>2018-02-07T09:43:2.000Z</time>
      </trkpt>
      <trkpt lat="43.75922" lon="1.80741">
        <ele>162.1</ele>
        <time>2018-02-07T09:43:10.000Z</time>
      </trkpt>
      <trkpt lat="43.75931" lon="1.80748">
        <ele>162.4</ele>
        <time>2018-02-07T09:43:18.000Z</time>
      </trkpt>
      <trkpt lat="43.7594" lon="1.80752">
        <ele>162.8</ele>
        <time>2018-02-07T09:43:26.000Z</time>
      </trkpt>
      <trkpt lat="43.75949" lon="1.80755">
        <ele>163.4</ele>
        <time>2018-02-07T09:43:35.000Z</time>
      </trkpt>
      <trkpt lat="43.75958" lon="1.80754">
        <ele>163.8</ele>
        <time>2018-02-07T09:43:44.000Z</time>
      </trkpt>
      <trkpt lat="43.75967" lon="1.80752">
        <ele>164.3</ele>
        <time>2018-02-07T09:43:53.000Z</time>
      </trkpt>
      <trkpt lat="43.75977" lon="1.80751">
        <ele>164.8</ele>
        <time>2018-02-07T09:44:2.000Z</time>
      </trkpt>
      <trkpt lat="43.75987" lon="1.8075">
        <ele>165.3</ele>
        <time>2018-02-07T09:44:11.000Z</time>
      </trkpt>
      <trkpt lat="43.75997" lon="1.80752">
        <ele>165.8</ele>
        <time>2018-02-07T09:44:20.000Z</time>
      </trkpt>
      <trkpt lat="43.76006" lon="1.80755">
        <ele>166.7</ele>
        <time>2018-02-07T09:44:30.000Z</time>
      </trkpt>
      <trkpt lat="43.76013" lon="1.80764">
        <ele>167.1</ele>
        <time>2018-02-07T09:44:37.000Z</time>
      </trkpt>
      <trkpt lat="43.76019" lon="1.80775">
        <ele>167.2</ele>
        <time>2018-02-07T09:44:45.000Z</time>
      </trkpt>
      <trkpt lat="43.76024" lon="1.80787">
        <ele>167.4</ele>
        <time>2018-02-07T09:44:53.000Z</time>
      </trkpt>
      <trkpt lat="43.76026" lon="1.80799">
        <ele>167.2</ele>
        <time>2018-02-07T09:45:0.000Z</time>
      </trkpt>
      <trkpt lat="43.76027" lon="1.80813">
        <ele>167.2</ele>
        <time>2018-02-07T09:45:8.000Z</time>
      </trkpt>
      <trkpt lat="43.76027" lon="1.80826">
        <ele>167.2</ele>
        <time>2018-02-07T09:45:16.000Z</time>
      </trkpt>
      <trkpt lat="43.76028" lon="1.80839">
        <ele>167.3</ele>
        <time>2018-02-07T09:45:24.000Z</time>
      </trkpt>
      <trkpt lat="43.76029" lon="1.80852">
        <ele>167.3</ele>
        <time>2018-02-07T09:45:33.000Z</time>
      </trkpt>
      <trkpt lat="43.76029" lon="1.80865">
        <ele>167.2</ele>
        <time>2018-02-07T09:45:41.000Z</time>
      </trkpt>
      <trkpt lat="43.76029" lon="1.80878">
        <ele>167.1</ele>
        <time>2018-02-07T09:45:49.000Z</time>
      </trkpt>
      <trkpt lat="43.76027" lon="1.8089">
        <ele>167.2</ele>
        <time>2018-02-07T09:45:59.000Z</time>
      </trkpt>
      <trkpt lat="43.76025" lon="1.80903">
        <ele>167.2</ele>
        <time>2018-02-07T09:46:8.000Z</time>
      </trkpt>
      <trkpt lat="43.76024" lon="1.80917">
        <ele>167.3</ele>
        <time>2018-02-07T09:46:16.000Z</time>
      </trkpt>
      <trkpt lat="43.76022" lon="1.8093">
        <ele>167.3</ele>
        <time>2018-02-07T09:46:24.000Z</time>
      </trkpt>
      <trkpt lat="43.7602" lon="1.80943">
        <ele>167.3</ele>
        <time>2018-02-07T09:46:32.000Z</time>
      </trkpt>
      <trkpt lat="43.76018" lon="1.80956">
        <ele>167.2</ele>
        <time>2018-02-07T09:46:41.000Z</time>
      </trkpt>
      <trkpt lat="43.76015" lon="1.80969">
        <ele>167</ele>
        <time>2018-02-07T09:46:49.000Z</time>
      </trkpt>
      <trkpt lat="43.76012" lon="1.80982">
        <ele>166.8</ele>
        <time>2018-02-07T09:46:58.000Z</time>
      </trkpt>
      <trkpt lat="43.76009" lon="1.80995">
        <ele>166.8</ele>
        <time>2018-02-07T09:47:6.000Z</time>
      </trkpt>
      <trkpt lat="43.76006" lon="1.81008">
        <ele>166.7</ele>
        <time>2018-02-07T09:47:14.000Z</time>
      </trkpt>
      <trkpt lat="43.76004" lon="1.81021">
        <ele>166.5</ele>
        <time>2018-02-07T09:47:22.000Z</time>
      </trkpt>
      <trkpt lat="43.76001" lon="1.81034">
        <ele>166.3</ele>
        <time>2018-02-07T09:47:31.000Z</time>
      </trkpt>
      <trkpt lat="43.75999" lon="1.81046">
        <ele>166.1</ele>
        <time>2018-02-07T09:47:38.000Z</time>
      </trkpt>
      <trkpt lat="43.75996" lon="1.81059">
        <ele>165.9</ele>
        <time>2018-02-07T09:47:45.000Z</time>
      </trkpt>
      <trkpt lat="43.75994" lon="1.81071">
        <ele>165.3</ele>
        <time>2018-02-07T09:47:52.000Z</time>
      </trkpt>
      <trkpt lat="43.75991" lon="1.81084">
        <ele>165.2</ele>
        <time>2018-02-07T09:48:0.000Z</time>
      </trkpt>
      <trkpt lat="43.75989" lon="1.81097">
        <ele>164.8</ele>
        <time>2018-02-07T09:48:10.000Z</time>
      </trkpt>
      <trkpt lat="43.75988" lon="1.8111">
        <ele>164.5</ele>
        <time>2018-02-07T09:48:19.000Z</time>
      </trkpt>
      <trkpt lat="43.75989" lon="1.81122">
        <ele>164.2</ele>
        <time>2018-02-07T09:49:16.000Z</time>
      </trkpt>
      <trkpt lat="43.75992" lon="1.81135">
        <ele>164.3</ele>
        <time>2018-02-07T09:49:25.000Z</time>
      </trkpt>
      <trkpt lat="43.75994" lon="1.81147">
        <ele>164.4</ele>
        <time>2018-02-07T09:49:33.000Z</time>
      </trkpt>
      <trkpt lat="43.75997" lon="1.81159">
        <ele>164.2</ele>
        <time>2018-02-07T09:49:41.000Z</time>
      </trkpt>
      <trkpt lat="43.75999" lon="1.81173">
        <ele>164.2</ele>
        <time>2018-02-07T09:49:50.000Z</time>
      </trkpt>
      <trkpt lat="43.76" lon="1.81187">
        <ele>164.2</ele>
        <time>2018-02-07T09:50:0.000Z</time>
      </trkpt>
      <trkpt lat="43.76002" lon="1.812">
        <ele>164.8</ele>
        <time>2018-02-07T09:50:10.000Z</time>
      </trkpt>
      <trkpt lat="43.76002" lon="1.81214">
        <ele>164.9</ele>
        <time>2018-02-07T09:50:19.000Z</time>
      </trkpt>
      <trkpt lat="43.76002" lon="1.81227">
        <ele>164.9</ele>
        <time>2018-02-07T09:50:29.000Z</time>
      </trkpt>
      <trkpt lat="43.76003" lon="1.8124">
        <ele>164.7</ele>
        <time>2018-02-07T09:50:37.000Z</time>
      </trkpt>
      <trkpt lat="43.76002" lon="1.81253">
        <ele>164.8</ele>
        <time>2018-02-07T09:50:46.000Z</time>
      </trkpt>
      <trkpt lat="43.76002" lon="1.81267">
        <ele>164.5</ele>
        <time>2018-02-07T09:50:57.000Z</time>
      </trkpt>
      <trkpt lat="43.76004" lon="1.8128">
        <ele>164.5</ele>
        <time>2018-02-07T09:51:6.000Z</time>
      </trkpt>
      <trkpt lat="43.76006" lon="1.81292">
        <ele>164.4</ele>
        <time>2018-02-07T09:51:14.000Z</time>
      </trkpt>
      <trkpt lat="43.76008" lon="1.81304">
        <ele>164.3</ele>
        <time>2018-02-07T09:51:24.000Z</time>
      </trkpt>
      <trkpt lat="43.76011" lon="1.81316">
        <ele>163.4</ele>
        <time>2018-02-07T09:51:35.000Z</time>
      </trkpt>
      <trkpt lat="43.76014" lon="1.81328">
        <ele>163.5</ele>
        <time>2018-02-07T09:51:44.000Z</time>
      </trkpt>
      <trkpt lat="43.76017" lon="1.81339">
        <ele>163.5</ele>
        <time>2018-02-07T09:51:53.000Z</time>
      </trkpt>
      <trkpt lat="43.76021" lon="1.81352">
        <ele>163.3</ele>
        <time>2018-02-07T09:52:2.000Z</time>
      </trkpt>
      <trkpt lat="43.76026" lon="1.81363">
        <ele>163.1</ele>
        <time>2018-02-07T09:52:10.000Z</time>
      </trkpt>
      <trkpt lat="43.7603" lon="1.81375">
        <ele>163.2</ele>
        <time>2018-02-07T09:52:20.000Z</time>
      </trkpt>
      <trkpt lat="43.76035" lon="1.81387">
        <ele>163.2</ele>
        <time>2018-02-07T09:52:29.000Z</time>
      </trkpt>
      <trkpt lat="43.76039" lon="1.81399">
        <ele>163.2</ele>
        <time>2018-02-07T09:52:38.000Z</time>
      </trkpt>
      <trkpt lat="43.76043" lon="1.81411">
        <ele>163.3</ele>
        <time>2018-02-07T09:52:47.000Z</time>
      </trkpt>
      <trkpt lat="43.7605" lon="1.81421">
        <ele>163.5</ele>
        <time>2018-02-07T09:52:55.000Z</time>
      </trkpt>
      <trkpt lat="43.76055" lon="1.81431">
        <ele>163.6</ele>
        <time>2018-02-07T09:53:3.000Z</time>
      </trkpt>
      <trkpt lat="43.76059" lon="1.81443">
        <ele>164</ele>
        <time>2018-02-07T09:53:11.000Z</time>
      </trkpt>
      <trkpt lat="43.76064" lon="1.81455">
        <ele>164.2</ele>
        <time>2018-02-07T09:53:19.000Z</time>
      </trkpt>
      <trkpt lat="43.76069" lon="1.81466">
        <ele>164.5</ele>
        <time>2018-02-07T09:53:27.000Z</time>
      </trkpt>
      <trkpt lat="43.76073" lon="1.81476">
        <ele>164.8</ele>
        <time>2018-02-07T09:53:34.000Z</time>
      </trkpt>
      <trkpt lat="43.76075" lon="1.81489">
        <ele>165.1</ele>
        <time>2018-02-07T09:53:42.000Z</time>
      </trkpt>
      <trkpt lat="43.76081" lon="1.81499">
        <ele>165.2</ele>
        <time>2018-02-07T09:53:51.000Z</time>
      </trkpt>
      <trkpt lat="43.76088" lon="1.8151">
        <ele>165.6</ele>
        <time>2018-02-07T09:54:0.000Z</time>
      </trkpt>
      <trkpt lat="43.76095" lon="1.8152">
        <ele>165.7</ele>
        <time>2018-02-07T09:54:8.000Z</time>
      </trkpt>
      <trkpt lat="43.76102" lon="1.81529">
        <ele>166.2</ele>
        <time>2018-02-07T09:54:19.000Z</time>
      </trkpt>
      <trkpt lat="43.76108" lon="1.8154">
        <ele>166.6</ele>
        <time>2018-02-07T09:54:28.000Z</time>
      </trkpt>
      <trkpt lat="43.76115" lon="1.8155">
        <ele>166.6</ele>
        <time>2018-02-07T09:54:37.000Z</time>
      </trkpt>
      <trkpt lat="43.76121" lon="1.8156">
        <ele>167.1</ele>
        <time>2018-02-07T09:54:48.000Z</time>
      </trkpt>
      <trkpt lat="43.76126" lon="1.81572">
        <ele>167.4</ele>
        <time>2018-02-07T09:54:56.000Z</time>
      </trkpt>
      <trkpt lat="43.76131" lon="1.81583">
        <ele>167.7</ele>
        <time>2018-02-07T09:55:2.000Z</time>
      </trkpt>
      <trkpt lat="43.76136" lon="1.81595">
        <ele>168</ele>
        <time>2018-02-07T09:55:10.000Z</time>
      </trkpt>
      <trkpt lat="43.76142" lon="1.81607">
        <ele>168.2</ele>
        <time>2018-02-07T09:55:17.000Z</time>
      </trkpt>
      <trkpt lat="43.76145" lon="1.81619">
        <ele>168.2</ele>
        <time>2018-02-07T09:55:24.000Z</time>
      </trkpt>
      <trkpt lat="43.76148" lon="1.81632">
        <ele>168.1</ele>
        <time>2018-02-07T09:55:31.000Z</time>
      </trkpt>
      <trkpt lat="43.76151" lon="1.81645">
        <ele>168.1</ele>
        <time>2018-02-07T09:55:39.000Z</time>
      </trkpt>
      <trkpt lat="43.76154" lon="1.81657">
        <ele>168</ele>
        <time>2018-02-07T09:55:46.000Z</time>
      </trkpt>
      <trkpt lat="43.76159" lon="1.81668">
        <ele>168</ele>
        <time>2018-02-07T09:55:54.000Z</time>
      </trkpt>
      <trkpt lat="43.76163" lon="1.81681">
        <ele>168.2</ele>
        <time>2018-02-07T09:56:3.000Z</time>
      </trkpt>
      <trkpt lat="43.76168" lon="1.81693">
        <ele>168.5</ele>
        <time>2018-02-07T09:56:12.000Z</time>
      </trkpt>
      <trkpt lat="43.76173" lon="1.81704">
        <ele>168.7</ele>
        <time>2018-02-07T09:56:20.000Z</time>
      </trkpt>
      <trkpt lat="43.76177" lon="1.81717">
        <ele>169.1</ele>
        <time>2018-02-07T09:56:28.000Z</time>
      </trkpt>
      <trkpt lat="43.76177" lon="1.8173">
        <ele>169.3</ele>
        <time>2018-02-07T09:56:36.000Z</time>
      </trkpt>
      <trkpt lat="43.76177" lon="1.81743">
        <ele>169.4</ele>
        <time>2018-02-07T09:56:43.000Z</time>
      </trkpt>
      <trkpt lat="43.76177" lon="1.81756">
        <ele>169.3</ele>
        <time>2018-02-07T09:56:51.000Z</time>
      </trkpt>
      <trkpt lat="43.76178" lon="1.8177">
        <ele>169.4</ele>
        <time>2018-02-07T09:57:0.000Z</time>
      </trkpt>
      <trkpt lat="43.76177" lon="1.81783">
        <ele>169.4</ele>
        <time>2018-02-07T09:57:9.000Z</time>
      </trkpt>
      <trkpt lat="43.76178" lon="1.81795">
        <ele>169.5</ele>
        <time>2018-02-07T09:57:17.000Z</time>
      </trkpt>
      <trkpt lat="43.76177" lon="1.81809">
        <ele>169.5</ele>
        <time>2018-02-07T09:57:24.000Z</time>
      </trkpt>
      <trkpt lat="43.76177" lon="1.81822">
        <ele>169.6</ele>
        <time>2018-02-07T09:57:31.000Z</time>
      </trkpt>
      <trkpt lat="43.76177" lon="1.81835">
        <ele>169.1</ele>
        <time>2018-02-07T09:57:40.000Z</time>
      </trkpt>
      <trkpt lat="43.76177" lon="1.81849">
        <ele>168.9</ele>
        <time>2018-02-07T09:57:48.000Z</time>
      </trkpt>
      <trkpt lat="43.76181" lon="1.81861">
        <ele>168.9</ele>
        <time>2018-02-07T09:57:56.000Z</time>
      </trkpt>
      <trkpt lat="43.76181" lon="1.81875">
        <ele>169</ele>
        <time>2018-02-07T09:58:4.000Z</time>
      </trkpt>
      <trkpt lat="43.76181" lon="1.81889">
        <ele>169</ele>
        <time>2018-02-07T09:58:12.000Z</time>
      </trkpt>
      <trkpt lat="43.7618" lon="1.81902">
        <ele>169</ele>
        <time>2018-02-07T09:58:20.000Z</time>
      </trkpt>
      <trkpt lat="43.76182" lon="1.81915">
        <ele>169</ele>
        <time>2018-02-07T09:58:26.000Z</time>
      </trkpt>
      <trkpt lat="43.76183" lon="1.81929">
        <ele>169</ele>
        <time>2018-02-07T09:58:31.000Z</time>
      </trkpt>
      <trkpt lat="43.76185" lon="1.81943">
        <ele>168.9</ele>
        <time>2018-02-07T09:58:39.000Z</time>
      </trkpt>
      <trkpt lat="43.76184" lon="1.81957">
        <ele>168.7</ele>
        <time>2018-02-07T09:58:48.000Z</time>
      </trkpt>
      <trkpt lat="43.76183" lon="1.81971">
        <ele>168.6</ele>
        <time>2018-02-07T09:58:55.000Z</time>
      </trkpt>
      <trkpt lat="43.76181" lon="1.81983">
        <ele>168.6</ele>
        <time>2018-02-07T09:59:2.000Z</time>
      </trkpt>
      <trkpt lat="43.76178" lon="1.81996">
        <ele>168.5</ele>
        <time>2018-02-07T09:59:10.000Z</time>
      </trkpt>
      <trkpt lat="43.76175" lon="1.82009">
        <ele>168.5</ele>
        <time>2018-02-07T09:59:19.000Z</time>
      </trkpt>
      <trkpt lat="43.76173" lon="1.82022">
        <ele>168.2</ele>
        <time>2018-02-07T09:59:27.000Z</time>
      </trkpt>
      <trkpt lat="43.76176" lon="1.82035">
        <ele>167.8</ele>
        <time>2018-02-07T09:59:35.000Z</time>
      </trkpt>
      <trkpt lat="43.76179" lon="1.82047">
        <ele>167.5</ele>
        <time>2018-02-07T09:59:41.000Z</time>
      </trkpt>
      <trkpt lat="43.76184" lon="1.82059">
        <ele>167.2</ele>
        <time>2018-02-07T09:59:48.000Z</time>
      </trkpt>
      <trkpt lat="43.76187" lon="1.82071">
        <ele>167</ele>
        <time>2018-02-07T09:59:55.000Z</time>
      </trkpt>
      <trkpt lat="43.76191" lon="1.82084">
        <ele>166.8</ele>
        <time>2018-02-07T10:00:3.000Z</time>
      </trkpt>
      <trkpt lat="43.76196" lon="1.82095">
        <ele>166.6</ele>
        <time>2018-02-07T10:00:11.000Z</time>
      </trkpt>
      <trkpt lat="43.76199" lon="1.82107">
        <ele>166.6</ele>
        <time>2018-02-07T10:00:20.000Z</time>
      </trkpt>
      <trkpt lat="43.76202" lon="1.8212">
        <ele>166.8</ele>
        <time>2018-02-07T10:00:28.000Z</time>
      </trkpt>
      <trkpt lat="43.76204" lon="1.82134">
        <ele>166.9</ele>
        <time>2018-02-07T10:00:36.000Z</time>
      </trkpt>
      <trkpt lat="43.76204" lon="1.82147">
        <ele>167</ele>
        <time>2018-02-07T10:00:43.000Z</time>
      </trkpt>
      <trkpt lat="43.76203" lon="1.82161">
        <ele>166.9</ele>
        <time>2018-02-07T10:00:52.000Z</time>
      </trkpt>
      <trkpt lat="43.76202" lon="1.82174">
        <ele>166.9</ele>
        <time>2018-02-07T10:01:1.000Z</time>
      </trkpt>
      <trkpt lat="43.76202" lon="1.82186">
        <ele>167</ele>
        <time>2018-02-07T10:01:8.000Z</time>
      </trkpt>
      <trkpt lat="43.76201" lon="1.82199">
        <ele>166.9</ele>
        <time>2018-02-07T10:01:16.000Z</time>
      </trkpt>
      <trkpt lat="43.76199" lon="1.82212">
        <ele>166.8</ele>
        <time>2018-02-07T10:01:23.000Z</time>
      </trkpt>
      <trkpt lat="43.76199" lon="1.82225">
        <ele>166.8</ele>
        <time>2018-02-07T10:01:30.000Z</time>
      </trkpt>
      <trkpt lat="43.76196" lon="1.82237">
        <ele>166.3</ele>
        <time>2018-02-07T10:01:38.000Z</time>
      </trkpt>
      <trkpt lat="43.76196" lon="1.8225">
        <ele>166.2</ele>
        <time>2018-02-07T10:01:45.000Z</time>
      </trkpt>
      <trkpt lat="43.76197" lon="1.82264">
        <ele>166.1</ele>
        <time>2018-02-07T10:01:53.000Z</time>
      </trkpt>
      <trkpt lat="43.76198" lon="1.82276">
        <ele>166</ele>
        <time>2018-02-07T10:02:0.000Z</time>
      </trkpt>
      <trkpt lat="43.76199" lon="1.82289">
        <ele>165.8</ele>
        <time>2018-02-07T10:02:7.000Z</time>
      </trkpt>
      <trkpt lat="43.762" lon="1.82303">
        <ele>165.9</ele>
        <time>2018-02-07T10:02:15.000Z</time>
      </trkpt>
      <trkpt lat="43.76201" lon="1.82317">
        <ele>165.7</ele>
        <time>2018-02-07T10:02:23.000Z</time>
      </trkpt>
      <trkpt lat="43.76201" lon="1.82331">
        <ele>165.6</ele>
        <time>2018-02-07T10:02:31.000Z</time>
      </trkpt>
      <trkpt lat="43.76201" lon="1.82344">
        <ele>165.6</ele>
        <time>2018-02-07T10:02:39.000Z</time>
      </trkpt>
      <trkpt lat="43.76201" lon="1.82357">
        <ele>165.6</ele>
        <time>2018-02-07T10:02:46.000Z</time>
      </trkpt>
      <trkpt lat="43.76201" lon="1.8237">
        <ele>165.7</ele>
        <time>2018-02-07T10:02:54.000Z</time>
      </trkpt>
      <trkpt lat="43.76202" lon="1.82384">
        <ele>165.6</ele>
        <time>2018-02-07T10:03:2.000Z</time>
      </trkpt>
      <trkpt lat="43.762" lon="1.82397">
        <ele>165.6</ele>
        <time>2018-02-07T10:03:10.000Z</time>
      </trkpt>
      <trkpt lat="43.762" lon="1.8241">
        <ele>165.6</ele>
        <time>2018-02-07T10:03:17.000Z</time>
      </trkpt>
      <trkpt lat="43.762" lon="1.82424">
        <ele>165.7</ele>
        <time>2018-02-07T10:03:25.000Z</time>
      </trkpt>
      <trkpt lat="43.76201" lon="1.82437">
        <ele>165.9</ele>
        <time>2018-02-07T10:03:33.000Z</time>
      </trkpt>
      <trkpt lat="43.762" lon="1.8245">
        <ele>166.2</ele>
        <time>2018-02-07T10:03:40.000Z</time>
      </trkpt>
      <trkpt lat="43.762" lon="1.82463">
        <ele>166.2</ele>
        <time>2018-02-07T10:03:47.000Z</time>
      </trkpt>
      <trkpt lat="43.762" lon="1.82476">
        <ele>166.3</ele>
        <time>2018-02-07T10:03:54.000Z</time>
      </trkpt>
      <trkpt lat="43.76199" lon="1.82489">
        <ele>166.6</ele>
        <time>2018-02-07T10:04:1.000Z</time>
      </trkpt>
      <trkpt lat="43.76197" lon="1.82503">
        <ele>166.3</ele>
        <time>2018-02-07T10:04:9.000Z</time>
      </trkpt>
      <trkpt lat="43.76197" lon="1.82516">
        <ele>166</ele>
        <time>2018-02-07T10:04:17.000Z</time>
      </trkpt>
      <trkpt lat="43.76196" lon="1.82529">
        <ele>165.8</ele>
        <time>2018-02-07T10:04:25.000Z</time>
      </trkpt>
      <trkpt lat="43.76193" lon="1.82542">
        <ele>165.7</ele>
        <time>2018-02-07T10:04:33.000Z</time>
      </trkpt>
      <trkpt lat="43.76189" lon="1.82553">
        <ele>165.5</ele>
        <time>2018-02-07T10:04:40.000Z</time>
      </trkpt>
      <trkpt lat="43.76187" lon="1.82565">
        <ele>165.5</ele>
        <time>2018-02-07T10:04:47.000Z</time>
      </trkpt>
      <trkpt lat="43.76184" lon="1.82578">
        <ele>165.5</ele>
        <time>2018-02-07T10:04:55.000Z</time>
      </trkpt>
      <trkpt lat="43.76181" lon="1.8259">
        <ele>165.5</ele>
        <time>2018-02-07T10:05:3.000Z</time>
      </trkpt>
      <trkpt lat="43.76178" lon="1.82602">
        <ele>165.5</ele>
        <time>2018-02-07T10:05:11.000Z</time>
      </trkpt>
      <trkpt lat="43.76174" lon="1.82615">
        <ele>165.2</ele>
        <time>2018-02-07T10:05:19.000Z</time>
      </trkpt>
      <trkpt lat="43.76173" lon="1.82628">
        <ele>165</ele>
        <time>2018-02-07T10:05:27.000Z</time>
      </trkpt>
      <trkpt lat="43.7617" lon="1.8264">
        <ele>164.9</ele>
        <time>2018-02-07T10:05:35.000Z</time>
      </trkpt>
      <trkpt lat="43.76168" lon="1.82654">
        <ele>164.4</ele>
        <time>2018-02-07T10:05:43.000Z</time>
      </trkpt>
      <trkpt lat="43.76166" lon="1.82666">
        <ele>164.1</ele>
        <time>2018-02-07T10:05:50.000Z</time>
      </trkpt>
      <trkpt lat="43.76163" lon="1.82679">
        <ele>163.9</ele>
        <time>2018-02-07T10:05:57.000Z</time>
      </trkpt>
      <trkpt lat="43.76163" lon="1.82691">
        <ele>163.8</ele>
        <time>2018-02-07T10:06:4.000Z</time>
      </trkpt>
      <trkpt lat="43.76161" lon="1.82705">
        <ele>163.6</ele>
        <time>2018-02-07T10:06:12.000Z</time>
      </trkpt>
      <trkpt lat="43.7616" lon="1.82717">
        <ele>163.2</ele>
        <time>2018-02-07T10:06:19.000Z</time>
      </trkpt>
      <trkpt lat="43.76159" lon="1.82731">
        <ele>163.1</ele>
        <time>2018-02-07T10:06:26.000Z</time>
      </trkpt>
      <trkpt lat="43.76158" lon="1.82745">
        <ele>162.9</ele>
        <time>2018-02-07T10:06:33.000Z</time>
      </trkpt>
      <trkpt lat="43.76156" lon="1.82758">
        <ele>162.8</ele>
        <time>2018-02-07T10:06:40.000Z</time>
      </trkpt>
      <trkpt lat="43.76156" lon="1.8277">
        <ele>162.4</ele>
        <time>2018-02-07T10:06:48.000Z</time>
      </trkpt>
      <trkpt lat="43.76154" lon="1.82783">
        <ele>162.1</ele>
        <time>2018-02-07T10:06:56.000Z</time>
      </trkpt>
      <trkpt lat="43.76152" lon="1.82795">
        <ele>162.3</ele>
        <time>2018-02-07T10:07:6.000Z</time>
      </trkpt>
      <trkpt lat="43.76151" lon="1.82808">
        <ele>162.4</ele>
        <time>2018-02-07T10:07:13.000Z</time>
      </trkpt>
      <trkpt lat="43.76148" lon="1.82821">
        <ele>162</ele>
        <time>2018-02-07T10:07:20.000Z</time>
      </trkpt>
      <trkpt lat="43.76146" lon="1.82834">
        <ele>161.8</ele>
        <time>2018-02-07T10:07:27.000Z</time>
      </trkpt>
      <trkpt lat="43.76143" lon="1.82847">
        <ele>161.4</ele>
        <time>2018-02-07T10:07:34.000Z</time>
      </trkpt>
      <trkpt lat="43.76143" lon="1.8286">
        <ele>161.2</ele>
        <time>2018-02-07T10:07:41.000Z</time>
      </trkpt>
      <trkpt lat="43.76143" lon="1.82873">
        <ele>161.1</ele>
        <time>2018-02-07T10:07:48.000Z</time>
      </trkpt>
      <trkpt lat="43.76142" lon="1.82886">
        <ele>160.9</ele>
        <time>2018-02-07T10:07:55.000Z</time>
      </trkpt>
      <trkpt lat="43.76142" lon="1.82899">
        <ele>160.9</ele>
        <time>2018-02-07T10:08:2.000Z</time>
      </trkpt>
      <trkpt lat="43.76144" lon="1.82912">
        <ele>160.8</ele>
        <time>2018-02-07T10:08:9.000Z</time>
      </trkpt>
      <trkpt lat="43.76148" lon="1.82925">
        <ele>160.5</ele>
        <time>2018-02-07T10:08:17.000Z</time>
      </trkpt>
      <trkpt lat="43.7615" lon="1.82938">
        <ele>160.5</ele>
        <time>2018-02-07T10:08:25.000Z</time>
      </trkpt>
      <trkpt lat="43.7615" lon="1.82952">
        <ele>160.5</ele>
        <time>2018-02-07T10:08:33.000Z</time>
      </trkpt>
      <trkpt lat="43.76148" lon="1.82965">
        <ele>160.1</ele>
        <time>2018-02-07T10:08:41.000Z</time>
      </trkpt>
      <trkpt lat="43.76144" lon="1.82977">
        <ele>159.8</ele>
        <time>2018-02-07T10:08:48.000Z</time>
      </trkpt>
      <trkpt lat="43.76138" lon="1.82988">
        <ele>159.7</ele>
        <time>2018-02-07T10:08:55.000Z</time>
      </trkpt>
      <trkpt lat="43.76134" lon="1.82999">
        <ele>159.7</ele>
        <time>2018-02-07T10:09:3.000Z</time>
      </trkpt>
      <trkpt lat="43.76129" lon="1.83011">
        <ele>159.5</ele>
        <time>2018-02-07T10:09:11.000Z</time>
      </trkpt>
      <trkpt lat="43.76123" lon="1.8302">
        <ele>159.4</ele>
        <time>2018-02-07T10:09:17.000Z</time>
      </trkpt>
      <trkpt lat="43.76118" lon="1.83031">
        <ele>159.4</ele>
        <time>2018-02-07T10:09:24.000Z</time>
      </trkpt>
      <trkpt lat="43.76112" lon="1.83041">
        <ele>159.4</ele>
        <time>2018-02-07T10:09:31.000Z</time>
      </trkpt>
      <trkpt lat="43.76106" lon="1.83052">
        <ele>159.4</ele>
        <time>2018-02-07T10:09:39.000Z</time>
      </trkpt>
      <trkpt lat="43.76102" lon="1.83064">
        <ele>159</ele>
        <time>2018-02-07T10:09:48.000Z</time>
      </trkpt>
      <trkpt lat="43.76096" lon="1.83074">
        <ele>159</ele>
        <time>2018-02-07T10:09:55.000Z</time>
      </trkpt>
      <trkpt lat="43.76092" lon="1.83086">
        <ele>158.7</ele>
        <time>2018-02-07T10:10:3.000Z</time>
      </trkpt>
      <trkpt lat="43.76087" lon="1.83098">
        <ele>158.6</ele>
        <time>2018-02-07T10:10:11.000Z</time>
      </trkpt>
      <trkpt lat="43.76081" lon="1.83108">
        <ele>158.5</ele>
        <time>2018-02-07T10:10:19.000Z</time>
      </trkpt>
      <trkpt lat="43.76078" lon="1.8312">
        <ele>158.6</ele>
        <time>2018-02-07T10:10:26.000Z</time>
      </trkpt>
      <trkpt lat="43.76073" lon="1.83132">
        <ele>158.4</ele>
        <time>2018-02-07T10:10:34.000Z</time>
      </trkpt>
      <trkpt lat="43.76066" lon="1.83142">
        <ele>158.3</ele>
        <time>2018-02-07T10:10:41.000Z</time>
      </trkpt>
      <trkpt lat="43.76062" lon="1.83153">
        <ele>158.1</ele>
        <time>2018-02-07T10:10:48.000Z</time>
      </trkpt>
      <trkpt lat="43.76058" lon="1.83165">
        <ele>158</ele>
        <time>2018-02-07T10:10:56.000Z</time>
      </trkpt>
      <trkpt lat="43.76053" lon="1.83175">
        <ele>157.9</ele>
        <time>2018-02-07T10:11:4.000Z</time>
      </trkpt>
      <trkpt lat="43.76047" lon="1.83185">
        <ele>158</ele>
        <time>2018-02-07T10:11:10.998Z</time>
      </trkpt>
      <trkpt lat="43.7604" lon="1.83194">
        <ele>157.9</ele>
        <time>2018-02-07T10:11:18.000Z</time>
      </trkpt>
      <trkpt lat="43.76036" lon="1.83206">
        <ele>157.7</ele>
        <time>2018-02-07T10:11:28.000Z</time>
      </trkpt>
      <trkpt lat="43.76033" lon="1.8322">
        <ele>157.7</ele>
        <time>2018-02-07T10:11:36.000Z</time>
      </trkpt>
      <trkpt lat="43.7603" lon="1.83233">
        <ele>157.6</ele>
        <time>2018-02-07T10:11:44.000Z</time>
      </trkpt>
      <trkpt lat="43.76026" lon="1.83245">
        <ele>157.4</ele>
        <time>2018-02-07T10:11:50.000Z</time>
      </trkpt>
      <trkpt lat="43.76025" lon="1.83258">
        <ele>157.3</ele>
        <time>2018-02-07T10:11:57.000Z</time>
      </trkpt>
      <trkpt lat="43.76022" lon="1.8327">
        <ele>157</ele>
        <time>2018-02-07T10:12:5.000Z</time>
      </trkpt>
      <trkpt lat="43.76018" lon="1.83282">
        <ele>156.9</ele>
        <time>2018-02-07T10:12:13.000Z</time>
      </trkpt>
      <trkpt lat="43.76014" lon="1.83294">
        <ele>156.8</ele>
        <time>2018-02-07T10:12:20.000Z</time>
      </trkpt>
      <trkpt lat="43.76007" lon="1.83303">
        <ele>156.6</ele>
        <time>2018-02-07T10:12:27.000Z</time>
      </trkpt>
      <trkpt lat="43.75997" lon="1.83306">
        <ele>156.2</ele>
        <time>2018-02-07T10:12:37.000Z</time>
      </trkpt>
      <trkpt lat="43.75987" lon="1.83304">
        <ele>155.9</ele>
        <time>2018-02-07T10:12:45.000Z</time>
      </trkpt>
      <trkpt lat="43.75978" lon="1.833">
        <ele>155.5</ele>
        <time>2018-02-07T10:12:52.000Z</time>
      </trkpt>
      <trkpt lat="43.75969" lon="1.83298">
        <ele>155.5</ele>
        <time>2018-02-07T10:12:59.000Z</time>
      </trkpt>
      <trkpt lat="43.75959" lon="1.83295">
        <ele>155.5</ele>
        <time>2018-02-07T10:13:8.000Z</time>
      </trkpt>
      <trkpt lat="43.75949" lon="1.83295">
        <ele>155.3</ele>
        <time>2018-02-07T10:13:16.000Z</time>
      </trkpt>
      <trkpt lat="43.75939" lon="1.833">
        <ele>155.1</ele>
        <time>2018-02-07T10:13:27.000Z</time>
      </trkpt>
      <trkpt lat="43.75931" lon="1.83305">
        <ele>155</ele>
        <time>2018-02-07T10:13:34.000Z</time>
      </trkpt>
      <trkpt lat="43.75922" lon="1.83311">
        <ele>154.7</ele>
        <time>2018-02-07T10:13:40.000Z</time>
      </trkpt>
      <trkpt lat="43.75914" lon="1.83317">
        <ele>154.6</ele>
        <time>2018-02-07T10:13:48.000Z</time>
      </trkpt>
      <trkpt lat="43.75905" lon="1.83324">
        <ele>154.2</ele>
        <time>2018-02-07T10:13:56.000Z</time>
      </trkpt>
      <trkpt lat="43.75897" lon="1.83329">
        <ele>153.7</ele>
        <time>2018-02-07T10:14:3.000Z</time>
      </trkpt>
      <trkpt lat="43.75889" lon="1.83338">
        <ele>153.4</ele>
        <time>2018-02-07T10:14:11.000Z</time>
      </trkpt>
      <trkpt lat="43.75882" lon="1.83346">
        <ele>153.3</ele>
        <time>2018-02-07T10:14:18.000Z</time>
      </trkpt>
      <trkpt lat="43.75874" lon="1.83353">
        <ele>152.9</ele>
        <time>2018-02-07T10:14:25.000Z</time>
      </trkpt>
      <trkpt lat="43.75865" lon="1.8336">
        <ele>152.6</ele>
        <time>2018-02-07T10:14:31.000Z</time>
      </trkpt>
      <trkpt lat="43.75857" lon="1.83369">
        <ele>151.9</ele>
        <time>2018-02-07T10:14:39.000Z</time>
      </trkpt>
      <trkpt lat="43.75851" lon="1.83378">
        <ele>151.9</ele>
        <time>2018-02-07T10:14:47.000Z</time>
      </trkpt>
      <trkpt lat="43.75844" lon="1.83388">
        <ele>151.7</ele>
        <time>2018-02-07T10:14:56.000Z</time>
      </trkpt>
      <trkpt lat="43.75836" lon="1.83396">
        <ele>151.5</ele>
        <time>2018-02-07T10:15:3.000Z</time>
      </trkpt>
      <trkpt lat="43.75828" lon="1.83405">
        <ele>151.2</ele>
        <time>2018-02-07T10:15:10.000Z</time>
      </trkpt>
      <trkpt lat="43.75819" lon="1.83412">
        <ele>150.7</ele>
        <time>2018-02-07T10:15:17.000Z</time>
      </trkpt>
      <trkpt lat="43.75812" lon="1.8342">
        <ele>150.6</ele>
        <time>2018-02-07T10:15:24.000Z</time>
      </trkpt>
      <trkpt lat="43.75805" lon="1.8343">
        <ele>150</ele>
        <time>2018-02-07T10:15:32.000Z</time>
      </trkpt>
      <trkpt lat="43.75798" lon="1.83439">
        <ele>149.7</ele>
        <time>2018-02-07T10:15:40.000Z</time>
      </trkpt>
      <trkpt lat="43.75793" lon="1.83451">
        <ele>149.5</ele>
        <time>2018-02-07T10:15:48.000Z</time>
      </trkpt>
      <trkpt lat="43.7579" lon="1.83463">
        <ele>149.1</ele>
        <time>2018-02-07T10:15:55.000Z</time>
      </trkpt>
      <trkpt lat="43.75784" lon="1.83475">
        <ele>149.1</ele>
        <time>2018-02-07T10:16:2.000Z</time>
      </trkpt>
      <trkpt lat="43.7578" lon="1.83487">
        <ele>149.1</ele>
        <time>2018-02-07T10:16:10.000Z</time>
      </trkpt>
      <trkpt lat="43.75776" lon="1.83498">
        <ele>148.9</ele>
        <time>2018-02-07T10:16:17.000Z</time>
      </trkpt>
      <trkpt lat="43.75774" lon="1.83511">
        <ele>148.4</ele>
        <time>2018-02-07T10:16:24.000Z</time>
      </trkpt>
      <trkpt lat="43.7577" lon="1.83523">
        <ele>148.4</ele>
        <time>2018-02-07T10:16:30.000Z</time>
      </trkpt>
      <trkpt lat="43.75766" lon="1.83535">
        <ele>148.5</ele>
        <time>2018-02-07T10:16:38.000Z</time>
      </trkpt>
      <trkpt lat="43.7576" lon="1.83546">
        <ele>148.5</ele>
        <time>2018-02-07T10:16:46.000Z</time>
      </trkpt>
      <trkpt lat="43.75757" lon="1.83559">
        <ele>148.3</ele>
        <time>2018-02-07T10:16:53.000Z</time>
      </trkpt>
      <trkpt lat="43.75754" lon="1.83571">
        <ele>148.1</ele>
        <time>2018-02-07T10:17:0.000Z</time>
      </trkpt>
      <trkpt lat="43.75751" lon="1.83584">
        <ele>147.8</ele>
        <time>2018-02-07T10:17:8.000Z</time>
      </trkpt>
      <trkpt lat="43.7575" lon="1.83598">
        <ele>148</ele>
        <time>2018-02-07T10:17:15.000Z</time>
      </trkpt>
      <trkpt lat="43.75748" lon="1.8361">
        <ele>148.1</ele>
        <time>2018-02-07T10:17:22.000Z</time>
      </trkpt>
      <trkpt lat="43.75742" lon="1.83621">
        <ele>147.7</ele>
        <time>2018-02-07T10:17:33.000Z</time>
      </trkpt>
      <trkpt lat="43.75741" lon="1.83635">
        <ele>147.2</ele>
        <time>2018-02-07T10:17:43.000Z</time>
      </trkpt>
      <trkpt lat="43.75736" lon="1.83647">
        <ele>147.1</ele>
        <time>2018-02-07T10:17:50.000Z</time>
      </trkpt>
      <trkpt lat="43.7573" lon="1.83657">
        <ele>146.9</ele>
        <time>2018-02-07T10:17:56.000Z</time>
      </trkpt>
      <trkpt lat="43.75724" lon="1.83668">
        <ele>146.6</ele>
        <time>2018-02-07T10:18:3.000Z</time>
      </trkpt>
      <trkpt lat="43.75719" lon="1.83679">
        <ele>146.4</ele>
        <time>2018-02-07T10:18:9.000Z</time>
      </trkpt>
      <trkpt lat="43.75713" lon="1.83691">
        <ele>146.3</ele>
        <time>2018-02-07T10:18:17.000Z</time>
      </trkpt>
      <trkpt lat="43.75708" lon="1.83702">
        <ele>146.2</ele>
        <time>2018-02-07T10:18:24.000Z</time>
      </trkpt>
      <trkpt lat="43.75702" lon="1.83713">
        <ele>145.8</ele>
        <time>2018-02-07T10:18:33.000Z</time>
      </trkpt>
      <trkpt lat="43.75695" lon="1.83722">
        <ele>145.6</ele>
        <time>2018-02-07T10:18:42.000Z</time>
      </trkpt>
      <trkpt lat="43.75694" lon="1.83735">
        <ele>144.4</ele>
        <time>2018-02-07T10:20:2.000Z</time>
      </trkpt>
      <trkpt lat="43.75704" lon="1.83735">
        <ele>144.3</ele>
        <time>2018-02-07T10:20:11.000Z</time>
      </trkpt>
      <trkpt lat="43.75712" lon="1.83732">
        <ele>144.6</ele>
        <time>2018-02-07T10:20:21.000Z</time>
      </trkpt>
      <trkpt lat="43.75723" lon="1.8373">
        <ele>144.8</ele>
        <time>2018-02-07T10:20:35.000Z</time>
      </trkpt>
      <trkpt lat="43.75732" lon="1.83735">
        <ele>144.9</ele>
        <time>2018-02-07T10:20:43.000Z</time>
      </trkpt>
      <trkpt lat="43.75742" lon="1.83737">
        <ele>145.3</ele>
        <time>2018-02-07T10:20:51.000Z</time>
      </trkpt>
      <trkpt lat="43.75751" lon="1.83739">
        <ele>145.9</ele>
        <time>2018-02-07T10:21:0.000Z</time>
      </trkpt>
      <trkpt lat="43.7576" lon="1.83743">
        <ele>146.6</ele>
        <time>2018-02-07T10:21:10.000Z</time>
      </trkpt>
      <trkpt lat="43.7577" lon="1.83746">
        <ele>147</ele>
        <time>2018-02-07T10:21:19.000Z</time>
      </trkpt>
      <trkpt lat="43.75779" lon="1.83749">
        <ele>147.6</ele>
        <time>2018-02-07T10:21:28.000Z</time>
      </trkpt>
      <trkpt lat="43.75788" lon="1.83754">
        <ele>148.1</ele>
        <time>2018-02-07T10:21:37.000Z</time>
      </trkpt>
      <trkpt lat="43.75797" lon="1.8376">
        <ele>148.5</ele>
        <time>2018-02-07T10:21:45.000Z</time>
      </trkpt>
      <trkpt lat="43.75806" lon="1.83766">
        <ele>149</ele>
        <time>2018-02-07T10:21:54.000Z</time>
      </trkpt>
      <trkpt lat="43.75814" lon="1.83772">
        <ele>149.2</ele>
        <time>2018-02-07T10:22:1.000Z</time>
      </trkpt>
      <trkpt lat="43.75823" lon="1.83777">
        <ele>149.4</ele>
        <time>2018-02-07T10:22:8.000Z</time>
      </trkpt>
      <trkpt lat="43.75832" lon="1.83783">
        <ele>149.6</ele>
        <time>2018-02-07T10:22:15.000Z</time>
      </trkpt>
      <trkpt lat="43.75841" lon="1.83786">
        <ele>149.7</ele>
        <time>2018-02-07T10:22:23.000Z</time>
      </trkpt>
      <trkpt lat="43.75851" lon="1.83787">
        <ele>149.8</ele>
        <time>2018-02-07T10:22:30.000Z</time>
      </trkpt>
      <trkpt lat="43.75861" lon="1.83792">
        <ele>149.5</ele>
        <time>2018-02-07T10:22:38.000Z</time>
      </trkpt>
      <trkpt lat="43.7587" lon="1.83795">
        <ele>149.7</ele>
        <time>2018-02-07T10:22:46.000Z</time>
      </trkpt>
      <trkpt lat="43.7588" lon="1.83798">
        <ele>150.1</ele>
        <time>2018-02-07T10:22:54.000Z</time>
      </trkpt>
      <trkpt lat="43.75889" lon="1.83801">
        <ele>150.3</ele>
        <time>2018-02-07T10:23:2.000Z</time>
      </trkpt>
      <trkpt lat="43.75899" lon="1.83803">
        <ele>150.3</ele>
        <time>2018-02-07T10:23:10.000Z</time>
      </trkpt>
      <trkpt lat="43.75908" lon="1.83805">
        <ele>150.3</ele>
        <time>2018-02-07T10:23:17.000Z</time>
      </trkpt>
      <trkpt lat="43.75917" lon="1.83808">
        <ele>150.7</ele>
        <time>2018-02-07T10:23:25.000Z</time>
      </trkpt>
      <trkpt lat="43.75926" lon="1.83813">
        <ele>150.9</ele>
        <time>2018-02-07T10:23:34.000Z</time>
      </trkpt>
      <trkpt lat="43.75934" lon="1.83819">
        <ele>151.2</ele>
        <time>2018-02-07T10:23:42.000Z</time>
      </trkpt>
      <trkpt lat="43.75943" lon="1.83826">
        <ele>151.3</ele>
        <time>2018-02-07T10:23:51.000Z</time>
      </trkpt>
      <trkpt lat="43.75951" lon="1.83833">
        <ele>151.5</ele>
        <time>2018-02-07T10:23:59.000Z</time>
      </trkpt>
      <trkpt lat="43.75959" lon="1.83841">
        <ele>151.6</ele>
        <time>2018-02-07T10:24:8.000Z</time>
      </trkpt>
      <trkpt lat="43.75967" lon="1.8385">
        <ele>151.7</ele>
        <time>2018-02-07T10:24:17.000Z</time>
      </trkpt>
      <trkpt lat="43.75975" lon="1.83856">
        <ele>151.9</ele>
        <time>2018-02-07T10:24:25.000Z</time>
      </trkpt>
      <trkpt lat="43.75983" lon="1.83863">
        <ele>151.9</ele>
        <time>2018-02-07T10:24:34.000Z</time>
      </trkpt>
      <trkpt lat="43.75991" lon="1.83869">
        <ele>151.9</ele>
        <time>2018-02-07T10:24:43.000Z</time>
      </trkpt>
      <trkpt lat="43.75999" lon="1.83875">
        <ele>151.9</ele>
        <time>2018-02-07T10:24:50.000Z</time>
      </trkpt>
      <trkpt lat="43.76007" lon="1.83883">
        <ele>151.8</ele>
        <time>2018-02-07T10:24:58.000Z</time>
      </trkpt>
      <trkpt lat="43.76015" lon="1.83888">
        <ele>151.8</ele>
        <time>2018-02-07T10:25:6.000Z</time>
      </trkpt>
      <trkpt lat="43.76023" lon="1.83895">
        <ele>151.8</ele>
        <time>2018-02-07T10:25:15.000Z</time>
      </trkpt>
      <trkpt lat="43.76031" lon="1.83902">
        <ele>151.8</ele>
        <time>2018-02-07T10:25:24.000Z</time>
      </trkpt>
      <trkpt lat="43.7604" lon="1.83907">
        <ele>151.8</ele>
        <time>2018-02-07T10:25:33.000Z</time>
      </trkpt>
      <trkpt lat="43.76048" lon="1.83915">
        <ele>151.8</ele>
        <time>2018-02-07T10:25:44.000Z</time>
      </trkpt>
      <trkpt lat="43.76054" lon="1.83926">
        <ele>152.4</ele>
        <time>2018-02-07T10:25:54.000Z</time>
      </trkpt>
      <trkpt lat="43.76056" lon="1.83938">
        <ele>153</ele>
        <time>2018-02-07T10:26:3.000Z</time>
      </trkpt>
      <trkpt lat="43.76059" lon="1.83951">
        <ele>153.4</ele>
        <time>2018-02-07T10:26:12.000Z</time>
      </trkpt>
      <trkpt lat="43.76061" lon="1.83964">
        <ele>153.7</ele>
        <time>2018-02-07T10:26:22.000Z</time>
      </trkpt>
      <trkpt lat="43.76064" lon="1.83978">
        <ele>154.1</ele>
        <time>2018-02-07T10:26:31.000Z</time>
      </trkpt>
      <trkpt lat="43.76064" lon="1.8399">
        <ele>154.4</ele>
        <time>2018-02-07T10:26:39.000Z</time>
      </trkpt>
      <trkpt lat="43.76066" lon="1.84003">
        <ele>154.5</ele>
        <time>2018-02-07T10:26:48.000Z</time>
      </trkpt>
      <trkpt lat="43.7607" lon="1.84015">
        <ele>154.6</ele>
        <time>2018-02-07T10:26:56.000Z</time>
      </trkpt>
      <trkpt lat="43.76075" lon="1.84026">
        <ele>154.8</ele>
        <time>2018-02-07T10:27:6.000Z</time>
      </trkpt>
      <trkpt lat="43.76082" lon="1.84036">
        <ele>155.1</ele>
        <time>2018-02-07T10:27:14.000Z</time>
      </trkpt>
      <trkpt lat="43.7609" lon="1.84044">
        <ele>155.2</ele>
        <time>2018-02-07T10:27:22.000Z</time>
      </trkpt>
      <trkpt lat="43.76097" lon="1.84053">
        <ele>155.4</ele>
        <time>2018-02-07T10:27:30.000Z</time>
      </trkpt>
      <trkpt lat="43.76104" lon="1.84061">
        <ele>155.8</ele>
        <time>2018-02-07T10:27:38.000Z</time>
      </trkpt>
      <trkpt lat="43.76112" lon="1.8407">
        <ele>156.2</ele>
        <time>2018-02-07T10:27:46.000Z</time>
      </trkpt>
      <trkpt lat="43.76117" lon="1.84083">
        <ele>156.4</ele>
        <time>2018-02-07T10:27:54.000Z</time>
      </trkpt>
      <trkpt lat="43.7612" lon="1.84095">
        <ele>156.4</ele>
        <time>2018-02-07T10:28:3.000Z</time>
      </trkpt>
      <trkpt lat="43.76123" lon="1.84107">
        <ele>156.5</ele>
        <time>2018-02-07T10:28:11.000Z</time>
      </trkpt>
      <trkpt lat="43.76126" lon="1.84119">
        <ele>156.4</ele>
        <time>2018-02-07T10:28:19.000Z</time>
      </trkpt>
      <trkpt lat="43.76129" lon="1.84131">
        <ele>156.3</ele>
        <time>2018-02-07T10:28:28.000Z</time>
      </trkpt>
      <trkpt lat="43.76131" lon="1.84143">
        <ele>156.2</ele>
        <time>2018-02-07T10:28:36.000Z</time>
      </trkpt>
      <trkpt lat="43.76133" lon="1.84156">
        <ele>156.3</ele>
        <time>2018-02-07T10:28:45.000Z</time>
      </trkpt>
      <trkpt lat="43.76135" lon="1.84169">
        <ele>156.2</ele>
        <time>2018-02-07T10:28:55.000Z</time>
      </trkpt>
      <trkpt lat="43.76138" lon="1.84182">
        <ele>156.3</ele>
        <time>2018-02-07T10:29:4.000Z</time>
      </trkpt>
      <trkpt lat="43.76139" lon="1.84195">
        <ele>156.4</ele>
        <time>2018-02-07T10:29:13.000Z</time>
      </trkpt>
      <trkpt lat="43.76143" lon="1.84207">
        <ele>156.3</ele>
        <time>2018-02-07T10:29:23.000Z</time>
      </trkpt>
      <trkpt lat="43.76146" lon="1.84218">
        <ele>156.6</ele>
        <time>2018-02-07T10:29:34.000Z</time>
      </trkpt>
      <trkpt lat="43.76149" lon="1.84236">
        <ele>167.7</ele>
        <time>2018-02-07T10:29:44.000Z</time>
      </trkpt>
      <trkpt lat="43.76153" lon="1.84247">
        <ele>168.2</ele>
        <time>2018-02-07T10:29:53.000Z</time>
      </trkpt>
      <trkpt lat="43.76158" lon="1.84261">
        <ele>168.3</ele>
        <time>2018-02-07T10:30:1.000Z</time>
      </trkpt>
      <trkpt lat="43.76162" lon="1.84271">
        <ele>168.3</ele>
        <time>2018-02-07T10:30:11.000Z</time>
      </trkpt>
      <trkpt lat="43.76166" lon="1.8428">
        <ele>168.3</ele>
        <time>2018-02-07T10:30:21.000Z</time>
      </trkpt>
      <trkpt lat="43.76171" lon="1.8429">
        <ele>168.3</ele>
        <time>2018-02-07T10:30:30.000Z</time>
      </trkpt>
      <trkpt lat="43.76177" lon="1.84304">
        <ele>168.4</ele>
        <time>2018-02-07T10:30:38.000Z</time>
      </trkpt>
      <trkpt lat="43.76185" lon="1.84315">
        <ele>168.7</ele>
        <time>2018-02-07T10:30:46.000Z</time>
      </trkpt>
      <trkpt lat="43.76193" lon="1.8433">
        <ele>169</ele>
        <time>2018-02-07T10:30:55.000Z</time>
      </trkpt>
      <trkpt lat="43.76199" lon="1.84337">
        <ele>169.2</ele>
        <time>2018-02-07T10:31:7.000Z</time>
      </trkpt>
      <trkpt lat="43.76204" lon="1.84344">
        <ele>169.3</ele>
        <time>2018-02-07T10:31:15.000Z</time>
      </trkpt>
      <trkpt lat="43.76211" lon="1.8435">
        <ele>169.6</ele>
        <time>2018-02-07T10:31:23.000Z</time>
      </trkpt>
      <trkpt lat="43.76216" lon="1.84361">
        <ele>169.6</ele>
        <time>2018-02-07T10:31:33.000Z</time>
      </trkpt>
      <trkpt lat="43.76222" lon="1.84366">
        <ele>169.8</ele>
        <time>2018-02-07T10:31:41.000Z</time>
      </trkpt>
      <trkpt lat="43.76227" lon="1.84371">
        <ele>170</ele>
        <time>2018-02-07T10:31:49.000Z</time>
      </trkpt>
      <trkpt lat="43.76232" lon="1.84378">
        <ele>170.1</ele>
        <time>2018-02-07T10:31:58.000Z</time>
      </trkpt>
      <trkpt lat="43.76237" lon="1.84385">
        <ele>170.2</ele>
        <time>2018-02-07T10:32:6.000Z</time>
      </trkpt>
      <trkpt lat="43.76244" lon="1.84391">
        <ele>170.5</ele>
        <time>2018-02-07T10:32:14.000Z</time>
      </trkpt>
      <trkpt lat="43.76252" lon="1.84399">
        <ele>161.2</ele>
        <time>2018-02-07T10:32:25.000Z</time>
      </trkpt>
      <trkpt lat="43.76258" lon="1.84407">
        <ele>161.2</ele>
        <time>2018-02-07T10:32:36.000Z</time>
      </trkpt>
      <trkpt lat="43.76266" lon="1.84416">
        <ele>161.5</ele>
        <time>2018-02-07T10:32:48.000Z</time>
      </trkpt>
      <trkpt lat="43.76273" lon="1.84426">
        <ele>161.4</ele>
        <time>2018-02-07T10:32:56.000Z</time>
      </trkpt>
      <trkpt lat="43.76279" lon="1.84437">
        <ele>161.2</ele>
        <time>2018-02-07T10:33:4.000Z</time>
      </trkpt>
      <trkpt lat="43.76283" lon="1.84449">
        <ele>161.1</ele>
        <time>2018-02-07T10:33:11.000Z</time>
      </trkpt>
      <trkpt lat="43.76288" lon="1.84461">
        <ele>161</ele>
        <time>2018-02-07T10:33:20.000Z</time>
      </trkpt>
      <trkpt lat="43.76292" lon="1.84473">
        <ele>160.9</ele>
        <time>2018-02-07T10:33:27.000Z</time>
      </trkpt>
      <trkpt lat="43.76297" lon="1.84485">
        <ele>161.1</ele>
        <time>2018-02-07T10:33:36.000Z</time>
      </trkpt>
      <trkpt lat="43.76302" lon="1.84496">
        <ele>161.1</ele>
        <time>2018-02-07T10:33:46.000Z</time>
      </trkpt>
      <trkpt lat="43.76306" lon="1.84507">
        <ele>161</ele>
        <time>2018-02-07T10:33:52.000Z</time>
      </trkpt>
      <trkpt lat="43.7631" lon="1.8452">
        <ele>161.2</ele>
        <time>2018-02-07T10:34:1.000Z</time>
      </trkpt>
      <trkpt lat="43.76316" lon="1.8453">
        <ele>161.3</ele>
        <time>2018-02-07T10:34:10.000Z</time>
      </trkpt>
      <trkpt lat="43.76323" lon="1.8454">
        <ele>161.1</ele>
        <time>2018-02-07T10:34:18.000Z</time>
      </trkpt>
      <trkpt lat="43.76328" lon="1.84551">
        <ele>161.2</ele>
        <time>2018-02-07T10:34:25.000Z</time>
      </trkpt>
      <trkpt lat="43.76336" lon="1.8456">
        <ele>161.3</ele>
        <time>2018-02-07T10:34:32.000Z</time>
      </trkpt>
      <trkpt lat="43.76342" lon="1.84569">
        <ele>161.4</ele>
        <time>2018-02-07T10:34:42.000Z</time>
      </trkpt>
      <trkpt lat="43.76349" lon="1.84578">
        <ele>161.2</ele>
        <time>2018-02-07T10:34:50.000Z</time>
      </trkpt>
      <trkpt lat="43.76355" lon="1.84588">
        <ele>161.1</ele>
        <time>2018-02-07T10:34:59.000Z</time>
      </trkpt>
      <trkpt lat="43.7636" lon="1.846">
        <ele>160.9</ele>
        <time>2018-02-07T10:35:7.000Z</time>
      </trkpt>
      <trkpt lat="43.76365" lon="1.84612">
        <ele>160.7</ele>
        <time>2018-02-07T10:35:16.000Z</time>
      </trkpt>
      <trkpt lat="43.76371" lon="1.84622">
        <ele>160.1</ele>
        <time>2018-02-07T10:35:25.000Z</time>
      </trkpt>
      <trkpt lat="43.76378" lon="1.84631">
        <ele>159.8</ele>
        <time>2018-02-07T10:35:32.000Z</time>
      </trkpt>
      <trkpt lat="43.76387" lon="1.84639">
        <ele>159.6</ele>
        <time>2018-02-07T10:35:41.000Z</time>
      </trkpt>
      <trkpt lat="43.76395" lon="1.84646">
        <ele>159.4</ele>
        <time>2018-02-07T10:35:48.000Z</time>
      </trkpt>
      <trkpt lat="43.76403" lon="1.84654">
        <ele>159.4</ele>
        <time>2018-02-07T10:35:55.000Z</time>
      </trkpt>
      <trkpt lat="43.76411" lon="1.84662">
        <ele>159.3</ele>
        <time>2018-02-07T10:36:2.000Z</time>
      </trkpt>
      <trkpt lat="43.76418" lon="1.84671">
        <ele>158.9</ele>
        <time>2018-02-07T10:36:10.000Z</time>
      </trkpt>
      <trkpt lat="43.76425" lon="1.8468">
        <ele>158.7</ele>
        <time>2018-02-07T10:36:17.000Z</time>
      </trkpt>
      <trkpt lat="43.76432" lon="1.84689">
        <ele>158.6</ele>
        <time>2018-02-07T10:36:24.000Z</time>
      </trkpt>
      <trkpt lat="43.76438" lon="1.84699">
        <ele>158.7</ele>
        <time>2018-02-07T10:36:32.000Z</time>
      </trkpt>
      <trkpt lat="43.76444" lon="1.84708">
        <ele>158.9</ele>
        <time>2018-02-07T10:36:45.000Z</time>
      </trkpt>
      <trkpt lat="43.76447" lon="1.84722">
        <ele>158.7</ele>
        <time>2018-02-07T10:39:25.000Z</time>
      </trkpt>
      <trkpt lat="43.76454" lon="1.84731">
        <ele>158.8</ele>
        <time>2018-02-07T10:39:32.000Z</time>
      </trkpt>
      <trkpt lat="43.76461" lon="1.8474">
        <ele>158.7</ele>
        <time>2018-02-07T10:39:40.000Z</time>
      </trkpt>
      <trkpt lat="43.76467" lon="1.84749">
        <ele>158.7</ele>
        <time>2018-02-07T10:39:47.000Z</time>
      </trkpt>
      <trkpt lat="43.76474" lon="1.84757">
        <ele>158.8</ele>
        <time>2018-02-07T10:39:55.000Z</time>
      </trkpt>
      <trkpt lat="43.76482" lon="1.84767">
        <ele>158.9</ele>
        <time>2018-02-07T10:40:3.000Z</time>
      </trkpt>
      <trkpt lat="43.76488" lon="1.84776">
        <ele>159.1</ele>
        <time>2018-02-07T10:40:10.000Z</time>
      </trkpt>
      <trkpt lat="43.76495" lon="1.84784">
        <ele>159.6</ele>
        <time>2018-02-07T10:40:18.000Z</time>
      </trkpt>
      <trkpt lat="43.76504" lon="1.8479">
        <ele>160.2</ele>
        <time>2018-02-07T10:40:27.000Z</time>
      </trkpt>
      <trkpt lat="43.76513" lon="1.84797">
        <ele>161</ele>
        <time>2018-02-07T10:40:36.000Z</time>
      </trkpt>
      <trkpt lat="43.76522" lon="1.84801">
        <ele>162</ele>
        <time>2018-02-07T10:40:45.000Z</time>
      </trkpt>
      <trkpt lat="43.76531" lon="1.84806">
        <ele>163</ele>
        <time>2018-02-07T10:40:55.000Z</time>
      </trkpt>
      <trkpt lat="43.7654" lon="1.8481">
        <ele>165</ele>
        <time>2018-02-07T10:41:9.000Z</time>
      </trkpt>
      <trkpt lat="43.76549" lon="1.84813">
        <ele>166.2</ele>
        <time>2018-02-07T10:41:19.000Z</time>
      </trkpt>
      <trkpt lat="43.76559" lon="1.84817">
        <ele>167.3</ele>
        <time>2018-02-07T10:41:27.000Z</time>
      </trkpt>
      <trkpt lat="43.76568" lon="1.84819">
        <ele>168</ele>
        <time>2018-02-07T10:41:34.000Z</time>
      </trkpt>
      <trkpt lat="43.76577" lon="1.84817">
        <ele>168.7</ele>
        <time>2018-02-07T10:41:42.000Z</time>
      </trkpt>
      <trkpt lat="43.76587" lon="1.84815">
        <ele>169.3</ele>
        <time>2018-02-07T10:41:51.000Z</time>
      </trkpt>
      <trkpt lat="43.76597" lon="1.84815">
        <ele>169.6</ele>
        <time>2018-02-07T10:41:57.000Z</time>
      </trkpt>
      <trkpt lat="43.76606" lon="1.84813">
        <ele>169.9</ele>
        <time>2018-02-07T10:42:3.000Z</time>
      </trkpt>
      <trkpt lat="43.76615" lon="1.84808">
        <ele>169.9</ele>
        <time>2018-02-07T10:42:10.000Z</time>
      </trkpt>
      <trkpt lat="43.76623" lon="1.84803">
        <ele>170</ele>
        <time>2018-02-07T10:42:19.000Z</time>
      </trkpt>
      <trkpt lat="43.76632" lon="1.84796">
        <ele>170.1</ele>
        <time>2018-02-07T10:42:27.000Z</time>
      </trkpt>
      <trkpt lat="43.76639" lon="1.84788">
        <ele>170.4</ele>
        <time>2018-02-07T10:42:34.000Z</time>
      </trkpt>
      <trkpt lat="43.76648" lon="1.84781">
        <ele>170.7</ele>
        <time>2018-02-07T10:42:42.000Z</time>
      </trkpt>
      <trkpt lat="43.76656" lon="1.84773">
        <ele>170.9</ele>
        <time>2018-02-07T10:42:49.000Z</time>
      </trkpt>
      <trkpt lat="43.76664" lon="1.84766">
        <ele>171.1</ele>
        <time>2018-02-07T10:42:56.000Z</time>
      </trkpt>
      <trkpt lat="43.76672" lon="1.84758">
        <ele>171.4</ele>
        <time>2018-02-07T10:43:4.000Z</time>
      </trkpt>
      <trkpt lat="43.7668" lon="1.84751">
        <ele>171.8</ele>
        <time>2018-02-07T10:43:11.000Z</time>
      </trkpt>
      <trkpt lat="43.76687" lon="1.84744">
        <ele>172.3</ele>
        <time>2018-02-07T10:43:18.000Z</time>
      </trkpt>
      <trkpt lat="43.76695" lon="1.84737">
        <ele>172.7</ele>
        <time>2018-02-07T10:43:26.000Z</time>
      </trkpt>
      <trkpt lat="43.76704" lon="1.84733">
        <ele>173.3</ele>
        <time>2018-02-07T10:43:35.000Z</time>
      </trkpt>
      <trkpt lat="43.76712" lon="1.84726">
        <ele>174</ele>
        <time>2018-02-07T10:43:48.000Z</time>
      </trkpt>
      <trkpt lat="43.76719" lon="1.84718">
        <ele>174.4</ele>
        <time>2018-02-07T10:43:57.000Z</time>
      </trkpt>
      <trkpt lat="43.76724" lon="1.84707">
        <ele>175</ele>
        <time>2018-02-07T10:44:7.000Z</time>
      </trkpt>
      <trkpt lat="43.7673" lon="1.84698">
        <ele>175.5</ele>
        <time>2018-02-07T10:44:18.000Z</time>
      </trkpt>
      <trkpt lat="43.76738" lon="1.84689">
        <ele>175.7</ele>
        <time>2018-02-07T10:44:27.000Z</time>
      </trkpt>
      <trkpt lat="43.76744" lon="1.84679">
        <ele>175.9</ele>
        <time>2018-02-07T10:44:36.000Z</time>
      </trkpt>
      <trkpt lat="43.76749" lon="1.84669">
        <ele>176.1</ele>
        <time>2018-02-07T10:44:48.000Z</time>
      </trkpt>
      <trkpt lat="43.76755" lon="1.84659">
        <ele>176.5</ele>
        <time>2018-02-07T10:44:58.000Z</time>
      </trkpt>
      <trkpt lat="43.76761" lon="1.84649">
        <ele>177.2</ele>
        <time>2018-02-07T10:45:7.000Z</time>
      </trkpt>
      <trkpt lat="43.76768" lon="1.84641">
        <ele>178.2</ele>
        <time>2018-02-07T10:45:16.000Z</time>
      </trkpt>
      <trkpt lat="43.76776" lon="1.84634">
        <ele>179</ele>
        <time>2018-02-07T10:45:24.000Z</time>
      </trkpt>
      <trkpt lat="43.76783" lon="1.84627">
        <ele>180.1</ele>
        <time>2018-02-07T10:45:33.000Z</time>
      </trkpt>
      <trkpt lat="43.76791" lon="1.84619">
        <ele>181</ele>
        <time>2018-02-07T10:45:42.000Z</time>
      </trkpt>
      <trkpt lat="43.76799" lon="1.84613">
        <ele>181.7</ele>
        <time>2018-02-07T10:45:50.000Z</time>
      </trkpt>
      <trkpt lat="43.76806" lon="1.84604">
        <ele>182.8</ele>
        <time>2018-02-07T10:45:59.000Z</time>
      </trkpt>
      <trkpt lat="43.76814" lon="1.84595">
        <ele>183.8</ele>
        <time>2018-02-07T10:46:9.000Z</time>
      </trkpt>
      <trkpt lat="43.76821" lon="1.84587">
        <ele>184.7</ele>
        <time>2018-02-07T10:46:19.000Z</time>
      </trkpt>
      <trkpt lat="43.76824" lon="1.84575">
        <ele>185.9</ele>
        <time>2018-02-07T10:46:28.000Z</time>
      </trkpt>
      <trkpt lat="43.76828" lon="1.84562">
        <ele>187</ele>
        <time>2018-02-07T10:46:37.000Z</time>
      </trkpt>
      <trkpt lat="43.76832" lon="1.8455">
        <ele>188.1</ele>
        <time>2018-02-07T10:46:46.000Z</time>
      </trkpt>
      <trkpt lat="43.76835" lon="1.84537">
        <ele>189.1</ele>
        <time>2018-02-07T10:46:54.000Z</time>
      </trkpt>
      <trkpt lat="43.7684" lon="1.84527">
        <ele>189.7</ele>
        <time>2018-02-07T10:47:1.000Z</time>
      </trkpt>
      <trkpt lat="43.76843" lon="1.84515">
        <ele>190.3</ele>
        <time>2018-02-07T10:47:9.000Z</time>
      </trkpt>
      <trkpt lat="43.76847" lon="1.84503">
        <ele>190.9</ele>
        <time>2018-02-07T10:47:17.000Z</time>
      </trkpt>
      <trkpt lat="43.76849" lon="1.84491">
        <ele>191.3</ele>
        <time>2018-02-07T10:47:23.000Z</time>
      </trkpt>
      <trkpt lat="43.7685" lon="1.84478">
        <ele>191.5</ele>
        <time>2018-02-07T10:47:32.000Z</time>
      </trkpt>
      <trkpt lat="43.76853" lon="1.84466">
        <ele>191.7</ele>
        <time>2018-02-07T10:47:41.000Z</time>
      </trkpt>
      <trkpt lat="43.76855" lon="1.84453">
        <ele>192</ele>
        <time>2018-02-07T10:47:51.000Z</time>
      </trkpt>
      <trkpt lat="43.76857" lon="1.84441">
        <ele>192.5</ele>
        <time>2018-02-07T10:48:0.000Z</time>
      </trkpt>
      <trkpt lat="43.76858" lon="1.84428">
        <ele>192.7</ele>
        <time>2018-02-07T10:48:8.000Z</time>
      </trkpt>
      <trkpt lat="43.7686" lon="1.84414">
        <ele>193</ele>
        <time>2018-02-07T10:48:16.000Z</time>
      </trkpt>
      <trkpt lat="43.76862" lon="1.844">
        <ele>193.2</ele>
        <time>2018-02-07T10:48:23.000Z</time>
      </trkpt>
      <trkpt lat="43.76861" lon="1.84388">
        <ele>193.4</ele>
        <time>2018-02-07T10:48:32.000Z</time>
      </trkpt>
      <trkpt lat="43.76866" lon="1.84376">
        <ele>193.5</ele>
        <time>2018-02-07T10:48:42.000Z</time>
      </trkpt>
      <trkpt lat="43.76872" lon="1.84364">
        <ele>193.3</ele>
        <time>2018-02-07T10:48:52.000Z</time>
      </trkpt>
      <trkpt lat="43.76878" lon="1.84354">
        <ele>193.2</ele>
        <time>2018-02-07T10:48:59.000Z</time>
      </trkpt>
      <trkpt lat="43.76887" lon="1.84349">
        <ele>193.4</ele>
        <time>2018-02-07T10:49:7.000Z</time>
      </trkpt>
      <trkpt lat="43.76896" lon="1.84345">
        <ele>193.5</ele>
        <time>2018-02-07T10:49:14.000Z</time>
      </trkpt>
      <trkpt lat="43.76906" lon="1.84342">
        <ele>193.9</ele>
        <time>2018-02-07T10:49:21.000Z</time>
      </trkpt>
      <trkpt lat="43.76915" lon="1.84338">
        <ele>194.1</ele>
        <time>2018-02-07T10:49:28.000Z</time>
      </trkpt>
      <trkpt lat="43.76924" lon="1.84335">
        <ele>194.1</ele>
        <time>2018-02-07T10:49:37.000Z</time>
      </trkpt>
      <trkpt lat="43.76933" lon="1.84333">
        <ele>194.1</ele>
        <time>2018-02-07T10:49:48.000Z</time>
      </trkpt>
      <trkpt lat="43.76943" lon="1.84336">
        <ele>194.3</ele>
        <time>2018-02-07T10:49:58.000Z</time>
      </trkpt>
      <trkpt lat="43.76952" lon="1.84338">
        <ele>194.6</ele>
        <time>2018-02-07T10:50:5.000Z</time>
      </trkpt>
      <trkpt lat="43.76961" lon="1.84341">
        <ele>194.9</ele>
        <time>2018-02-07T10:50:12.000Z</time>
      </trkpt>
      <trkpt lat="43.7697" lon="1.84345">
        <ele>195.8</ele>
        <time>2018-02-07T10:50:21.000Z</time>
      </trkpt>
      <trkpt lat="43.76979" lon="1.84351">
        <ele>196.4</ele>
        <time>2018-02-07T10:50:28.000Z</time>
      </trkpt>
      <trkpt lat="43.76989" lon="1.84353">
        <ele>196.8</ele>
        <time>2018-02-07T10:50:34.000Z</time>
      </trkpt>
      <trkpt lat="43.76998" lon="1.84355">
        <ele>197.4</ele>
        <time>2018-02-07T10:50:41.000Z</time>
      </trkpt>
      <trkpt lat="43.77007" lon="1.84358">
        <ele>198.5</ele>
        <time>2018-02-07T10:50:52.000Z</time>
      </trkpt>
      <trkpt lat="43.77017" lon="1.84359">
        <ele>199.6</ele>
        <time>2018-02-07T10:51:3.000Z</time>
      </trkpt>
      <trkpt lat="43.77024" lon="1.84352">
        <ele>201.8</ele>
        <time>2018-02-07T10:51:20.000Z</time>
      </trkpt>
      <trkpt lat="43.7703" lon="1.84341">
        <ele>202.4</ele>
        <time>2018-02-07T10:51:29.000Z</time>
      </trkpt>
      <trkpt lat="43.77039" lon="1.84335">
        <ele>202.8</ele>
        <time>2018-02-07T10:51:38.000Z</time>
      </trkpt>
      <trkpt lat="43.77048" lon="1.8433">
        <ele>203.2</ele>
        <time>2018-02-07T10:51:46.000Z</time>
      </trkpt>
      <trkpt lat="43.77055" lon="1.84338">
        <ele>203.8</ele>
        <time>2018-02-07T10:52:2.000Z</time>
      </trkpt>
      <trkpt lat="43.77063" lon="1.84345">
        <ele>203.8</ele>
        <time>2018-02-07T10:52:11.000Z</time>
      </trkpt>
      <trkpt lat="43.77069" lon="1.84354">
        <ele>203.7</ele>
        <time>2018-02-07T10:52:18.000Z</time>
      </trkpt>
      <trkpt lat="43.77077" lon="1.84363">
        <ele>204</ele>
        <time>2018-02-07T10:52:27.000Z</time>
      </trkpt>
      <trkpt lat="43.77083" lon="1.84372">
        <ele>204.5</ele>
        <time>2018-02-07T10:52:38.000Z</time>
      </trkpt>
      <trkpt lat="43.77091" lon="1.8438">
        <ele>204.8</ele>
        <time>2018-02-07T10:52:53.000Z</time>
      </trkpt>
      <trkpt lat="43.771" lon="1.84381">
        <ele>204.7</ele>
        <time>2018-02-07T10:53:3.000Z</time>
      </trkpt>
      <trkpt lat="43.7711" lon="1.8438">
        <ele>204.7</ele>
        <time>2018-02-07T10:53:12.000Z</time>
      </trkpt>
      <trkpt lat="43.7712" lon="1.84379">
        <ele>204.8</ele>
        <time>2018-02-07T10:53:22.000Z</time>
      </trkpt>
      <trkpt lat="43.7713" lon="1.84379">
        <ele>204.8</ele>
        <time>2018-02-07T10:53:31.000Z</time>
      </trkpt>
      <trkpt lat="43.77139" lon="1.84381">
        <ele>204.9</ele>
        <time>2018-02-07T10:53:40.000Z</time>
      </trkpt>
      <trkpt lat="43.77149" lon="1.84383">
        <ele>204.7</ele>
        <time>2018-02-07T10:53:50.000Z</time>
      </trkpt>
      <trkpt lat="43.77158" lon="1.84385">
        <ele>204.6</ele>
        <time>2018-02-07T10:53:58.000Z</time>
      </trkpt>
      <trkpt lat="43.77165" lon="1.84392">
        <ele>204.7</ele>
        <time>2018-02-07T10:54:3.000Z</time>
      </trkpt>
      <trkpt lat="43.77174" lon="1.844">
        <ele>204.7</ele>
        <time>2018-02-07T10:54:10.000Z</time>
      </trkpt>
      <trkpt lat="43.77183" lon="1.84399">
        <ele>204.8</ele>
        <time>2018-02-07T10:54:18.000Z</time>
      </trkpt>
      <trkpt lat="43.77193" lon="1.844">
        <ele>205</ele>
        <time>2018-02-07T10:54:27.000Z</time>
      </trkpt>
      <trkpt lat="43.77203" lon="1.84398">
        <ele>205.5</ele>
        <time>2018-02-07T10:54:38.000Z</time>
      </trkpt>
      <trkpt lat="43.77212" lon="1.84394">
        <ele>206</ele>
        <time>2018-02-07T10:54:48.000Z</time>
      </trkpt>
      <trkpt lat="43.7722" lon="1.84388">
        <ele>206.1</ele>
        <time>2018-02-07T10:54:57.000Z</time>
      </trkpt>
      <trkpt lat="43.77229" lon="1.84383">
        <ele>206.4</ele>
        <time>2018-02-07T10:55:6.000Z</time>
      </trkpt>
      <trkpt lat="43.77238" lon="1.84378">
        <ele>206.5</ele>
        <time>2018-02-07T10:55:16.000Z</time>
      </trkpt>
      <trkpt lat="43.77246" lon="1.84373">
        <ele>206.6</ele>
        <time>2018-02-07T10:55:25.000Z</time>
      </trkpt>
      <trkpt lat="43.77255" lon="1.84367">
        <ele>207</ele>
        <time>2018-02-07T10:55:34.000Z</time>
      </trkpt>
      <trkpt lat="43.77263" lon="1.8436">
        <ele>207.9</ele>
        <time>2018-02-07T10:55:45.000Z</time>
      </trkpt>
      <trkpt lat="43.77271" lon="1.84353">
        <ele>208.6</ele>
        <time>2018-02-07T10:55:55.000Z</time>
      </trkpt>
      <trkpt lat="43.77281" lon="1.8435">
        <ele>209.5</ele>
        <time>2018-02-07T10:56:7.000Z</time>
      </trkpt>
      <trkpt lat="43.7729" lon="1.84346">
        <ele>210.3</ele>
        <time>2018-02-07T10:56:19.000Z</time>
      </trkpt>
      <trkpt lat="43.77299" lon="1.84344">
        <ele>210.9</ele>
        <time>2018-02-07T10:56:29.000Z</time>
      </trkpt>
      <trkpt lat="43.77308" lon="1.84346">
        <ele>211.9</ele>
        <time>2018-02-07T10:56:41.000Z</time>
      </trkpt>
      <trkpt lat="43.77318" lon="1.84348">
        <ele>213</ele>
        <time>2018-02-07T10:56:51.000Z</time>
      </trkpt>
      <trkpt lat="43.77327" lon="1.84351">
        <ele>214.1</ele>
        <time>2018-02-07T10:57:0.000Z</time>
      </trkpt>
      <trkpt lat="43.77336" lon="1.84348">
        <ele>216.1</ele>
        <time>2018-02-07T10:57:20.000Z</time>
      </trkpt>
      <trkpt lat="43.77343" lon="1.84341">
        <ele>216.6</ele>
        <time>2018-02-07T10:57:32.000Z</time>
      </trkpt>
      <trkpt lat="43.77353" lon="1.84338">
        <ele>218.6</ele>
        <time>2018-02-07T10:58:10.000Z</time>
      </trkpt>
      <trkpt lat="43.77352" lon="1.84324">
        <ele>218.7</ele>
        <time>2018-02-07T11:01:45.000Z</time>
      </trkpt>
      <trkpt lat="43.77346" lon="1.84314">
        <ele>219.4</ele>
        <time>2018-02-07T11:02:3.000Z</time>
      </trkpt>
      <trkpt lat="43.77337" lon="1.8431">
        <ele>220.3</ele>
        <time>2018-02-07T11:02:14.000Z</time>
      </trkpt>
      <trkpt lat="43.77329" lon="1.84303">
        <ele>221.1</ele>
        <time>2018-02-07T11:02:28.000Z</time>
      </trkpt>
      <trkpt lat="43.77321" lon="1.84295">
        <ele>221.5</ele>
        <time>2018-02-07T11:02:39.000Z</time>
      </trkpt>
      <trkpt lat="43.77313" lon="1.84287">
        <ele>221.9</ele>
        <time>2018-02-07T11:02:53.000Z</time>
      </trkpt>
      <trkpt lat="43.77304" lon="1.84281">
        <ele>222.4</ele>
        <time>2018-02-07T11:03:5.000Z</time>
      </trkpt>
      <trkpt lat="43.77296" lon="1.84275">
        <ele>222.8</ele>
        <time>2018-02-07T11:03:16.000Z</time>
      </trkpt>
      <trkpt lat="43.77289" lon="1.84268">
        <ele>223</ele>
        <time>2018-02-07T11:03:26.000Z</time>
      </trkpt>
      <trkpt lat="43.77281" lon="1.84262">
        <ele>223.3</ele>
        <time>2018-02-07T11:03:34.000Z</time>
      </trkpt>
      <trkpt lat="43.77272" lon="1.84256">
        <ele>223.5</ele>
        <time>2018-02-07T11:03:44.000Z</time>
      </trkpt>
      <trkpt lat="43.77263" lon="1.84252">
        <ele>223.9</ele>
        <time>2018-02-07T11:03:54.000Z</time>
      </trkpt>
      <trkpt lat="43.77253" lon="1.84248">
        <ele>224.5</ele>
        <time>2018-02-07T11:04:5.000Z</time>
      </trkpt>
      <trkpt lat="43.77251" lon="1.84236">
        <ele>225</ele>
        <time>2018-02-07T11:04:13.000Z</time>
      </trkpt>
      <trkpt lat="43.77252" lon="1.84223">
        <ele>225.4</ele>
        <time>2018-02-07T11:04:20.000Z</time>
      </trkpt>
      <trkpt lat="43.77249" lon="1.8421">
        <ele>226.3</ele>
        <time>2018-02-07T11:04:31.000Z</time>
      </trkpt>
      <trkpt lat="43.77247" lon="1.84198">
        <ele>227.2</ele>
        <time>2018-02-07T11:04:41.000Z</time>
      </trkpt>
      <trkpt lat="43.77246" lon="1.84185">
        <ele>228.9</ele>
        <time>2018-02-07T11:04:56.000Z</time>
      </trkpt>
      <trkpt lat="43.77247" lon="1.84172">
        <ele>230.6</ele>
        <time>2018-02-07T11:05:9.000Z</time>
      </trkpt>
      <trkpt lat="43.77246" lon="1.84159">
        <ele>232.1</ele>
        <time>2018-02-07T11:05:22.000Z</time>
      </trkpt>
      <trkpt lat="43.77245" lon="1.84146">
        <ele>233.8</ele>
        <time>2018-02-07T11:05:37.000Z</time>
      </trkpt>
      <trkpt lat="43.77247" lon="1.84133">
        <ele>235.7</ele>
        <time>2018-02-07T11:05:55.000Z</time>
      </trkpt>
      <trkpt lat="43.77255" lon="1.84127">
        <ele>237.2</ele>
        <time>2018-02-07T11:06:11.000Z</time>
      </trkpt>
      <trkpt lat="43.77265" lon="1.84125">
        <ele>239.5</ele>
        <time>2018-02-07T11:06:33.000Z</time>
      </trkpt>
      <trkpt lat="43.77274" lon="1.84123">
        <ele>240.7</ele>
        <time>2018-02-07T11:06:47.000Z</time>
      </trkpt>
      <trkpt lat="43.77283" lon="1.8412">
        <ele>241.4</ele>
        <time>2018-02-07T11:06:58.000Z</time>
      </trkpt>
      <trkpt lat="43.77293" lon="1.84119">
        <ele>242.1</ele>
        <time>2018-02-07T11:07:8.000Z</time>
      </trkpt>
      <trkpt lat="43.77303" lon="1.84119">
        <ele>242.4</ele>
        <time>2018-02-07T11:07:17.000Z</time>
      </trkpt>
      <trkpt lat="43.77312" lon="1.84121">
        <ele>242.7</ele>
        <time>2018-02-07T11:07:27.000Z</time>
      </trkpt>
      <trkpt lat="43.77319" lon="1.84129">
        <ele>243.2</ele>
        <time>2018-02-07T11:07:43.000Z</time>
      </trkpt>
      <trkpt lat="43.77327" lon="1.84136">
        <ele>243.1</ele>
        <time>2018-02-07T11:08:12.000Z</time>
      </trkpt>
      <trkpt lat="43.77335" lon="1.84142">
        <ele>243.2</ele>
        <time>2018-02-07T11:08:50.000Z</time>
      </trkpt>
      <trkpt lat="43.77344" lon="1.84149">
        <ele>243.2</ele>
        <time>2018-02-07T11:09:8.000Z</time>
      </trkpt>
      <trkpt lat="43.77353" lon="1.84158">
        <ele>242.6</ele>
        <time>2018-02-07T11:09:27.000Z</time>
      </trkpt>
      <trkpt lat="43.7736" lon="1.84165">
        <ele>241.9</ele>
        <time>2018-02-07T11:09:42.000Z</time>
      </trkpt>
      <trkpt lat="43.77376" lon="1.84179">
        <ele>239.2</ele>
        <time>2018-02-07T11:11:9.000Z</time>
      </trkpt>
      <trkpt lat="43.77385" lon="1.8418">
        <ele>240.2</ele>
        <time>2018-02-07T11:11:35.000Z</time>
      </trkpt>
      <trkpt lat="43.77394" lon="1.84185">
        <ele>240.7</ele>
        <time>2018-02-07T11:11:46.000Z</time>
      </trkpt>
      <trkpt lat="43.77402" lon="1.8419">
        <ele>241</ele>
        <time>2018-02-07T11:11:59.000Z</time>
      </trkpt>
      <trkpt lat="43.77411" lon="1.84196">
        <ele>241</ele>
        <time>2018-02-07T11:12:11.000Z</time>
      </trkpt>
      <trkpt lat="43.77419" lon="1.84202">
        <ele>240.7</ele>
        <time>2018-02-07T11:12:22.000Z</time>
      </trkpt>
      <trkpt lat="43.77428" lon="1.84207">
        <ele>239.4</ele>
        <time>2018-02-07T11:12:45.000Z</time>
      </trkpt>
      <trkpt lat="43.77436" lon="1.84211">
        <ele>239.1</ele>
        <time>2018-02-07T11:12:58.000Z</time>
      </trkpt>
      <trkpt lat="43.77446" lon="1.84215">
        <ele>238.2</ele>
        <time>2018-02-07T11:13:11.000Z</time>
      </trkpt>
      <trkpt lat="43.77455" lon="1.84219">
        <ele>237.4</ele>
        <time>2018-02-07T11:13:23.000Z</time>
      </trkpt>
      <trkpt lat="43.77461" lon="1.84229">
        <ele>236</ele>
        <time>2018-02-07T11:13:36.000Z</time>
      </trkpt>
      <trkpt lat="43.7746" lon="1.84242">
        <ele>234.4</ele>
        <time>2018-02-07T11:14:18.000Z</time>
      </trkpt>
      <trkpt lat="43.77473" lon="1.84253">
        <ele>231.7</ele>
        <time>2018-02-07T11:16:43.000Z</time>
      </trkpt>
      <trkpt lat="43.77483" lon="1.84251">
        <ele>231.6</ele>
        <time>2018-02-07T11:17:0.000Z</time>
      </trkpt>
      <trkpt lat="43.77492" lon="1.8425">
        <ele>231.7</ele>
        <time>2018-02-07T11:17:11.000Z</time>
      </trkpt>
      <trkpt lat="43.77501" lon="1.84251">
        <ele>232.2</ele>
        <time>2018-02-07T11:17:24.000Z</time>
      </trkpt>
      <trkpt lat="43.77516" lon="1.84249">
        <ele>233.9</ele>
        <time>2018-02-07T11:18:11.000Z</time>
      </trkpt>
      <trkpt lat="43.77523" lon="1.84242">
        <ele>235.8</ele>
        <time>2018-02-07T11:18:40.000Z</time>
      </trkpt>
      <trkpt lat="43.77524" lon="1.84229">
        <ele>236.9</ele>
        <time>2018-02-07T11:18:54.000Z</time>
      </trkpt>
      <trkpt lat="43.77522" lon="1.84217">
        <ele>238.2</ele>
        <time>2018-02-07T11:19:10.000Z</time>
      </trkpt>
      <trkpt lat="43.77517" lon="1.84206">
        <ele>240.8</ele>
        <time>2018-02-07T11:19:37.000Z</time>
      </trkpt>
      <trkpt lat="43.77508" lon="1.84193">
        <ele>244.6</ele>
        <time>2018-02-07T11:20:29.000Z</time>
      </trkpt>
      <trkpt lat="43.77502" lon="1.84183">
        <ele>246.3</ele>
        <time>2018-02-07T11:20:44.000Z</time>
      </trkpt>
      <trkpt lat="43.77495" lon="1.84175">
        <ele>248.9</ele>
        <time>2018-02-07T11:21:1.000Z</time>
      </trkpt>
      <trkpt lat="43.77487" lon="1.84168">
        <ele>251.1</ele>
        <time>2018-02-07T11:21:14.000Z</time>
      </trkpt>
      <trkpt lat="43.77482" lon="1.84158">
        <ele>253.7</ele>
        <time>2018-02-07T11:21:32.000Z</time>
      </trkpt>
      <trkpt lat="43.77475" lon="1.84149">
        <ele>255.7</ele>
        <time>2018-02-07T11:21:45.000Z</time>
      </trkpt>
      <trkpt lat="43.77467" lon="1.84143">
        <ele>257.4</ele>
        <time>2018-02-07T11:22:0.000Z</time>
      </trkpt>
      <trkpt lat="43.77459" lon="1.84136">
        <ele>259</ele>
        <time>2018-02-07T11:22:13.000Z</time>
      </trkpt>
      <trkpt lat="43.77451" lon="1.84127">
        <ele>261.3</ele>
        <time>2018-02-07T11:22:32.000Z</time>
      </trkpt>
      <trkpt lat="43.77443" lon="1.84121">
        <ele>263</ele>
        <time>2018-02-07T11:22:45.000Z</time>
      </trkpt>
      <trkpt lat="43.77437" lon="1.84112">
        <ele>264</ele>
        <time>2018-02-07T11:22:56.000Z</time>
      </trkpt>
      <trkpt lat="43.77428" lon="1.84108">
        <ele>264.5</ele>
        <time>2018-02-07T11:23:9.000Z</time>
      </trkpt>
      <trkpt lat="43.77419" lon="1.84105">
        <ele>264</ele>
        <time>2018-02-07T11:23:19.000Z</time>
      </trkpt>
      <trkpt lat="43.7741" lon="1.84102">
        <ele>263.7</ele>
        <time>2018-02-07T11:23:29.000Z</time>
      </trkpt>
      <trkpt lat="43.77401" lon="1.84097">
        <ele>263.5</ele>
        <time>2018-02-07T11:23:38.000Z</time>
      </trkpt>
      <trkpt lat="43.77393" lon="1.84091">
        <ele>263.2</ele>
        <time>2018-02-07T11:23:49.000Z</time>
      </trkpt>
      <trkpt lat="43.77385" lon="1.84084">
        <ele>263.2</ele>
        <time>2018-02-07T11:24:0.000Z</time>
      </trkpt>
      <trkpt lat="43.77377" lon="1.84077">
        <ele>263.2</ele>
        <time>2018-02-07T11:24:8.000Z</time>
      </trkpt>
      <trkpt lat="43.77369" lon="1.84071">
        <ele>263.5</ele>
        <time>2018-02-07T11:24:19.000Z</time>
      </trkpt>
      <trkpt lat="43.7736" lon="1.84067">
        <ele>263.8</ele>
        <time>2018-02-07T11:24:28.000Z</time>
      </trkpt>
      <trkpt lat="43.77353" lon="1.84058">
        <ele>264.2</ele>
        <time>2018-02-07T11:24:35.000Z</time>
      </trkpt>
      <trkpt lat="43.77353" lon="1.84044">
        <ele>264.9</ele>
        <time>2018-02-07T11:24:45.000Z</time>
      </trkpt>
      <trkpt lat="43.77359" lon="1.84035">
        <ele>266.1</ele>
        <time>2018-02-07T11:24:57.000Z</time>
      </trkpt>
      <trkpt lat="43.77365" lon="1.84026">
        <ele>267.1</ele>
        <time>2018-02-07T11:25:13.000Z</time>
      </trkpt>
      <trkpt lat="43.77368" lon="1.84014">
        <ele>267.7</ele>
        <time>2018-02-07T11:25:25.000Z</time>
      </trkpt>
      <trkpt lat="43.77372" lon="1.84002">
        <ele>268.2</ele>
        <time>2018-02-07T11:25:37.000Z</time>
      </trkpt>
      <trkpt lat="43.77378" lon="1.83992">
        <ele>268.7</ele>
        <time>2018-02-07T11:25:49.000Z</time>
      </trkpt>
      <trkpt lat="43.77381" lon="1.8398">
        <ele>268.7</ele>
        <time>2018-02-07T11:26:1.000Z</time>
      </trkpt>
      <trkpt lat="43.77383" lon="1.83968">
        <ele>267.9</ele>
        <time>2018-02-07T11:26:15.000Z</time>
      </trkpt>
      <trkpt lat="43.77384" lon="1.83955">
        <ele>266.8</ele>
        <time>2018-02-07T11:26:24.000Z</time>
      </trkpt>
      <trkpt lat="43.77387" lon="1.83943">
        <ele>265.5</ele>
        <time>2018-02-07T11:26:34.000Z</time>
      </trkpt>
      <trkpt lat="43.7739" lon="1.83929">
        <ele>264</ele>
        <time>2018-02-07T11:26:44.000Z</time>
      </trkpt>
      <trkpt lat="43.77392" lon="1.83917">
        <ele>263.3</ele>
        <time>2018-02-07T11:26:52.000Z</time>
      </trkpt>
      <trkpt lat="43.77397" lon="1.83906">
        <ele>262.8</ele>
        <time>2018-02-07T11:27:2.000Z</time>
      </trkpt>
      <trkpt lat="43.77403" lon="1.83896">
        <ele>262.3</ele>
        <time>2018-02-07T11:27:15.000Z</time>
      </trkpt>
      <trkpt lat="43.77411" lon="1.8389">
        <ele>262.2</ele>
        <time>2018-02-07T11:27:25.000Z</time>
      </trkpt>
      <trkpt lat="43.7742" lon="1.83883">
        <ele>262.4</ele>
        <time>2018-02-07T11:27:34.000Z</time>
      </trkpt>
      <trkpt lat="43.77428" lon="1.8388">
        <ele>262.7</ele>
        <time>2018-02-07T11:27:43.000Z</time>
      </trkpt>
      <trkpt lat="43.77437" lon="1.83874">
        <ele>262.8</ele>
        <time>2018-02-07T11:27:53.000Z</time>
      </trkpt>
      <trkpt lat="43.77444" lon="1.83867">
        <ele>262.8</ele>
        <time>2018-02-07T11:28:2.000Z</time>
      </trkpt>
      <trkpt lat="43.77452" lon="1.83859">
        <ele>262.6</ele>
        <time>2018-02-07T11:28:12.000Z</time>
      </trkpt>
      <trkpt lat="43.77459" lon="1.8385">
        <ele>262.5</ele>
        <time>2018-02-07T11:28:20.000Z</time>
      </trkpt>
      <trkpt lat="43.77466" lon="1.83841">
        <ele>262.5</ele>
        <time>2018-02-07T11:28:28.000Z</time>
      </trkpt>
      <trkpt lat="43.77472" lon="1.83831">
        <ele>262.7</ele>
        <time>2018-02-07T11:28:36.000Z</time>
      </trkpt>
      <trkpt lat="43.77479" lon="1.83822">
        <ele>262.7</ele>
        <time>2018-02-07T11:28:47.000Z</time>
      </trkpt>
      <trkpt lat="43.77487" lon="1.83814">
        <ele>262.8</ele>
        <time>2018-02-07T11:28:54.000Z</time>
      </trkpt>
      <trkpt lat="43.77491" lon="1.83802">
        <ele>263.1</ele>
        <time>2018-02-07T11:29:7.000Z</time>
      </trkpt>
      <trkpt lat="43.77486" lon="1.83791">
        <ele>262.9</ele>
        <time>2018-02-07T11:29:19.000Z</time>
      </trkpt>
      <trkpt lat="43.77483" lon="1.83777">
        <ele>262.6</ele>
        <time>2018-02-07T11:29:28.000Z</time>
      </trkpt>
      <trkpt lat="43.7748" lon="1.83765">
        <ele>262.2</ele>
        <time>2018-02-07T11:29:36.000Z</time>
      </trkpt>
      <trkpt lat="43.77478" lon="1.83752">
        <ele>261.9</ele>
        <time>2018-02-07T11:29:43.000Z</time>
      </trkpt>
      <trkpt lat="43.77475" lon="1.8374">
        <ele>261.7</ele>
        <time>2018-02-07T11:29:53.000Z</time>
      </trkpt>
      <trkpt lat="43.77471" lon="1.83728">
        <ele>261.8</ele>
        <time>2018-02-07T11:30:4.000Z</time>
      </trkpt>
      <trkpt lat="43.77467" lon="1.83716">
        <ele>262</ele>
        <time>2018-02-07T11:30:14.000Z</time>
      </trkpt>
      <trkpt lat="43.77464" lon="1.83704">
        <ele>262.5</ele>
        <time>2018-02-07T11:30:23.000Z</time>
      </trkpt>
      <trkpt lat="43.77461" lon="1.83691">
        <ele>263.4</ele>
        <time>2018-02-07T11:30:33.000Z</time>
      </trkpt>
      <trkpt lat="43.77459" lon="1.83678">
        <ele>264.3</ele>
        <time>2018-02-07T11:30:41.000Z</time>
      </trkpt>
      <trkpt lat="43.77457" lon="1.83665">
        <ele>265.1</ele>
        <time>2018-02-07T11:30:51.000Z</time>
      </trkpt>
      <trkpt lat="43.77456" lon="1.83651">
        <ele>266</ele>
        <time>2018-02-07T11:30:59.000Z</time>
      </trkpt>
      <trkpt lat="43.77456" lon="1.83639">
        <ele>267.1</ele>
        <time>2018-02-07T11:31:7.000Z</time>
      </trkpt>
      <trkpt lat="43.77456" lon="1.83625">
        <ele>268.2</ele>
        <time>2018-02-07T11:31:15.000Z</time>
      </trkpt>
      <trkpt lat="43.77453" lon="1.83613">
        <ele>269.3</ele>
        <time>2018-02-07T11:31:24.000Z</time>
      </trkpt>
      <trkpt lat="43.77451" lon="1.836">
        <ele>270.5</ele>
        <time>2018-02-07T11:31:35.000Z</time>
      </trkpt>
      <trkpt lat="43.77446" lon="1.83589">
        <ele>271.8</ele>
        <time>2018-02-07T11:31:46.000Z</time>
      </trkpt>
      <trkpt lat="43.7744" lon="1.83579">
        <ele>272.6</ele>
        <time>2018-02-07T11:31:55.000Z</time>
      </trkpt>
      <trkpt lat="43.77434" lon="1.83568">
        <ele>273.5</ele>
        <time>2018-02-07T11:32:4.000Z</time>
      </trkpt>
      <trkpt lat="43.77427" lon="1.83558">
        <ele>274</ele>
        <time>2018-02-07T11:32:13.000Z</time>
      </trkpt>
      <trkpt lat="43.7742" lon="1.83548">
        <ele>274.4</ele>
        <time>2018-02-07T11:32:22.000Z</time>
      </trkpt>
      <trkpt lat="43.77413" lon="1.83539">
        <ele>274.5</ele>
        <time>2018-02-07T11:32:31.000Z</time>
      </trkpt>
      <trkpt lat="43.77407" lon="1.83529">
        <ele>274.7</ele>
        <time>2018-02-07T11:32:40.000Z</time>
      </trkpt>
      <trkpt lat="43.77399" lon="1.83519">
        <ele>274.3</ele>
        <time>2018-02-07T11:32:49.000Z</time>
      </trkpt>
      <trkpt lat="43.77393" lon="1.83509">
        <ele>274.2</ele>
        <time>2018-02-07T11:32:56.000Z</time>
      </trkpt>
      <trkpt lat="43.77385" lon="1.835">
        <ele>273.9</ele>
        <time>2018-02-07T11:33:6.000Z</time>
      </trkpt>
      <trkpt lat="43.77381" lon="1.83488">
        <ele>273.4</ele>
        <time>2018-02-07T11:33:15.000Z</time>
      </trkpt>
      <trkpt lat="43.77375" lon="1.83477">
        <ele>273</ele>
        <time>2018-02-07T11:33:25.000Z</time>
      </trkpt>
      <trkpt lat="43.77369" lon="1.83467">
        <ele>272.1</ele>
        <time>2018-02-07T11:33:35.000Z</time>
      </trkpt>
      <trkpt lat="43.77363" lon="1.83457">
        <ele>271.4</ele>
        <time>2018-02-07T11:33:45.000Z</time>
      </trkpt>
      <trkpt lat="43.77358" lon="1.83445">
        <ele>270.8</ele>
        <time>2018-02-07T11:33:54.000Z</time>
      </trkpt>
      <trkpt lat="43.77352" lon="1.83434">
        <ele>270.4</ele>
        <time>2018-02-07T11:34:3.000Z</time>
      </trkpt>
      <trkpt lat="43.77348" lon="1.83423">
        <ele>269.7</ele>
        <time>2018-02-07T11:34:11.000Z</time>
      </trkpt>
      <trkpt lat="43.77342" lon="1.83411">
        <ele>268.8</ele>
        <time>2018-02-07T11:34:19.000Z</time>
      </trkpt>
      <trkpt lat="43.77336" lon="1.83401">
        <ele>268.1</ele>
        <time>2018-02-07T11:34:27.000Z</time>
      </trkpt>
      <trkpt lat="43.77331" lon="1.8339">
        <ele>267.3</ele>
        <time>2018-02-07T11:34:36.000Z</time>
      </trkpt>
      <trkpt lat="43.77325" lon="1.83379">
        <ele>266.6</ele>
        <time>2018-02-07T11:34:44.000Z</time>
      </trkpt>
      <trkpt lat="43.7732" lon="1.83368">
        <ele>266.2</ele>
        <time>2018-02-07T11:34:52.000Z</time>
      </trkpt>
      <trkpt lat="43.77316" lon="1.83356">
        <ele>265.5</ele>
        <time>2018-02-07T11:35:0.000Z</time>
      </trkpt>
      <trkpt lat="43.77312" lon="1.83344">
        <ele>264.7</ele>
        <time>2018-02-07T11:35:8.000Z</time>
      </trkpt>
      <trkpt lat="43.7731" lon="1.8333">
        <ele>263.5</ele>
        <time>2018-02-07T11:35:18.000Z</time>
      </trkpt>
      <trkpt lat="43.77308" lon="1.83316">
        <ele>263.2</ele>
        <time>2018-02-07T11:35:24.000Z</time>
      </trkpt>
      <trkpt lat="43.77306" lon="1.83302">
        <ele>262.6</ele>
        <time>2018-02-07T11:35:31.000Z</time>
      </trkpt>
      <trkpt lat="43.77304" lon="1.83289">
        <ele>262.1</ele>
        <time>2018-02-07T11:35:38.000Z</time>
      </trkpt>
      <trkpt lat="43.77301" lon="1.83277">
        <ele>261.9</ele>
        <time>2018-02-07T11:35:46.000Z</time>
      </trkpt>
      <trkpt lat="43.77296" lon="1.83265">
        <ele>261.1</ele>
        <time>2018-02-07T11:35:55.000Z</time>
      </trkpt>
      <trkpt lat="43.77291" lon="1.83255">
        <ele>260.6</ele>
        <time>2018-02-07T11:36:4.000Z</time>
      </trkpt>
      <trkpt lat="43.77283" lon="1.83246">
        <ele>260</ele>
        <time>2018-02-07T11:36:14.000Z</time>
      </trkpt>
      <trkpt lat="43.77276" lon="1.83237">
        <ele>259.4</ele>
        <time>2018-02-07T11:36:23.000Z</time>
      </trkpt>
      <trkpt lat="43.7727" lon="1.83226">
        <ele>258.5</ele>
        <time>2018-02-07T11:36:33.000Z</time>
      </trkpt>
      <trkpt lat="43.77264" lon="1.83216">
        <ele>257.7</ele>
        <time>2018-02-07T11:36:41.000Z</time>
      </trkpt>
      <trkpt lat="43.77256" lon="1.83208">
        <ele>257</ele>
        <time>2018-02-07T11:36:51.000Z</time>
      </trkpt>
      <trkpt lat="43.7725" lon="1.83198">
        <ele>255.9</ele>
        <time>2018-02-07T11:37:0.000Z</time>
      </trkpt>
      <trkpt lat="43.77244" lon="1.83188">
        <ele>255.1</ele>
        <time>2018-02-07T11:37:7.000Z</time>
      </trkpt>
      <trkpt lat="43.77236" lon="1.83182">
        <ele>254.2</ele>
        <time>2018-02-07T11:37:16.000Z</time>
      </trkpt>
      <trkpt lat="43.7723" lon="1.83171">
        <ele>253.3</ele>
        <time>2018-02-07T11:37:22.000Z</time>
      </trkpt>
      <trkpt lat="43.77225" lon="1.8316">
        <ele>252.8</ele>
        <time>2018-02-07T11:37:30.000Z</time>
      </trkpt>
      <trkpt lat="43.7722" lon="1.83149">
        <ele>252.3</ele>
        <time>2018-02-07T11:37:35.000Z</time>
      </trkpt>
      <trkpt lat="43.77215" lon="1.83138">
        <ele>251.4</ele>
        <time>2018-02-07T11:37:43.000Z</time>
      </trkpt>
      <trkpt lat="43.7721" lon="1.83127">
        <ele>250.6</ele>
        <time>2018-02-07T11:37:52.000Z</time>
      </trkpt>
      <trkpt lat="43.77203" lon="1.83119">
        <ele>250.1</ele>
        <time>2018-02-07T11:38:1.000Z</time>
      </trkpt>
      <trkpt lat="43.77201" lon="1.83106">
        <ele>248.9</ele>
        <time>2018-02-07T11:38:11.000Z</time>
      </trkpt>
      <trkpt lat="43.77196" lon="1.83096">
        <ele>247.9</ele>
        <time>2018-02-07T11:38:19.000Z</time>
      </trkpt>
      <trkpt lat="43.77191" lon="1.83086">
        <ele>247.2</ele>
        <time>2018-02-07T11:38:26.000Z</time>
      </trkpt>
      <trkpt lat="43.77186" lon="1.83073">
        <ele>246.5</ele>
        <time>2018-02-07T11:38:36.000Z</time>
      </trkpt>
      <trkpt lat="43.77184" lon="1.8306">
        <ele>245.8</ele>
        <time>2018-02-07T11:38:46.000Z</time>
      </trkpt>
      <trkpt lat="43.77183" lon="1.83047">
        <ele>245.3</ele>
        <time>2018-02-07T11:38:54.000Z</time>
      </trkpt>
      <trkpt lat="43.77183" lon="1.83033">
        <ele>244.9</ele>
        <time>2018-02-07T11:39:1.000Z</time>
      </trkpt>
      <trkpt lat="43.77185" lon="1.83021">
        <ele>244.2</ele>
        <time>2018-02-07T11:39:9.000Z</time>
      </trkpt>
      <trkpt lat="43.77187" lon="1.83008">
        <ele>243.1</ele>
        <time>2018-02-07T11:39:18.000Z</time>
      </trkpt>
      <trkpt lat="43.77189" lon="1.82995">
        <ele>242.3</ele>
        <time>2018-02-07T11:39:27.000Z</time>
      </trkpt>
      <trkpt lat="43.7719" lon="1.82982">
        <ele>241.3</ele>
        <time>2018-02-07T11:39:38.000Z</time>
      </trkpt>
      <trkpt lat="43.77188" lon="1.82969">
        <ele>240.2</ele>
        <time>2018-02-07T11:39:49.000Z</time>
      </trkpt>
      <trkpt lat="43.77186" lon="1.82957">
        <ele>239.2</ele>
        <time>2018-02-07T11:39:58.000Z</time>
      </trkpt>
      <trkpt lat="43.77187" lon="1.82944">
        <ele>238.3</ele>
        <time>2018-02-07T11:40:7.000Z</time>
      </trkpt>
      <trkpt lat="43.77187" lon="1.82932">
        <ele>237.4</ele>
        <time>2018-02-07T11:40:15.000Z</time>
      </trkpt>
      <trkpt lat="43.77186" lon="1.82918">
        <ele>236.6</ele>
        <time>2018-02-07T11:40:23.000Z</time>
      </trkpt>
      <trkpt lat="43.77183" lon="1.82906">
        <ele>235.4</ele>
        <time>2018-02-07T11:40:33.000Z</time>
      </trkpt>
      <trkpt lat="43.77179" lon="1.82894">
        <ele>234.6</ele>
        <time>2018-02-07T11:40:38.000Z</time>
      </trkpt>
      <trkpt lat="43.77172" lon="1.82884">
        <ele>233.8</ele>
        <time>2018-02-07T11:40:44.000Z</time>
      </trkpt>
      <trkpt lat="43.77164" lon="1.82876">
        <ele>232.5</ele>
        <time>2018-02-07T11:40:54.000Z</time>
      </trkpt>
      <trkpt lat="43.77154" lon="1.82873">
        <ele>231.5</ele>
        <time>2018-02-07T11:41:3.000Z</time>
      </trkpt>
      <trkpt lat="43.77145" lon="1.82868">
        <ele>230.9</ele>
        <time>2018-02-07T11:41:12.000Z</time>
      </trkpt>
      <trkpt lat="43.77136" lon="1.82864">
        <ele>230.6</ele>
        <time>2018-02-07T11:41:18.000Z</time>
      </trkpt>
      <trkpt lat="43.77128" lon="1.82856">
        <ele>230.1</ele>
        <time>2018-02-07T11:41:24.000Z</time>
      </trkpt>
      <trkpt lat="43.7712" lon="1.82849">
        <ele>229.7</ele>
        <time>2018-02-07T11:41:31.000Z</time>
      </trkpt>
      <trkpt lat="43.77112" lon="1.82842">
        <ele>229.2</ele>
        <time>2018-02-07T11:41:39.000Z</time>
      </trkpt>
      <trkpt lat="43.77103" lon="1.82839">
        <ele>228.5</ele>
        <time>2018-02-07T11:41:49.000Z</time>
      </trkpt>
      <trkpt lat="43.77093" lon="1.82835">
        <ele>228.2</ele>
        <time>2018-02-07T11:41:59.000Z</time>
      </trkpt>
      <trkpt lat="43.77084" lon="1.8283">
        <ele>228.1</ele>
        <time>2018-02-07T11:42:8.000Z</time>
      </trkpt>
      <trkpt lat="43.77075" lon="1.82824">
        <ele>227.9</ele>
        <time>2018-02-07T11:42:16.000Z</time>
      </trkpt>
      <trkpt lat="43.77067" lon="1.82818">
        <ele>228.2</ele>
        <time>2018-02-07T11:42:25.000Z</time>
      </trkpt>
      <trkpt lat="43.77058" lon="1.82812">
        <ele>228.7</ele>
        <time>2018-02-07T11:42:34.000Z</time>
      </trkpt>
      <trkpt lat="43.7705" lon="1.82806">
        <ele>229</ele>
        <time>2018-02-07T11:42:43.000Z</time>
      </trkpt>
      <trkpt lat="43.77043" lon="1.82797">
        <ele>229.5</ele>
        <time>2018-02-07T11:42:52.000Z</time>
      </trkpt>
      <trkpt lat="43.77034" lon="1.8279">
        <ele>230.4</ele>
        <time>2018-02-07T11:43:2.000Z</time>
      </trkpt>
      <trkpt lat="43.77028" lon="1.8278">
        <ele>231</ele>
        <time>2018-02-07T11:43:11.000Z</time>
      </trkpt>
      <trkpt lat="43.77024" lon="1.82773">
        <ele>226.8</ele>
        <time>2018-02-07T11:43:20.000Z</time>
      </trkpt>
      <trkpt lat="43.77022" lon="1.82767">
        <ele>226.9</ele>
        <time>2018-02-07T11:43:29.000Z</time>
      </trkpt>
      <trkpt lat="43.77022" lon="1.82757">
        <ele>227.1</ele>
        <time>2018-02-07T12:20:41.000Z</time>
      </trkpt>
      <trkpt lat="43.77021" lon="1.8275">
        <ele>227.3</ele>
        <time>2018-02-07T12:20:51.000Z</time>
      </trkpt>
      <trkpt lat="43.7702" lon="1.82738">
        <ele>227.5</ele>
        <time>2018-02-07T12:21:1.000Z</time>
      </trkpt>
      <trkpt lat="43.77019" lon="1.82727">
        <ele>227.7</ele>
        <time>2018-02-07T12:21:10.000Z</time>
      </trkpt>
      <trkpt lat="43.77019" lon="1.82716">
        <ele>227.9</ele>
        <time>2018-02-07T12:21:17.000Z</time>
      </trkpt>
      <trkpt lat="43.77019" lon="1.82706">
        <ele>228</ele>
        <time>2018-02-07T12:21:26.000Z</time>
      </trkpt>
      <trkpt lat="43.77021" lon="1.82695">
        <ele>228.1</ele>
        <time>2018-02-07T12:21:35.000Z</time>
      </trkpt>
      <trkpt lat="43.77023" lon="1.82686">
        <ele>228.1</ele>
        <time>2018-02-07T12:21:44.000Z</time>
      </trkpt>
      <trkpt lat="43.77026" lon="1.82671">
        <ele>228.1</ele>
        <time>2018-02-07T12:21:53.000Z</time>
      </trkpt>
      <trkpt lat="43.77031" lon="1.82658">
        <ele>227.9</ele>
        <time>2018-02-07T12:22:1.000Z</time>
      </trkpt>
      <trkpt lat="43.77038" lon="1.82651">
        <ele>227.5</ele>
        <time>2018-02-07T12:22:8.000Z</time>
      </trkpt>
      <trkpt lat="43.77045" lon="1.82641">
        <ele>227.1</ele>
        <time>2018-02-07T12:22:16.000Z</time>
      </trkpt>
      <trkpt lat="43.7705" lon="1.82635">
        <ele>226.6</ele>
        <time>2018-02-07T12:22:24.000Z</time>
      </trkpt>
      <trkpt lat="43.77056" lon="1.82626">
        <ele>226.2</ele>
        <time>2018-02-07T12:22:32.000Z</time>
      </trkpt>
      <trkpt lat="43.77063" lon="1.82616">
        <ele>225.5</ele>
        <time>2018-02-07T12:22:39.000Z</time>
      </trkpt>
      <trkpt lat="43.77068" lon="1.82607">
        <ele>224.9</ele>
        <time>2018-02-07T12:22:47.000Z</time>
      </trkpt>
      <trkpt lat="43.77074" lon="1.82597">
        <ele>224.2</ele>
        <time>2018-02-07T12:22:54.000Z</time>
      </trkpt>
      <trkpt lat="43.77082" lon="1.82586">
        <ele>223.2</ele>
        <time>2018-02-07T12:23:3.000Z</time>
      </trkpt>
      <trkpt lat="43.77088" lon="1.82578">
        <ele>223</ele>
        <time>2018-02-07T12:23:9.000Z</time>
      </trkpt>
      <trkpt lat="43.77095" lon="1.82569">
        <ele>223</ele>
        <time>2018-02-07T12:23:16.000Z</time>
      </trkpt>
      <trkpt lat="43.77102" lon="1.82555">
        <ele>234.6</ele>
        <time>2018-02-07T12:23:23.000Z</time>
      </trkpt>
      <trkpt lat="43.77108" lon="1.82545">
        <ele>234.1</ele>
        <time>2018-02-07T12:23:31.000Z</time>
      </trkpt>
      <trkpt lat="43.77114" lon="1.82537">
        <ele>233.6</ele>
        <time>2018-02-07T12:23:37.000Z</time>
      </trkpt>
      <trkpt lat="43.77121" lon="1.82527">
        <ele>233.1</ele>
        <time>2018-02-07T12:23:44.000Z</time>
      </trkpt>
      <trkpt lat="43.77128" lon="1.82519">
        <ele>232.7</ele>
        <time>2018-02-07T12:23:50.000Z</time>
      </trkpt>
      <trkpt lat="43.77135" lon="1.82511">
        <ele>232.4</ele>
        <time>2018-02-07T12:23:55.000Z</time>
      </trkpt>
      <trkpt lat="43.77142" lon="1.82502">
        <ele>232.1</ele>
        <time>2018-02-07T12:24:1.000Z</time>
      </trkpt>
      <trkpt lat="43.77149" lon="1.82494">
        <ele>231.8</ele>
        <time>2018-02-07T12:24:7.000Z</time>
      </trkpt>
      <trkpt lat="43.77156" lon="1.82485">
        <ele>231.6</ele>
        <time>2018-02-07T12:24:14.000Z</time>
      </trkpt>
      <trkpt lat="43.77162" lon="1.82475">
        <ele>231.3</ele>
        <time>2018-02-07T12:24:21.000Z</time>
      </trkpt>
      <trkpt lat="43.77168" lon="1.82465">
        <ele>230.7</ele>
        <time>2018-02-07T12:24:28.000Z</time>
      </trkpt>
      <trkpt lat="43.77176" lon="1.82456">
        <ele>230.1</ele>
        <time>2018-02-07T12:24:36.000Z</time>
      </trkpt>
      <trkpt lat="43.77183" lon="1.82448">
        <ele>229.6</ele>
        <time>2018-02-07T12:24:43.000Z</time>
      </trkpt>
      <trkpt lat="43.77191" lon="1.8244">
        <ele>229</ele>
        <time>2018-02-07T12:24:52.000Z</time>
      </trkpt>
      <trkpt lat="43.772" lon="1.82435">
        <ele>228.5</ele>
        <time>2018-02-07T12:24:57.000Z</time>
      </trkpt>
      <trkpt lat="43.77208" lon="1.82428">
        <ele>227.9</ele>
        <time>2018-02-07T12:25:4.000Z</time>
      </trkpt>
      <trkpt lat="43.77216" lon="1.82419">
        <ele>227.6</ele>
        <time>2018-02-07T12:25:12.000Z</time>
      </trkpt>
      <trkpt lat="43.77221" lon="1.82408">
        <ele>227.1</ele>
        <time>2018-02-07T12:25:20.000Z</time>
      </trkpt>
      <trkpt lat="43.77225" lon="1.82396">
        <ele>226.8</ele>
        <time>2018-02-07T12:25:27.000Z</time>
      </trkpt>
      <trkpt lat="43.77228" lon="1.82383">
        <ele>226.4</ele>
        <time>2018-02-07T12:25:35.000Z</time>
      </trkpt>
      <trkpt lat="43.77229" lon="1.82369">
        <ele>226</ele>
        <time>2018-02-07T12:25:45.000Z</time>
      </trkpt>
      <trkpt lat="43.77232" lon="1.82357">
        <ele>225.6</ele>
        <time>2018-02-07T12:25:53.000Z</time>
      </trkpt>
      <trkpt lat="43.77234" lon="1.82343">
        <ele>225.3</ele>
        <time>2018-02-07T12:26:1.000Z</time>
      </trkpt>
      <trkpt lat="43.77238" lon="1.82331">
        <ele>225.3</ele>
        <time>2018-02-07T12:26:8.000Z</time>
      </trkpt>
      <trkpt lat="43.77239" lon="1.82318">
        <ele>225</ele>
        <time>2018-02-07T12:26:16.000Z</time>
      </trkpt>
      <trkpt lat="43.77244" lon="1.82305">
        <ele>224.8</ele>
        <time>2018-02-07T12:26:22.000Z</time>
      </trkpt>
      <trkpt lat="43.77249" lon="1.82294">
        <ele>224.6</ele>
        <time>2018-02-07T12:26:28.000Z</time>
      </trkpt>
      <trkpt lat="43.77255" lon="1.82283">
        <ele>224.4</ele>
        <time>2018-02-07T12:26:34.000Z</time>
      </trkpt>
      <trkpt lat="43.77261" lon="1.82274">
        <ele>224.2</ele>
        <time>2018-02-07T12:26:41.000Z</time>
      </trkpt>
      <trkpt lat="43.77268" lon="1.82263">
        <ele>224.1</ele>
        <time>2018-02-07T12:26:47.000Z</time>
      </trkpt>
      <trkpt lat="43.77275" lon="1.82253">
        <ele>224</ele>
        <time>2018-02-07T12:26:53.000Z</time>
      </trkpt>
      <trkpt lat="43.77281" lon="1.82244">
        <ele>223.7</ele>
        <time>2018-02-07T12:26:59.000Z</time>
      </trkpt>
      <trkpt lat="43.77287" lon="1.82234">
        <ele>223.5</ele>
        <time>2018-02-07T12:27:6.000Z</time>
      </trkpt>
      <trkpt lat="43.77295" lon="1.82224">
        <ele>223</ele>
        <time>2018-02-07T12:27:16.000Z</time>
      </trkpt>
      <trkpt lat="43.77302" lon="1.82214">
        <ele>222.8</ele>
        <time>2018-02-07T12:27:23.000Z</time>
      </trkpt>
      <trkpt lat="43.77312" lon="1.82212">
        <ele>222.3</ele>
        <time>2018-02-07T12:27:31.000Z</time>
      </trkpt>
      <trkpt lat="43.77321" lon="1.8221">
        <ele>222</ele>
        <time>2018-02-07T12:27:41.000Z</time>
      </trkpt>
      <trkpt lat="43.7733" lon="1.82207">
        <ele>221.7</ele>
        <time>2018-02-07T12:27:50.000Z</time>
      </trkpt>
      <trkpt lat="43.7734" lon="1.82202">
        <ele>221.3</ele>
        <time>2018-02-07T12:27:56.000Z</time>
      </trkpt>
      <trkpt lat="43.77349" lon="1.82195">
        <ele>220.7</ele>
        <time>2018-02-07T12:28:4.000Z</time>
      </trkpt>
      <trkpt lat="43.77357" lon="1.82187">
        <ele>220.6</ele>
        <time>2018-02-07T12:28:10.000Z</time>
      </trkpt>
      <trkpt lat="43.77365" lon="1.82179">
        <ele>220.4</ele>
        <time>2018-02-07T12:28:17.000Z</time>
      </trkpt>
      <trkpt lat="43.77374" lon="1.82172">
        <ele>220.2</ele>
        <time>2018-02-07T12:28:25.000Z</time>
      </trkpt>
      <trkpt lat="43.77382" lon="1.82165">
        <ele>220.1</ele>
        <time>2018-02-07T12:28:31.000Z</time>
      </trkpt>
      <trkpt lat="43.77389" lon="1.82156">
        <ele>220</ele>
        <time>2018-02-07T12:28:39.000Z</time>
      </trkpt>
      <trkpt lat="43.77395" lon="1.82148">
        <ele>219.6</ele>
        <time>2018-02-07T12:28:45.000Z</time>
      </trkpt>
      <trkpt lat="43.77402" lon="1.82139">
        <ele>219.2</ele>
        <time>2018-02-07T12:28:53.000Z</time>
      </trkpt>
      <trkpt lat="43.77408" lon="1.82129">
        <ele>219.1</ele>
        <time>2018-02-07T12:29:0.000Z</time>
      </trkpt>
      <trkpt lat="43.77415" lon="1.8212">
        <ele>218.9</ele>
        <time>2018-02-07T12:29:7.000Z</time>
      </trkpt>
      <trkpt lat="43.77422" lon="1.8211">
        <ele>218.7</ele>
        <time>2018-02-07T12:29:14.000Z</time>
      </trkpt>
      <trkpt lat="43.7743" lon="1.82101">
        <ele>218.4</ele>
        <time>2018-02-07T12:29:21.000Z</time>
      </trkpt>
      <trkpt lat="43.77438" lon="1.82093">
        <ele>218.1</ele>
        <time>2018-02-07T12:29:29.000Z</time>
      </trkpt>
      <trkpt lat="43.77446" lon="1.82083">
        <ele>217.8</ele>
        <time>2018-02-07T12:29:37.000Z</time>
      </trkpt>
      <trkpt lat="43.77453" lon="1.82073">
        <ele>217.7</ele>
        <time>2018-02-07T12:29:43.000Z</time>
      </trkpt>
      <trkpt lat="43.7746" lon="1.82066">
        <ele>217.6</ele>
        <time>2018-02-07T12:29:49.000Z</time>
      </trkpt>
      <trkpt lat="43.77468" lon="1.82057">
        <ele>217.2</ele>
        <time>2018-02-07T12:29:55.000Z</time>
      </trkpt>
      <trkpt lat="43.77475" lon="1.8205">
        <ele>216.9</ele>
        <time>2018-02-07T12:30:1.000Z</time>
      </trkpt>
      <trkpt lat="43.77482" lon="1.82041">
        <ele>216.6</ele>
        <time>2018-02-07T12:30:8.000Z</time>
      </trkpt>
      <trkpt lat="43.7749" lon="1.82031">
        <ele>216.3</ele>
        <time>2018-02-07T12:30:15.000Z</time>
      </trkpt>
      <trkpt lat="43.77496" lon="1.82022">
        <ele>216</ele>
        <time>2018-02-07T12:30:22.000Z</time>
      </trkpt>
      <trkpt lat="43.77503" lon="1.82013">
        <ele>215.5</ele>
        <time>2018-02-07T12:30:29.000Z</time>
      </trkpt>
      <trkpt lat="43.7751" lon="1.82002">
        <ele>215.1</ele>
        <time>2018-02-07T12:30:36.000Z</time>
      </trkpt>
      <trkpt lat="43.77517" lon="1.81992">
        <ele>214.7</ele>
        <time>2018-02-07T12:30:43.000Z</time>
      </trkpt>
      <trkpt lat="43.77524" lon="1.81982">
        <ele>214.3</ele>
        <time>2018-02-07T12:30:51.000Z</time>
      </trkpt>
      <trkpt lat="43.77531" lon="1.81973">
        <ele>214</ele>
        <time>2018-02-07T12:30:58.000Z</time>
      </trkpt>
      <trkpt lat="43.77537" lon="1.81963">
        <ele>213.7</ele>
        <time>2018-02-07T12:31:5.000Z</time>
      </trkpt>
      <trkpt lat="43.77545" lon="1.81955">
        <ele>213.4</ele>
        <time>2018-02-07T12:31:12.000Z</time>
      </trkpt>
      <trkpt lat="43.77554" lon="1.8195">
        <ele>212.6</ele>
        <time>2018-02-07T12:31:20.000Z</time>
      </trkpt>
      <trkpt lat="43.77561" lon="1.81941">
        <ele>212.1</ele>
        <time>2018-02-07T12:31:26.000Z</time>
      </trkpt>
      <trkpt lat="43.77569" lon="1.81935">
        <ele>211.6</ele>
        <time>2018-02-07T12:31:35.000Z</time>
      </trkpt>
      <trkpt lat="43.77576" lon="1.81926">
        <ele>211.1</ele>
        <time>2018-02-07T12:31:42.000Z</time>
      </trkpt>
      <trkpt lat="43.7758" lon="1.81913">
        <ele>210.8</ele>
        <time>2018-02-07T12:31:48.000Z</time>
      </trkpt>
      <trkpt lat="43.77585" lon="1.81901">
        <ele>210.6</ele>
        <time>2018-02-07T12:31:56.000Z</time>
      </trkpt>
      <trkpt lat="43.77591" lon="1.81891">
        <ele>210.5</ele>
        <time>2018-02-07T12:32:3.000Z</time>
      </trkpt>
      <trkpt lat="43.77597" lon="1.8188">
        <ele>210</ele>
        <time>2018-02-07T12:32:10.000Z</time>
      </trkpt>
      <trkpt lat="43.77604" lon="1.81871">
        <ele>209.8</ele>
        <time>2018-02-07T12:32:17.000Z</time>
      </trkpt>
      <trkpt lat="43.7761" lon="1.8186">
        <ele>209.4</ele>
        <time>2018-02-07T12:32:24.000Z</time>
      </trkpt>
      <trkpt lat="43.77617" lon="1.8185">
        <ele>209.2</ele>
        <time>2018-02-07T12:32:31.000Z</time>
      </trkpt>
      <trkpt lat="43.77623" lon="1.81841">
        <ele>209.1</ele>
        <time>2018-02-07T12:32:38.000Z</time>
      </trkpt>
      <trkpt lat="43.77629" lon="1.8183">
        <ele>208.9</ele>
        <time>2018-02-07T12:32:45.000Z</time>
      </trkpt>
      <trkpt lat="43.77636" lon="1.81819">
        <ele>208.7</ele>
        <time>2018-02-07T12:32:53.000Z</time>
      </trkpt>
      <trkpt lat="43.77642" lon="1.81808">
        <ele>208.3</ele>
        <time>2018-02-07T12:33:0.000Z</time>
      </trkpt>
      <trkpt lat="43.77646" lon="1.81797">
        <ele>208.1</ele>
        <time>2018-02-07T12:33:6.000Z</time>
      </trkpt>
      <trkpt lat="43.77652" lon="1.81787">
        <ele>208</ele>
        <time>2018-02-07T12:33:13.000Z</time>
      </trkpt>
      <trkpt lat="43.77657" lon="1.81776">
        <ele>207.8</ele>
        <time>2018-02-07T12:33:21.000Z</time>
      </trkpt>
      <trkpt lat="43.77664" lon="1.81766">
        <ele>207.6</ele>
        <time>2018-02-07T12:33:29.000Z</time>
      </trkpt>
      <trkpt lat="43.77671" lon="1.81754">
        <ele>207.3</ele>
        <time>2018-02-07T12:33:36.000Z</time>
      </trkpt>
      <trkpt lat="43.77678" lon="1.81746">
        <ele>207.1</ele>
        <time>2018-02-07T12:33:43.000Z</time>
      </trkpt>
      <trkpt lat="43.77686" lon="1.81737">
        <ele>206.8</ele>
        <time>2018-02-07T12:33:50.000Z</time>
      </trkpt>
      <trkpt lat="43.77693" lon="1.81728">
        <ele>206.9</ele>
        <time>2018-02-07T12:33:58.000Z</time>
      </trkpt>
      <trkpt lat="43.777" lon="1.8172">
        <ele>206.9</ele>
        <time>2018-02-07T12:34:4.000Z</time>
      </trkpt>
      <trkpt lat="43.77707" lon="1.81711">
        <ele>206.8</ele>
        <time>2018-02-07T12:34:12.000Z</time>
      </trkpt>
      <trkpt lat="43.77714" lon="1.81702">
        <ele>206.7</ele>
        <time>2018-02-07T12:34:19.000Z</time>
      </trkpt>
      <trkpt lat="43.77722" lon="1.81693">
        <ele>206.6</ele>
        <time>2018-02-07T12:34:26.000Z</time>
      </trkpt>
      <trkpt lat="43.7773" lon="1.81686">
        <ele>206.4</ele>
        <time>2018-02-07T12:34:33.000Z</time>
      </trkpt>
      <trkpt lat="43.77738" lon="1.81678">
        <ele>206.2</ele>
        <time>2018-02-07T12:34:40.000Z</time>
      </trkpt>
      <trkpt lat="43.77745" lon="1.8167">
        <ele>205.9</ele>
        <time>2018-02-07T12:34:47.000Z</time>
      </trkpt>
      <trkpt lat="43.77753" lon="1.81661">
        <ele>205.8</ele>
        <time>2018-02-07T12:34:54.000Z</time>
      </trkpt>
      <trkpt lat="43.77761" lon="1.81652">
        <ele>205.5</ele>
        <time>2018-02-07T12:35:1.000Z</time>
      </trkpt>
      <trkpt lat="43.77768" lon="1.81644">
        <ele>205.2</ele>
        <time>2018-02-07T12:35:8.000Z</time>
      </trkpt>
      <trkpt lat="43.77775" lon="1.81636">
        <ele>205.1</ele>
        <time>2018-02-07T12:35:15.000Z</time>
      </trkpt>
      <trkpt lat="43.77782" lon="1.81628">
        <ele>204.6</ele>
        <time>2018-02-07T12:35:23.000Z</time>
      </trkpt>
      <trkpt lat="43.77789" lon="1.8162">
        <ele>204.5</ele>
        <time>2018-02-07T12:35:29.000Z</time>
      </trkpt>
      <trkpt lat="43.77797" lon="1.81611">
        <ele>204.3</ele>
        <time>2018-02-07T12:35:36.000Z</time>
      </trkpt>
      <trkpt lat="43.77804" lon="1.81603">
        <ele>204.1</ele>
        <time>2018-02-07T12:35:43.000Z</time>
      </trkpt>
      <trkpt lat="43.77812" lon="1.81595">
        <ele>203.8</ele>
        <time>2018-02-07T12:35:51.000Z</time>
      </trkpt>
      <trkpt lat="43.77819" lon="1.81586">
        <ele>203.6</ele>
        <time>2018-02-07T12:35:59.000Z</time>
      </trkpt>
      <trkpt lat="43.77827" lon="1.81579">
        <ele>203.5</ele>
        <time>2018-02-07T12:36:5.000Z</time>
      </trkpt>
      <trkpt lat="43.77835" lon="1.81571">
        <ele>203.5</ele>
        <time>2018-02-07T12:36:11.000Z</time>
      </trkpt>
      <trkpt lat="43.77843" lon="1.81564">
        <ele>203.4</ele>
        <time>2018-02-07T12:36:17.000Z</time>
      </trkpt>
      <trkpt lat="43.77851" lon="1.81556">
        <ele>203.3</ele>
        <time>2018-02-07T12:36:23.000Z</time>
      </trkpt>
      <trkpt lat="43.77859" lon="1.81547">
        <ele>202.9</ele>
        <time>2018-02-07T12:36:30.000Z</time>
      </trkpt>
      <trkpt lat="43.77866" lon="1.81538">
        <ele>202.6</ele>
        <time>2018-02-07T12:36:39.000Z</time>
      </trkpt>
      <trkpt lat="43.77874" lon="1.81529">
        <ele>202.5</ele>
        <time>2018-02-07T12:36:46.000Z</time>
      </trkpt>
      <trkpt lat="43.77882" lon="1.81522">
        <ele>202.3</ele>
        <time>2018-02-07T12:36:54.000Z</time>
      </trkpt>
      <trkpt lat="43.7789" lon="1.81515">
        <ele>201.6</ele>
        <time>2018-02-07T12:37:3.000Z</time>
      </trkpt>
      <trkpt lat="43.77898" lon="1.81506">
        <ele>201</ele>
        <time>2018-02-07T12:37:10.000Z</time>
      </trkpt>
      <trkpt lat="43.77905" lon="1.81497">
        <ele>200.5</ele>
        <time>2018-02-07T12:37:18.000Z</time>
      </trkpt>
      <trkpt lat="43.77913" lon="1.81489">
        <ele>200.2</ele>
        <time>2018-02-07T12:37:26.000Z</time>
      </trkpt>
      <trkpt lat="43.77921" lon="1.81481">
        <ele>199.7</ele>
        <time>2018-02-07T12:37:33.000Z</time>
      </trkpt>
      <trkpt lat="43.77928" lon="1.81473">
        <ele>199.2</ele>
        <time>2018-02-07T12:37:40.000Z</time>
      </trkpt>
      <trkpt lat="43.77937" lon="1.81464">
        <ele>199</ele>
        <time>2018-02-07T12:37:45.000Z</time>
      </trkpt>
      <trkpt lat="43.77944" lon="1.81454">
        <ele>198.7</ele>
        <time>2018-02-07T12:37:54.000Z</time>
      </trkpt>
      <trkpt lat="43.7795" lon="1.81442">
        <ele>198.5</ele>
        <time>2018-02-07T12:38:2.000Z</time>
      </trkpt>
      <trkpt lat="43.77955" lon="1.8143">
        <ele>198.3</ele>
        <time>2018-02-07T12:38:11.000Z</time>
      </trkpt>
      <trkpt lat="43.77962" lon="1.81421">
        <ele>198.1</ele>
        <time>2018-02-07T12:38:17.000Z</time>
      </trkpt>
      <trkpt lat="43.7797" lon="1.81411">
        <ele>197.9</ele>
        <time>2018-02-07T12:38:23.000Z</time>
      </trkpt>
      <trkpt lat="43.77977" lon="1.81402">
        <ele>197.5</ele>
        <time>2018-02-07T12:38:30.000Z</time>
      </trkpt>
      <trkpt lat="43.77984" lon="1.81393">
        <ele>197.4</ele>
        <time>2018-02-07T12:38:37.000Z</time>
      </trkpt>
      <trkpt lat="43.7799" lon="1.81384">
        <ele>197.2</ele>
        <time>2018-02-07T12:38:43.000Z</time>
      </trkpt>
      <trkpt lat="43.77997" lon="1.81375">
        <ele>197</ele>
        <time>2018-02-07T12:38:50.000Z</time>
      </trkpt>
      <trkpt lat="43.78005" lon="1.81366">
        <ele>196.6</ele>
        <time>2018-02-07T12:38:57.000Z</time>
      </trkpt>
      <trkpt lat="43.78012" lon="1.81357">
        <ele>196.3</ele>
        <time>2018-02-07T12:39:4.000Z</time>
      </trkpt>
      <trkpt lat="43.7802" lon="1.81348">
        <ele>196.1</ele>
        <time>2018-02-07T12:39:11.000Z</time>
      </trkpt>
      <trkpt lat="43.78027" lon="1.8134">
        <ele>195.8</ele>
        <time>2018-02-07T12:39:17.000Z</time>
      </trkpt>
      <trkpt lat="43.78035" lon="1.81333">
        <ele>192.8</ele>
        <time>2018-02-07T12:41:16.000Z</time>
      </trkpt>
      <trkpt lat="43.78041" lon="1.81323">
        <ele>192.9</ele>
        <time>2018-02-07T12:41:24.000Z</time>
      </trkpt>
      <trkpt lat="43.78048" lon="1.81314">
        <ele>193</ele>
        <time>2018-02-07T12:41:30.000Z</time>
      </trkpt>
      <trkpt lat="43.78055" lon="1.81305">
        <ele>193</ele>
        <time>2018-02-07T12:41:37.000Z</time>
      </trkpt>
      <trkpt lat="43.78062" lon="1.81295">
        <ele>193</ele>
        <time>2018-02-07T12:41:44.000Z</time>
      </trkpt>
      <trkpt lat="43.78069" lon="1.81287">
        <ele>192.9</ele>
        <time>2018-02-07T12:41:51.000Z</time>
      </trkpt>
      <trkpt lat="43.78076" lon="1.81279">
        <ele>192.9</ele>
        <time>2018-02-07T12:41:57.000Z</time>
      </trkpt>
      <trkpt lat="43.78084" lon="1.81272">
        <ele>192.8</ele>
        <time>2018-02-07T12:42:4.000Z</time>
      </trkpt>
      <trkpt lat="43.78091" lon="1.81264">
        <ele>192.7</ele>
        <time>2018-02-07T12:42:10.000Z</time>
      </trkpt>
      <trkpt lat="43.78099" lon="1.81254">
        <ele>192.5</ele>
        <time>2018-02-07T12:42:17.000Z</time>
      </trkpt>
      <trkpt lat="43.78105" lon="1.81244">
        <ele>192.3</ele>
        <time>2018-02-07T12:42:23.000Z</time>
      </trkpt>
      <trkpt lat="43.78112" lon="1.81235">
        <ele>191.9</ele>
        <time>2018-02-07T12:42:30.000Z</time>
      </trkpt>
      <trkpt lat="43.7812" lon="1.81226">
        <ele>191.5</ele>
        <time>2018-02-07T12:42:37.000Z</time>
      </trkpt>
      <trkpt lat="43.78128" lon="1.81218">
        <ele>191</ele>
        <time>2018-02-07T12:42:44.000Z</time>
      </trkpt>
      <trkpt lat="43.78135" lon="1.8121">
        <ele>190.7</ele>
        <time>2018-02-07T12:42:50.000Z</time>
      </trkpt>
      <trkpt lat="43.78143" lon="1.81202">
        <ele>190.7</ele>
        <time>2018-02-07T12:42:56.000Z</time>
      </trkpt>
      <trkpt lat="43.78151" lon="1.81195">
        <ele>190.5</ele>
        <time>2018-02-07T12:43:3.000Z</time>
      </trkpt>
      <trkpt lat="43.78158" lon="1.81186">
        <ele>190.1</ele>
        <time>2018-02-07T12:43:10.000Z</time>
      </trkpt>
      <trkpt lat="43.78165" lon="1.81177">
        <ele>189.8</ele>
        <time>2018-02-07T12:43:16.000Z</time>
      </trkpt>
      <trkpt lat="43.78172" lon="1.81168">
        <ele>189.7</ele>
        <time>2018-02-07T12:43:23.000Z</time>
      </trkpt>
      <trkpt lat="43.7818" lon="1.81159">
        <ele>189.4</ele>
        <time>2018-02-07T12:43:30.000Z</time>
      </trkpt>
      <trkpt lat="43.78186" lon="1.8115">
        <ele>189.1</ele>
        <time>2018-02-07T12:43:37.000Z</time>
      </trkpt>
      <trkpt lat="43.78195" lon="1.81143">
        <ele>188.6</ele>
        <time>2018-02-07T12:43:44.000Z</time>
      </trkpt>
      <trkpt lat="43.78204" lon="1.81135">
        <ele>188.5</ele>
        <time>2018-02-07T12:43:51.000Z</time>
      </trkpt>
      <trkpt lat="43.78212" lon="1.81126">
        <ele>188.5</ele>
        <time>2018-02-07T12:43:59.000Z</time>
      </trkpt>
      <trkpt lat="43.78219" lon="1.81117">
        <ele>188.3</ele>
        <time>2018-02-07T12:44:6.000Z</time>
      </trkpt>
      <trkpt lat="43.78226" lon="1.81107">
        <ele>187.8</ele>
        <time>2018-02-07T12:44:12.000Z</time>
      </trkpt>
      <trkpt lat="43.78234" lon="1.81099">
        <ele>187.3</ele>
        <time>2018-02-07T12:44:20.000Z</time>
      </trkpt>
      <trkpt lat="43.78242" lon="1.81091">
        <ele>187.1</ele>
        <time>2018-02-07T12:44:27.000Z</time>
      </trkpt>
      <trkpt lat="43.78249" lon="1.81083">
        <ele>187</ele>
        <time>2018-02-07T12:44:33.000Z</time>
      </trkpt>
      <trkpt lat="43.78256" lon="1.81075">
        <ele>186.9</ele>
        <time>2018-02-07T12:44:39.000Z</time>
      </trkpt>
      <trkpt lat="43.78263" lon="1.81066">
        <ele>186.7</ele>
        <time>2018-02-07T12:44:46.000Z</time>
      </trkpt>
      <trkpt lat="43.78271" lon="1.81058">
        <ele>186.5</ele>
        <time>2018-02-07T12:44:52.000Z</time>
      </trkpt>
      <trkpt lat="43.78278" lon="1.8105">
        <ele>186.3</ele>
        <time>2018-02-07T12:44:58.000Z</time>
      </trkpt>
      <trkpt lat="43.78285" lon="1.81039">
        <ele>186.1</ele>
        <time>2018-02-07T12:45:4.000Z</time>
      </trkpt>
      <trkpt lat="43.78291" lon="1.81028">
        <ele>185.6</ele>
        <time>2018-02-07T12:45:10.000Z</time>
      </trkpt>
      <trkpt lat="43.78299" lon="1.81019">
        <ele>185.2</ele>
        <time>2018-02-07T12:45:17.000Z</time>
      </trkpt>
      <trkpt lat="43.78306" lon="1.81009">
        <ele>184.9</ele>
        <time>2018-02-07T12:45:25.000Z</time>
      </trkpt>
      <trkpt lat="43.78314" lon="1.81004">
        <ele>184.5</ele>
        <time>2018-02-07T12:45:30.000Z</time>
      </trkpt>
      <trkpt lat="43.78321" lon="1.80995">
        <ele>184</ele>
        <time>2018-02-07T12:45:36.000Z</time>
      </trkpt>
      <trkpt lat="43.7833" lon="1.80993">
        <ele>183.7</ele>
        <time>2018-02-07T12:45:43.000Z</time>
      </trkpt>
      <trkpt lat="43.78338" lon="1.80984">
        <ele>183.6</ele>
        <time>2018-02-07T12:45:49.000Z</time>
      </trkpt>
      <trkpt lat="43.78345" lon="1.80975">
        <ele>183.5</ele>
        <time>2018-02-07T12:45:56.000Z</time>
      </trkpt>
      <trkpt lat="43.78351" lon="1.80966">
        <ele>183.3</ele>
        <time>2018-02-07T12:46:3.000Z</time>
      </trkpt>
      <trkpt lat="43.78356" lon="1.80955">
        <ele>183.1</ele>
        <time>2018-02-07T12:46:10.000Z</time>
      </trkpt>
      <trkpt lat="43.78361" lon="1.80944">
        <ele>182.9</ele>
        <time>2018-02-07T12:46:20.000Z</time>
      </trkpt>
      <trkpt lat="43.78366" lon="1.80932">
        <ele>182.3</ele>
        <time>2018-02-07T12:46:35.000Z</time>
      </trkpt>
      <trkpt lat="43.78371" lon="1.80921">
        <ele>179.9</ele>
        <time>2018-02-07T12:47:35.000Z</time>
      </trkpt>
      <trkpt lat="43.78379" lon="1.80913">
        <ele>179.6</ele>
        <time>2018-02-07T12:47:44.000Z</time>
      </trkpt>
      <trkpt lat="43.78387" lon="1.80906">
        <ele>179.4</ele>
        <time>2018-02-07T12:47:52.000Z</time>
      </trkpt>
      <trkpt lat="43.78392" lon="1.80896">
        <ele>179.2</ele>
        <time>2018-02-07T12:48:0.000Z</time>
      </trkpt>
      <trkpt lat="43.78399" lon="1.80885">
        <ele>179</ele>
        <time>2018-02-07T12:48:10.000Z</time>
      </trkpt>
      <trkpt lat="43.78406" lon="1.80875">
        <ele>178.9</ele>
        <time>2018-02-07T12:48:16.000Z</time>
      </trkpt>
      <trkpt lat="43.78414" lon="1.80866">
        <ele>178.8</ele>
        <time>2018-02-07T12:48:27.000Z</time>
      </trkpt>
      <trkpt lat="43.7842" lon="1.80857">
        <ele>178.6</ele>
        <time>2018-02-07T12:48:35.000Z</time>
      </trkpt>
      <trkpt lat="43.78427" lon="1.80848">
        <ele>178.3</ele>
        <time>2018-02-07T12:48:42.000Z</time>
      </trkpt>
      <trkpt lat="43.78433" lon="1.80839">
        <ele>178.1</ele>
        <time>2018-02-07T12:48:51.000Z</time>
      </trkpt>
      <trkpt lat="43.78438" lon="1.80827">
        <ele>177.8</ele>
        <time>2018-02-07T12:48:58.000Z</time>
      </trkpt>
      <trkpt lat="43.78443" lon="1.80816">
        <ele>177.6</ele>
        <time>2018-02-07T12:49:5.000Z</time>
      </trkpt>
      <trkpt lat="43.7845" lon="1.80808">
        <ele>177.5</ele>
        <time>2018-02-07T12:49:12.000Z</time>
      </trkpt>
      <trkpt lat="43.78457" lon="1.80798">
        <ele>177.3</ele>
        <time>2018-02-07T12:49:21.000Z</time>
      </trkpt>
      <trkpt lat="43.78463" lon="1.80787">
        <ele>177.2</ele>
        <time>2018-02-07T12:49:28.000Z</time>
      </trkpt>
      <trkpt lat="43.78469" lon="1.80776">
        <ele>177</ele>
        <time>2018-02-07T12:49:36.000Z</time>
      </trkpt>
      <trkpt lat="43.78474" lon="1.80766">
        <ele>176.9</ele>
        <time>2018-02-07T12:49:44.000Z</time>
      </trkpt>
      <trkpt lat="43.78481" lon="1.80756">
        <ele>176.6</ele>
        <time>2018-02-07T12:49:53.000Z</time>
      </trkpt>
      <trkpt lat="43.78488" lon="1.80747">
        <ele>176.3</ele>
        <time>2018-02-07T12:50:0.000Z</time>
      </trkpt>
      <trkpt lat="43.78495" lon="1.80738">
        <ele>176.2</ele>
        <time>2018-02-07T12:50:8.000Z</time>
      </trkpt>
      <trkpt lat="43.785" lon="1.80727">
        <ele>175.7</ele>
        <time>2018-02-07T12:50:15.000Z</time>
      </trkpt>
      <trkpt lat="43.78507" lon="1.80716">
        <ele>175.5</ele>
        <time>2018-02-07T12:50:23.000Z</time>
      </trkpt>
      <trkpt lat="43.78512" lon="1.80706">
        <ele>175.5</ele>
        <time>2018-02-07T12:50:31.000Z</time>
      </trkpt>
      <trkpt lat="43.78517" lon="1.80696">
        <ele>175.5</ele>
        <time>2018-02-07T12:50:39.000Z</time>
      </trkpt>
      <trkpt lat="43.78524" lon="1.80686">
        <ele>175</ele>
        <time>2018-02-07T12:50:48.000Z</time>
      </trkpt>
      <trkpt lat="43.78531" lon="1.80676">
        <ele>174.9</ele>
        <time>2018-02-07T12:50:55.000Z</time>
      </trkpt>
      <trkpt lat="43.78538" lon="1.80666">
        <ele>174.9</ele>
        <time>2018-02-07T12:51:2.000Z</time>
      </trkpt>
      <trkpt lat="43.78546" lon="1.80658">
        <ele>174.8</ele>
        <time>2018-02-07T12:51:9.000Z</time>
      </trkpt>
      <trkpt lat="43.78552" lon="1.80647">
        <ele>174.7</ele>
        <time>2018-02-07T12:51:16.000Z</time>
      </trkpt>
      <trkpt lat="43.78558" lon="1.80637">
        <ele>174.6</ele>
        <time>2018-02-07T12:51:24.000Z</time>
      </trkpt>
      <trkpt lat="43.78564" lon="1.80625">
        <ele>174.6</ele>
        <time>2018-02-07T12:51:32.000Z</time>
      </trkpt>
      <trkpt lat="43.7857" lon="1.80616">
        <ele>174.4</ele>
        <time>2018-02-07T12:51:40.000Z</time>
      </trkpt>
      <trkpt lat="43.78576" lon="1.80607">
        <ele>174.2</ele>
        <time>2018-02-07T12:51:49.000Z</time>
      </trkpt>
      <trkpt lat="43.78583" lon="1.80597">
        <ele>174.3</ele>
        <time>2018-02-07T12:51:57.000Z</time>
      </trkpt>
      <trkpt lat="43.7859" lon="1.80588">
        <ele>174.3</ele>
        <time>2018-02-07T12:52:4.000Z</time>
      </trkpt>
      <trkpt lat="43.78597" lon="1.80579">
        <ele>174.3</ele>
        <time>2018-02-07T12:52:11.000Z</time>
      </trkpt>
      <trkpt lat="43.78604" lon="1.80569">
        <ele>174.2</ele>
        <time>2018-02-07T12:52:19.000Z</time>
      </trkpt>
      <trkpt lat="43.78612" lon="1.80559">
        <ele>174.1</ele>
        <time>2018-02-07T12:52:27.000Z</time>
      </trkpt>
      <trkpt lat="43.78619" lon="1.8055">
        <ele>174.1</ele>
        <time>2018-02-07T12:52:35.000Z</time>
      </trkpt>
      <trkpt lat="43.78624" lon="1.80539">
        <ele>174.1</ele>
        <time>2018-02-07T12:52:43.000Z</time>
      </trkpt>
      <trkpt lat="43.7863" lon="1.80529">
        <ele>174</ele>
        <time>2018-02-07T12:52:51.000Z</time>
      </trkpt>
      <trkpt lat="43.78637" lon="1.80518">
        <ele>173.9</ele>
        <time>2018-02-07T12:52:59.000Z</time>
      </trkpt>
      <trkpt lat="43.78643" lon="1.80508">
        <ele>173.8</ele>
        <time>2018-02-07T12:53:7.000Z</time>
      </trkpt>
      <trkpt lat="43.78649" lon="1.80498">
        <ele>173.7</ele>
        <time>2018-02-07T12:53:14.000Z</time>
      </trkpt>
      <trkpt lat="43.78655" lon="1.80486">
        <ele>173.6</ele>
        <time>2018-02-07T12:53:21.000Z</time>
      </trkpt>
      <trkpt lat="43.78661" lon="1.80475">
        <ele>173.2</ele>
        <time>2018-02-07T12:53:30.000Z</time>
      </trkpt>
      <trkpt lat="43.78668" lon="1.80466">
        <ele>172.8</ele>
        <time>2018-02-07T12:53:38.000Z</time>
      </trkpt>
      <trkpt lat="43.78673" lon="1.80456">
        <ele>172.4</ele>
        <time>2018-02-07T12:53:49.000Z</time>
      </trkpt>
      <trkpt lat="43.78679" lon="1.80446">
        <ele>172.3</ele>
        <time>2018-02-07T12:54:1.000Z</time>
      </trkpt>
      <trkpt lat="43.78685" lon="1.80435">
        <ele>172.1</ele>
        <time>2018-02-07T12:54:7.000Z</time>
      </trkpt>
      <trkpt lat="43.78692" lon="1.80425">
        <ele>172</ele>
        <time>2018-02-07T12:54:14.000Z</time>
      </trkpt>
      <trkpt lat="43.78698" lon="1.80415">
        <ele>171.8</ele>
        <time>2018-02-07T12:54:23.000Z</time>
      </trkpt>
      <trkpt lat="43.78703" lon="1.80405">
        <ele>171.7</ele>
        <time>2018-02-07T12:54:30.000Z</time>
      </trkpt>
      <trkpt lat="43.7871" lon="1.80395">
        <ele>171.6</ele>
        <time>2018-02-07T12:54:39.000Z</time>
      </trkpt>
      <trkpt lat="43.78716" lon="1.80386">
        <ele>171.5</ele>
        <time>2018-02-07T12:54:45.000Z</time>
      </trkpt>
      <trkpt lat="43.78724" lon="1.80378">
        <ele>171.4</ele>
        <time>2018-02-07T12:54:52.000Z</time>
      </trkpt>
      <trkpt lat="43.78732" lon="1.80371">
        <ele>171.3</ele>
        <time>2018-02-07T12:55:1.000Z</time>
      </trkpt>
      <trkpt lat="43.78737" lon="1.80362">
        <ele>171.1</ele>
        <time>2018-02-07T12:55:9.000Z</time>
      </trkpt>
      <trkpt lat="43.78744" lon="1.80351">
        <ele>170.9</ele>
        <time>2018-02-07T12:55:19.000Z</time>
      </trkpt>
      <trkpt lat="43.7875" lon="1.80341">
        <ele>170.7</ele>
        <time>2018-02-07T12:55:27.000Z</time>
      </trkpt>
      <trkpt lat="43.78757" lon="1.80332">
        <ele>170.7</ele>
        <time>2018-02-07T12:55:37.000Z</time>
      </trkpt>
      <trkpt lat="43.78764" lon="1.80321">
        <ele>170.4</ele>
        <time>2018-02-07T12:55:46.000Z</time>
      </trkpt>
      <trkpt lat="43.7877" lon="1.80312">
        <ele>170.1</ele>
        <time>2018-02-07T12:55:54.000Z</time>
      </trkpt>
      <trkpt lat="43.78777" lon="1.80304">
        <ele>170.1</ele>
        <time>2018-02-07T12:56:2.000Z</time>
      </trkpt>
      <trkpt lat="43.78784" lon="1.80294">
        <ele>169.7</ele>
        <time>2018-02-07T12:56:10.000Z</time>
      </trkpt>
      <trkpt lat="43.7879" lon="1.80283">
        <ele>169.5</ele>
        <time>2018-02-07T12:56:18.000Z</time>
      </trkpt>
      <trkpt lat="43.78796" lon="1.80272">
        <ele>169.2</ele>
        <time>2018-02-07T12:56:27.000Z</time>
      </trkpt>
      <trkpt lat="43.78802" lon="1.80262">
        <ele>169.1</ele>
        <time>2018-02-07T12:56:35.000Z</time>
      </trkpt>
      <trkpt lat="43.78807" lon="1.80251">
        <ele>168.8</ele>
        <time>2018-02-07T12:56:49.000Z</time>
      </trkpt>
      <trkpt lat="43.78814" lon="1.80241">
        <ele>168.8</ele>
        <time>2018-02-07T12:56:57.000Z</time>
      </trkpt>
      <trkpt lat="43.78819" lon="1.8023">
        <ele>168.5</ele>
        <time>2018-02-07T12:57:5.000Z</time>
      </trkpt>
      <trkpt lat="43.78826" lon="1.8022">
        <ele>168.2</ele>
        <time>2018-02-07T12:57:13.000Z</time>
      </trkpt>
      <trkpt lat="43.78832" lon="1.8021">
        <ele>168</ele>
        <time>2018-02-07T12:57:20.000Z</time>
      </trkpt>
      <trkpt lat="43.78836" lon="1.80198">
        <ele>167.8</ele>
        <time>2018-02-07T12:57:26.000Z</time>
      </trkpt>
      <trkpt lat="43.78842" lon="1.80189">
        <ele>167.5</ele>
        <time>2018-02-07T12:57:34.000Z</time>
      </trkpt>
      <trkpt lat="43.7885" lon="1.80182">
        <ele>167.4</ele>
        <time>2018-02-07T12:57:41.000Z</time>
      </trkpt>
      <trkpt lat="43.78855" lon="1.80171">
        <ele>167.2</ele>
        <time>2018-02-07T12:57:49.000Z</time>
      </trkpt>
      <trkpt lat="43.7886" lon="1.8016">
        <ele>167.1</ele>
        <time>2018-02-07T12:57:54.000Z</time>
      </trkpt>
      <trkpt lat="43.78867" lon="1.8015">
        <ele>166.8</ele>
        <time>2018-02-07T12:58:3.000Z</time>
      </trkpt>
      <trkpt lat="43.78874" lon="1.8014">
        <ele>166.4</ele>
        <time>2018-02-07T12:58:12.000Z</time>
      </trkpt>
      <trkpt lat="43.7888" lon="1.80131">
        <ele>166.2</ele>
        <time>2018-02-07T12:58:19.000Z</time>
      </trkpt>
      <trkpt lat="43.78885" lon="1.8012">
        <ele>166.1</ele>
        <time>2018-02-07T12:58:25.000Z</time>
      </trkpt>
      <trkpt lat="43.78891" lon="1.80108">
        <ele>166.1</ele>
        <time>2018-02-07T12:58:33.000Z</time>
      </trkpt>
      <trkpt lat="43.78898" lon="1.80099">
        <ele>165.8</ele>
        <time>2018-02-07T12:58:43.000Z</time>
      </trkpt>
      <trkpt lat="43.78905" lon="1.80091">
        <ele>165.4</ele>
        <time>2018-02-07T12:58:52.000Z</time>
      </trkpt>
      <trkpt lat="43.78911" lon="1.8008">
        <ele>165.4</ele>
        <time>2018-02-07T12:58:59.000Z</time>
      </trkpt>
      <trkpt lat="43.78918" lon="1.8007">
        <ele>165.3</ele>
        <time>2018-02-07T12:59:8.000Z</time>
      </trkpt>
      <trkpt lat="43.78925" lon="1.8006">
        <ele>165.1</ele>
        <time>2018-02-07T12:59:20.000Z</time>
      </trkpt>
      <trkpt lat="43.78931" lon="1.8005">
        <ele>165</ele>
        <time>2018-02-07T12:59:29.000Z</time>
      </trkpt>
      <trkpt lat="43.78937" lon="1.80039">
        <ele>164.8</ele>
        <time>2018-02-07T12:59:38.000Z</time>
      </trkpt>
      <trkpt lat="43.78945" lon="1.80031">
        <ele>164.6</ele>
        <time>2018-02-07T12:59:44.000Z</time>
      </trkpt>
      <trkpt lat="43.78951" lon="1.80021">
        <ele>164.6</ele>
        <time>2018-02-07T12:59:50.000Z</time>
      </trkpt>
      <trkpt lat="43.78957" lon="1.80012">
        <ele>164.6</ele>
        <time>2018-02-07T12:59:57.000Z</time>
      </trkpt>
      <trkpt lat="43.78962" lon="1.8">
        <ele>164.5</ele>
        <time>2018-02-07T13:00:4.000Z</time>
      </trkpt>
      <trkpt lat="43.78969" lon="1.79989">
        <ele>164.3</ele>
        <time>2018-02-07T13:00:13.000Z</time>
      </trkpt>
      <trkpt lat="43.78974" lon="1.79978">
        <ele>164.2</ele>
        <time>2018-02-07T13:00:20.000Z</time>
      </trkpt>
      <trkpt lat="43.7898" lon="1.79968">
        <ele>164</ele>
        <time>2018-02-07T13:00:27.000Z</time>
      </trkpt>
      <trkpt lat="43.78987" lon="1.79958">
        <ele>163.8</ele>
        <time>2018-02-07T13:00:34.000Z</time>
      </trkpt>
      <trkpt lat="43.78994" lon="1.79949">
        <ele>163.5</ele>
        <time>2018-02-07T13:00:41.000Z</time>
      </trkpt>
      <trkpt lat="43.79001" lon="1.79941">
        <ele>163.1</ele>
        <time>2018-02-07T13:00:51.000Z</time>
      </trkpt>
      <trkpt lat="43.79008" lon="1.79931">
        <ele>162.5</ele>
        <time>2018-02-07T13:01:0.000Z</time>
      </trkpt>
      <trkpt lat="43.79012" lon="1.7992">
        <ele>162.1</ele>
        <time>2018-02-07T13:01:14.000Z</time>
      </trkpt>
      <trkpt lat="43.79009" lon="1.79908">
        <ele>162.4</ele>
        <time>2018-02-07T13:04:17.000Z</time>
      </trkpt>
      <trkpt lat="43.79003" lon="1.79898">
        <ele>162.7</ele>
        <time>2018-02-07T13:04:31.000Z</time>
      </trkpt>
      <trkpt lat="43.78997" lon="1.79888">
        <ele>162.9</ele>
        <time>2018-02-07T13:04:43.000Z</time>
      </trkpt>
      <trkpt lat="43.7899" lon="1.79878">
        <ele>163.1</ele>
        <time>2018-02-07T13:04:53.000Z</time>
      </trkpt>
      <trkpt lat="43.78982" lon="1.79872">
        <ele>163.4</ele>
        <time>2018-02-07T13:05:2.000Z</time>
      </trkpt>
      <trkpt lat="43.78977" lon="1.7986">
        <ele>164</ele>
        <time>2018-02-07T13:05:10.000Z</time>
      </trkpt>
      <trkpt lat="43.78971" lon="1.79848">
        <ele>164.3</ele>
        <time>2018-02-07T13:05:18.000Z</time>
      </trkpt>
      <trkpt lat="43.78967" lon="1.79837">
        <ele>164.4</ele>
        <time>2018-02-07T13:05:25.000Z</time>
      </trkpt>
      <trkpt lat="43.78961" lon="1.79827">
        <ele>164.4</ele>
        <time>2018-02-07T13:05:34.000Z</time>
      </trkpt>
      <trkpt lat="43.78957" lon="1.79815">
        <ele>164.3</ele>
        <time>2018-02-07T13:05:42.000Z</time>
      </trkpt>
      <trkpt lat="43.78956" lon="1.79802">
        <ele>186.5</ele>
        <time>2018-02-07T13:05:50.000Z</time>
      </trkpt>
      <trkpt lat="43.78953" lon="1.79789">
        <ele>186.9</ele>
        <time>2018-02-07T13:06:0.000Z</time>
      </trkpt>
      <trkpt lat="43.7895" lon="1.79779">
        <ele>187.3</ele>
        <time>2018-02-07T13:06:7.000Z</time>
      </trkpt>
      <trkpt lat="43.78945" lon="1.79769">
        <ele>187.7</ele>
        <time>2018-02-07T13:06:16.000Z</time>
      </trkpt>
      <trkpt lat="43.78939" lon="1.79757">
        <ele>164.3</ele>
        <time>2018-02-07T13:06:27.000Z</time>
      </trkpt>
      <trkpt lat="43.78933" lon="1.79748">
        <ele>164.4</ele>
        <time>2018-02-07T13:06:38.000Z</time>
      </trkpt>
      <trkpt lat="43.78928" lon="1.79737">
        <ele>164.4</ele>
        <time>2018-02-07T13:06:50.000Z</time>
      </trkpt>
      <trkpt lat="43.78922" lon="1.79727">
        <ele>164.4</ele>
        <time>2018-02-07T13:07:0.000Z</time>
      </trkpt>
      <trkpt lat="43.7892" lon="1.79715">
        <ele>164.5</ele>
        <time>2018-02-07T13:07:9.000Z</time>
      </trkpt>
      <trkpt lat="43.78917" lon="1.79702">
        <ele>164.6</ele>
        <time>2018-02-07T13:07:21.000Z</time>
      </trkpt>
      <trkpt lat="43.78911" lon="1.7969">
        <ele>164.5</ele>
        <time>2018-02-07T13:07:30.000Z</time>
      </trkpt>
      <trkpt lat="43.78905" lon="1.79681">
        <ele>164.5</ele>
        <time>2018-02-07T13:07:37.000Z</time>
      </trkpt>
      <trkpt lat="43.78899" lon="1.79669">
        <ele>188.6</ele>
        <time>2018-02-07T13:07:43.000Z</time>
      </trkpt>
      <trkpt lat="43.78892" lon="1.7966">
        <ele>188.5</ele>
        <time>2018-02-07T13:07:50.000Z</time>
      </trkpt>
      <trkpt lat="43.78883" lon="1.79655">
        <ele>164.3</ele>
        <time>2018-02-07T13:07:59.000Z</time>
      </trkpt>
      <trkpt lat="43.78875" lon="1.79648">
        <ele>163.6</ele>
        <time>2018-02-07T13:08:9.000Z</time>
      </trkpt>
      <trkpt lat="43.78869" lon="1.79638">
        <ele>162.9</ele>
        <time>2018-02-07T13:08:20.000Z</time>
      </trkpt>
      <trkpt lat="43.78859" lon="1.79635">
        <ele>161.8</ele>
        <time>2018-02-07T13:08:29.000Z</time>
      </trkpt>
      <trkpt lat="43.78851" lon="1.79631">
        <ele>160.6</ele>
        <time>2018-02-07T13:08:37.000Z</time>
      </trkpt>
      <trkpt lat="43.78844" lon="1.79619">
        <ele>187.3</ele>
        <time>2018-02-07T13:08:44.000Z</time>
      </trkpt>
      <trkpt lat="43.78838" lon="1.7961">
        <ele>187.2</ele>
        <time>2018-02-07T13:08:53.000Z</time>
      </trkpt>
      <trkpt lat="43.78833" lon="1.79601">
        <ele>187</ele>
        <time>2018-02-07T13:09:4.000Z</time>
      </trkpt>
      <trkpt lat="43.7883" lon="1.79593">
        <ele>186.7</ele>
        <time>2018-02-07T13:09:12.000Z</time>
      </trkpt>
      <trkpt lat="43.78826" lon="1.79582">
        <ele>186.4</ele>
        <time>2018-02-07T13:09:20.000Z</time>
      </trkpt>
      <trkpt lat="43.78819" lon="1.79572">
        <ele>185.6</ele>
        <time>2018-02-07T13:09:27.000Z</time>
      </trkpt>
      <trkpt lat="43.78815" lon="1.79561">
        <ele>185</ele>
        <time>2018-02-07T13:09:35.000Z</time>
      </trkpt>
      <trkpt lat="43.78809" lon="1.7955">
        <ele>184.2</ele>
        <time>2018-02-07T13:09:43.000Z</time>
      </trkpt>
      <trkpt lat="43.78804" lon="1.79544">
        <ele>183.8</ele>
        <time>2018-02-07T13:09:50.000Z</time>
      </trkpt>
      <trkpt lat="43.78798" lon="1.79532">
        <ele>183.1</ele>
        <time>2018-02-07T13:09:58.000Z</time>
      </trkpt>
      <trkpt lat="43.78789" lon="1.7952">
        <ele>151.7</ele>
        <time>2018-02-07T13:10:12.000Z</time>
      </trkpt>
      <trkpt lat="43.78782" lon="1.79511">
        <ele>151.1</ele>
        <time>2018-02-07T13:10:26.000Z</time>
      </trkpt>
      <trkpt lat="43.78773" lon="1.79507">
        <ele>151</ele>
        <time>2018-02-07T13:10:32.000Z</time>
      </trkpt>
      <trkpt lat="43.78768" lon="1.79496">
        <ele>151.1</ele>
        <time>2018-02-07T13:10:43.000Z</time>
      </trkpt>
      <trkpt lat="43.78764" lon="1.79486">
        <ele>180.2</ele>
        <time>2018-02-07T13:10:52.000Z</time>
      </trkpt>
      <trkpt lat="43.78757" lon="1.79471">
        <ele>179.5</ele>
        <time>2018-02-07T13:10:59.000Z</time>
      </trkpt>
      <trkpt lat="43.78752" lon="1.79464">
        <ele>179.2</ele>
        <time>2018-02-07T13:11:6.000Z</time>
      </trkpt>
      <trkpt lat="43.78748" lon="1.79453">
        <ele>178.9</ele>
        <time>2018-02-07T13:11:13.000Z</time>
      </trkpt>
      <trkpt lat="43.78743" lon="1.79445">
        <ele>178.9</ele>
        <time>2018-02-07T13:11:21.000Z</time>
      </trkpt>
      <trkpt lat="43.7874" lon="1.79436">
        <ele>178.8</ele>
        <time>2018-02-07T13:11:29.000Z</time>
      </trkpt>
      <trkpt lat="43.78735" lon="1.79424">
        <ele>178.8</ele>
        <time>2018-02-07T13:11:35.000Z</time>
      </trkpt>
      <trkpt lat="43.78729" lon="1.79413">
        <ele>179.2</ele>
        <time>2018-02-07T13:11:44.000Z</time>
      </trkpt>
      <trkpt lat="43.78722" lon="1.79404">
        <ele>157.2</ele>
        <time>2018-02-07T13:11:55.000Z</time>
      </trkpt>
      <trkpt lat="43.78718" lon="1.79393">
        <ele>158.4</ele>
        <time>2018-02-07T13:12:4.000Z</time>
      </trkpt>
      <trkpt lat="43.78712" lon="1.79383">
        <ele>159.4</ele>
        <time>2018-02-07T13:12:12.000Z</time>
      </trkpt>
      <trkpt lat="43.78706" lon="1.79373">
        <ele>161.3</ele>
        <time>2018-02-07T13:12:26.000Z</time>
      </trkpt>
      <trkpt lat="43.78701" lon="1.79362">
        <ele>162.5</ele>
        <time>2018-02-07T13:12:34.000Z</time>
      </trkpt>
      <trkpt lat="43.78692" lon="1.79358">
        <ele>163.4</ele>
        <time>2018-02-07T13:12:41.000Z</time>
      </trkpt>
      <trkpt lat="43.78684" lon="1.79351">
        <ele>164.3</ele>
        <time>2018-02-07T13:12:48.000Z</time>
      </trkpt>
      <trkpt lat="43.78677" lon="1.79343">
        <ele>165.3</ele>
        <time>2018-02-07T13:12:56.000Z</time>
      </trkpt>
      <trkpt lat="43.7867" lon="1.79334">
        <ele>166.3</ele>
        <time>2018-02-07T13:13:6.000Z</time>
      </trkpt>
      <trkpt lat="43.78663" lon="1.79325">
        <ele>166.8</ele>
        <time>2018-02-07T13:13:13.000Z</time>
      </trkpt>
      <trkpt lat="43.78655" lon="1.7932">
        <ele>167.1</ele>
        <time>2018-02-07T13:13:18.000Z</time>
      </trkpt>
      <trkpt lat="43.78647" lon="1.79313">
        <ele>167.6</ele>
        <time>2018-02-07T13:13:26.000Z</time>
      </trkpt>
      <trkpt lat="43.78641" lon="1.79301">
        <ele>187</ele>
        <time>2018-02-07T13:13:33.000Z</time>
      </trkpt>
      <trkpt lat="43.78633" lon="1.79294">
        <ele>187.1</ele>
        <time>2018-02-07T13:13:42.000Z</time>
      </trkpt>
      <trkpt lat="43.78626" lon="1.79286">
        <ele>187.2</ele>
        <time>2018-02-07T13:13:51.000Z</time>
      </trkpt>
      <trkpt lat="43.78621" lon="1.79277">
        <ele>187.2</ele>
        <time>2018-02-07T13:13:58.000Z</time>
      </trkpt>
      <trkpt lat="43.78615" lon="1.7927">
        <ele>187.2</ele>
        <time>2018-02-07T13:14:5.000Z</time>
      </trkpt>
      <trkpt lat="43.78606" lon="1.79263">
        <ele>170.1</ele>
        <time>2018-02-07T13:14:13.000Z</time>
      </trkpt>
      <trkpt lat="43.78599" lon="1.79252">
        <ele>170.6</ele>
        <time>2018-02-07T13:14:22.000Z</time>
      </trkpt>
      <trkpt lat="43.78596" lon="1.79234">
        <ele>172.1</ele>
        <time>2018-02-07T13:15:19.000Z</time>
      </trkpt>
      <trkpt lat="43.78594" lon="1.79221">
        <ele>172.3</ele>
        <time>2018-02-07T13:15:27.000Z</time>
      </trkpt>
      <trkpt lat="43.78585" lon="1.79219">
        <ele>174.5</ele>
        <time>2018-02-07T13:16:48.000Z</time>
      </trkpt>
      <trkpt lat="43.78579" lon="1.79208">
        <ele>174.8</ele>
        <time>2018-02-07T13:16:58.000Z</time>
      </trkpt>
      <trkpt lat="43.7857" lon="1.79201">
        <ele>175</ele>
        <time>2018-02-07T13:17:6.000Z</time>
      </trkpt>
      <trkpt lat="43.78564" lon="1.79191">
        <ele>175.3</ele>
        <time>2018-02-07T13:17:14.000Z</time>
      </trkpt>
      <trkpt lat="43.78558" lon="1.7918">
        <ele>175.5</ele>
        <time>2018-02-07T13:17:23.000Z</time>
      </trkpt>
      <trkpt lat="43.78549" lon="1.79173">
        <ele>175.7</ele>
        <time>2018-02-07T13:17:34.000Z</time>
      </trkpt>
      <trkpt lat="43.78541" lon="1.79166">
        <ele>175.9</ele>
        <time>2018-02-07T13:17:43.000Z</time>
      </trkpt>
      <trkpt lat="43.78535" lon="1.79157">
        <ele>176.1</ele>
        <time>2018-02-07T13:17:50.000Z</time>
      </trkpt>
      <trkpt lat="43.7853" lon="1.79147">
        <ele>176.3</ele>
        <time>2018-02-07T13:17:57.000Z</time>
      </trkpt>
      <trkpt lat="43.78523" lon="1.79137">
        <ele>176.3</ele>
        <time>2018-02-07T13:18:4.000Z</time>
      </trkpt>
      <trkpt lat="43.78518" lon="1.79127">
        <ele>176.4</ele>
        <time>2018-02-07T13:18:11.000Z</time>
      </trkpt>
      <trkpt lat="43.78512" lon="1.79117">
        <ele>176.3</ele>
        <time>2018-02-07T13:18:20.000Z</time>
      </trkpt>
      <trkpt lat="43.78504" lon="1.7911">
        <ele>176.4</ele>
        <time>2018-02-07T13:18:27.000Z</time>
      </trkpt>
      <trkpt lat="43.785" lon="1.79098">
        <ele>176.5</ele>
        <time>2018-02-07T13:18:34.000Z</time>
      </trkpt>
      <trkpt lat="43.78494" lon="1.79087">
        <ele>176.6</ele>
        <time>2018-02-07T13:18:45.000Z</time>
      </trkpt>
      <trkpt lat="43.78485" lon="1.79079">
        <ele>192.2</ele>
        <time>2018-02-07T13:18:56.000Z</time>
      </trkpt>
      <trkpt lat="43.78476" lon="1.79067">
        <ele>191.6</ele>
        <time>2018-02-07T13:19:4.000Z</time>
      </trkpt>
      <trkpt lat="43.78469" lon="1.79063">
        <ele>191.2</ele>
        <time>2018-02-07T13:19:19.000Z</time>
      </trkpt>
      <trkpt lat="43.78465" lon="1.79053">
        <ele>190.9</ele>
        <time>2018-02-07T13:19:27.000Z</time>
      </trkpt>
      <trkpt lat="43.7846" lon="1.79047">
        <ele>190.6</ele>
        <time>2018-02-07T13:19:34.000Z</time>
      </trkpt>
      <trkpt lat="43.78455" lon="1.79038">
        <ele>190.3</ele>
        <time>2018-02-07T13:19:38.000Z</time>
      </trkpt>
      <trkpt lat="43.78445" lon="1.79029">
        <ele>177.1</ele>
        <time>2018-02-07T13:19:45.000Z</time>
      </trkpt>
      <trkpt lat="43.78437" lon="1.79021">
        <ele>177.2</ele>
        <time>2018-02-07T13:19:52.000Z</time>
      </trkpt>
      <trkpt lat="43.78431" lon="1.79011">
        <ele>177.5</ele>
        <time>2018-02-07T13:20:0.000Z</time>
      </trkpt>
      <trkpt lat="43.78425" lon="1.78998">
        <ele>177.8</ele>
        <time>2018-02-07T13:20:9.000Z</time>
      </trkpt>
      <trkpt lat="43.78416" lon="1.78992">
        <ele>178.2</ele>
        <time>2018-02-07T13:20:15.000Z</time>
      </trkpt>
      <trkpt lat="43.78409" lon="1.78983">
        <ele>178.7</ele>
        <time>2018-02-07T13:20:23.000Z</time>
      </trkpt>
      <trkpt lat="43.78401" lon="1.78976">
        <ele>179</ele>
        <time>2018-02-07T13:20:30.000Z</time>
      </trkpt>
      <trkpt lat="43.78393" lon="1.78967">
        <ele>190.5</ele>
        <time>2018-02-07T13:20:38.000Z</time>
      </trkpt>
      <trkpt lat="43.78386" lon="1.7896">
        <ele>179.7</ele>
        <time>2018-02-07T13:20:46.000Z</time>
      </trkpt>
      <trkpt lat="43.78378" lon="1.7895">
        <ele>180.1</ele>
        <time>2018-02-07T13:20:56.000Z</time>
      </trkpt>
      <trkpt lat="43.78372" lon="1.7894">
        <ele>180.4</ele>
        <time>2018-02-07T13:21:4.000Z</time>
      </trkpt>
      <trkpt lat="43.78366" lon="1.78929">
        <ele>180.7</ele>
        <time>2018-02-07T13:21:14.000Z</time>
      </trkpt>
      <trkpt lat="43.7836" lon="1.78919">
        <ele>181</ele>
        <time>2018-02-07T13:21:24.000Z</time>
      </trkpt>
      <trkpt lat="43.78354" lon="1.78908">
        <ele>181.2</ele>
        <time>2018-02-07T13:21:33.000Z</time>
      </trkpt>
      <trkpt lat="43.78347" lon="1.78897">
        <ele>181.5</ele>
        <time>2018-02-07T13:21:41.000Z</time>
      </trkpt>
      <trkpt lat="43.78339" lon="1.78891">
        <ele>181.7</ele>
        <time>2018-02-07T13:21:47.000Z</time>
      </trkpt>
      <trkpt lat="43.78332" lon="1.78882">
        <ele>181.8</ele>
        <time>2018-02-07T13:21:55.000Z</time>
      </trkpt>
      <trkpt lat="43.78324" lon="1.78875">
        <ele>182.1</ele>
        <time>2018-02-07T13:22:2.000Z</time>
      </trkpt>
      <trkpt lat="43.78317" lon="1.78866">
        <ele>182.3</ele>
        <time>2018-02-07T13:22:9.000Z</time>
      </trkpt>
      <trkpt lat="43.78312" lon="1.78854">
        <ele>182.3</ele>
        <time>2018-02-07T13:22:17.000Z</time>
      </trkpt>
      <trkpt lat="43.78305" lon="1.78844">
        <ele>182.2</ele>
        <time>2018-02-07T13:22:25.000Z</time>
      </trkpt>
      <trkpt lat="43.78298" lon="1.78834">
        <ele>182.2</ele>
        <time>2018-02-07T13:22:33.000Z</time>
      </trkpt>
      <trkpt lat="43.78292" lon="1.78824">
        <ele>182.2</ele>
        <time>2018-02-07T13:22:41.000Z</time>
      </trkpt>
      <trkpt lat="43.78286" lon="1.78815">
        <ele>182</ele>
        <time>2018-02-07T13:22:50.000Z</time>
      </trkpt>
      <trkpt lat="43.78278" lon="1.78808">
        <ele>181.5</ele>
        <time>2018-02-07T13:22:59.000Z</time>
      </trkpt>
      <trkpt lat="43.78269" lon="1.78804">
        <ele>180.6</ele>
        <time>2018-02-07T13:23:9.000Z</time>
      </trkpt>
      <trkpt lat="43.7826" lon="1.788">
        <ele>179.9</ele>
        <time>2018-02-07T13:23:18.000Z</time>
      </trkpt>
      <trkpt lat="43.78251" lon="1.78796">
        <ele>178.3</ele>
        <time>2018-02-07T13:23:29.000Z</time>
      </trkpt>
      <trkpt lat="43.78242" lon="1.78791">
        <ele>177.3</ele>
        <time>2018-02-07T13:23:35.000Z</time>
      </trkpt>
      <trkpt lat="43.78235" lon="1.78782">
        <ele>175.9</ele>
        <time>2018-02-07T13:23:44.000Z</time>
      </trkpt>
      <trkpt lat="43.78226" lon="1.78778">
        <ele>175.2</ele>
        <time>2018-02-07T13:23:50.000Z</time>
      </trkpt>
      <trkpt lat="43.78218" lon="1.78769">
        <ele>174.7</ele>
        <time>2018-02-07T13:23:58.000Z</time>
      </trkpt>
      <trkpt lat="43.78211" lon="1.78759">
        <ele>173.9</ele>
        <time>2018-02-07T13:24:6.000Z</time>
      </trkpt>
      <trkpt lat="43.78206" lon="1.78748">
        <ele>173.2</ele>
        <time>2018-02-07T13:24:13.000Z</time>
      </trkpt>
      <trkpt lat="43.78203" lon="1.78735">
        <ele>172.7</ele>
        <time>2018-02-07T13:24:19.000Z</time>
      </trkpt>
      <trkpt lat="43.782" lon="1.78722">
        <ele>172.2</ele>
        <time>2018-02-07T13:24:27.000Z</time>
      </trkpt>
      <trkpt lat="43.78195" lon="1.78711">
        <ele>172</ele>
        <time>2018-02-07T13:24:34.000Z</time>
      </trkpt>
      <trkpt lat="43.78188" lon="1.78701">
        <ele>171.6</ele>
        <time>2018-02-07T13:24:42.000Z</time>
      </trkpt>
      <trkpt lat="43.78182" lon="1.78691">
        <ele>170.9</ele>
        <time>2018-02-07T13:24:49.000Z</time>
      </trkpt>
      <trkpt lat="43.78176" lon="1.7868">
        <ele>169.9</ele>
        <time>2018-02-07T13:24:59.000Z</time>
      </trkpt>
      <trkpt lat="43.78169" lon="1.78671">
        <ele>168.9</ele>
        <time>2018-02-07T13:25:8.000Z</time>
      </trkpt>
      <trkpt lat="43.78168" lon="1.78657">
        <ele>168.3</ele>
        <time>2018-02-07T13:25:17.000Z</time>
      </trkpt>
      <trkpt lat="43.78161" lon="1.78647">
        <ele>182.1</ele>
        <time>2018-02-07T13:26:59.000Z</time>
      </trkpt>
      <trkpt lat="43.78151" lon="1.78635">
        <ele>180.6</ele>
        <time>2018-02-07T13:27:7.000Z</time>
      </trkpt>
      <trkpt lat="43.7814" lon="1.78632">
        <ele>178.8</ele>
        <time>2018-02-07T13:27:15.000Z</time>
      </trkpt>
      <trkpt lat="43.78132" lon="1.78633">
        <ele>177.7</ele>
        <time>2018-02-07T13:27:35.000Z</time>
      </trkpt>
      <trkpt lat="43.78124" lon="1.78631">
        <ele>176.3</ele>
        <time>2018-02-07T13:27:50.000Z</time>
      </trkpt>
      <trkpt lat="43.78112" lon="1.78637">
        <ele>174.4</ele>
        <time>2018-02-07T13:27:56.000Z</time>
      </trkpt>
      <trkpt lat="43.78103" lon="1.78645">
        <ele>164.8</ele>
        <time>2018-02-07T13:28:3.000Z</time>
      </trkpt>
      <trkpt lat="43.78094" lon="1.78639">
        <ele>164.1</ele>
        <time>2018-02-07T13:28:13.000Z</time>
      </trkpt>
      <trkpt lat="43.78086" lon="1.78628">
        <ele>170.4</ele>
        <time>2018-02-07T13:28:20.000Z</time>
      </trkpt>
      <trkpt lat="43.78079" lon="1.78618">
        <ele>169.7</ele>
        <time>2018-02-07T13:28:27.000Z</time>
      </trkpt>
      <trkpt lat="43.78068" lon="1.78612">
        <ele>169</ele>
        <time>2018-02-07T13:28:36.000Z</time>
      </trkpt>
      <trkpt lat="43.78061" lon="1.78607">
        <ele>168.5</ele>
        <time>2018-02-07T13:28:49.000Z</time>
      </trkpt>
      <trkpt lat="43.78051" lon="1.78614">
        <ele>163.6</ele>
        <time>2018-02-07T13:29:1.000Z</time>
      </trkpt>
      <trkpt lat="43.78042" lon="1.78615">
        <ele>163.9</ele>
        <time>2018-02-07T13:29:11.000Z</time>
      </trkpt>
      <trkpt lat="43.78032" lon="1.78613">
        <ele>164.6</ele>
        <time>2018-02-07T13:29:22.000Z</time>
      </trkpt>
      <trkpt lat="43.78023" lon="1.7861">
        <ele>165.4</ele>
        <time>2018-02-07T13:29:32.000Z</time>
      </trkpt>
      <trkpt lat="43.78013" lon="1.78609">
        <ele>166.1</ele>
        <time>2018-02-07T13:29:42.000Z</time>
      </trkpt>
      <trkpt lat="43.78004" lon="1.7861">
        <ele>166.7</ele>
        <time>2018-02-07T13:29:49.000Z</time>
      </trkpt>
      <trkpt lat="43.77993" lon="1.7861">
        <ele>167.6</ele>
        <time>2018-02-07T13:29:59.000Z</time>
      </trkpt>
      <trkpt lat="43.77983" lon="1.78608">
        <ele>164.8</ele>
        <time>2018-02-07T13:30:5.000Z</time>
      </trkpt>
      <trkpt lat="43.77974" lon="1.78605">
        <ele>165</ele>
        <time>2018-02-07T13:30:13.000Z</time>
      </trkpt>
      <trkpt lat="43.77965" lon="1.7861">
        <ele>169.6</ele>
        <time>2018-02-07T13:30:24.000Z</time>
      </trkpt>
      <trkpt lat="43.77956" lon="1.78608">
        <ele>170.3</ele>
        <time>2018-02-07T13:30:32.000Z</time>
      </trkpt>
      <trkpt lat="43.77946" lon="1.78608">
        <ele>170.7</ele>
        <time>2018-02-07T13:30:38.000Z</time>
      </trkpt>
      <trkpt lat="43.77937" lon="1.78606">
        <ele>171.9</ele>
        <time>2018-02-07T13:30:50.000Z</time>
      </trkpt>
      <trkpt lat="43.77927" lon="1.78604">
        <ele>172.6</ele>
        <time>2018-02-07T13:30:59.000Z</time>
      </trkpt>
      <trkpt lat="43.77918" lon="1.78601">
        <ele>172.9</ele>
        <time>2018-02-07T13:31:6.000Z</time>
      </trkpt>
      <trkpt lat="43.77909" lon="1.78595">
        <ele>173.7</ele>
        <time>2018-02-07T13:31:18.000Z</time>
      </trkpt>
      <trkpt lat="43.77899" lon="1.78595">
        <ele>174.2</ele>
        <time>2018-02-07T13:31:25.000Z</time>
      </trkpt>
      <trkpt lat="43.7789" lon="1.78594">
        <ele>174.9</ele>
        <time>2018-02-07T13:31:36.000Z</time>
      </trkpt>
      <trkpt lat="43.7788" lon="1.786">
        <ele>175.5</ele>
        <time>2018-02-07T13:31:43.000Z</time>
      </trkpt>
      <trkpt lat="43.77871" lon="1.786">
        <ele>176.6</ele>
        <time>2018-02-07T13:31:54.000Z</time>
      </trkpt>
      <trkpt lat="43.77862" lon="1.78596">
        <ele>177.5</ele>
        <time>2018-02-07T13:32:2.000Z</time>
      </trkpt>
      <trkpt lat="43.77853" lon="1.78593">
        <ele>178.3</ele>
        <time>2018-02-07T13:32:11.000Z</time>
      </trkpt>
      <trkpt lat="43.77844" lon="1.78591">
        <ele>178.8</ele>
        <time>2018-02-07T13:32:18.000Z</time>
      </trkpt>
      <trkpt lat="43.77834" lon="1.78589">
        <ele>179.6</ele>
        <time>2018-02-07T13:32:27.000Z</time>
      </trkpt>
      <trkpt lat="43.77825" lon="1.78588">
        <ele>180.5</ele>
        <time>2018-02-07T13:32:34.000Z</time>
      </trkpt>
      <trkpt lat="43.77816" lon="1.78586">
        <ele>181.3</ele>
        <time>2018-02-07T13:32:42.000Z</time>
      </trkpt>
      <trkpt lat="43.77807" lon="1.78582">
        <ele>182.1</ele>
        <time>2018-02-07T13:32:50.000Z</time>
      </trkpt>
      <trkpt lat="43.77797" lon="1.7858">
        <ele>183</ele>
        <time>2018-02-07T13:32:59.000Z</time>
      </trkpt>
      <trkpt lat="43.77788" lon="1.78576">
        <ele>183.6</ele>
        <time>2018-02-07T13:33:6.000Z</time>
      </trkpt>
      <trkpt lat="43.77779" lon="1.78572">
        <ele>184.3</ele>
        <time>2018-02-07T13:33:14.000Z</time>
      </trkpt>
      <trkpt lat="43.77771" lon="1.78565">
        <ele>185</ele>
        <time>2018-02-07T13:33:21.000Z</time>
      </trkpt>
      <trkpt lat="43.77762" lon="1.78561">
        <ele>185.9</ele>
        <time>2018-02-07T13:33:29.000Z</time>
      </trkpt>
      <trkpt lat="43.77754" lon="1.78556">
        <ele>187</ele>
        <time>2018-02-07T13:33:39.000Z</time>
      </trkpt>
      <trkpt lat="43.77746" lon="1.78548">
        <ele>187.9</ele>
        <time>2018-02-07T13:33:47.000Z</time>
      </trkpt>
      <trkpt lat="43.77739" lon="1.78539">
        <ele>188.9</ele>
        <time>2018-02-07T13:33:56.000Z</time>
      </trkpt>
      <trkpt lat="43.77732" lon="1.78531">
        <ele>189.7</ele>
        <time>2018-02-07T13:34:4.000Z</time>
      </trkpt>
      <trkpt lat="43.77725" lon="1.78522">
        <ele>190.5</ele>
        <time>2018-02-07T13:34:12.000Z</time>
      </trkpt>
      <trkpt lat="43.77718" lon="1.78513">
        <ele>191.1</ele>
        <time>2018-02-07T13:34:20.000Z</time>
      </trkpt>
      <trkpt lat="43.77711" lon="1.78505">
        <ele>191.8</ele>
        <time>2018-02-07T13:34:29.000Z</time>
      </trkpt>
      <trkpt lat="43.77704" lon="1.78497">
        <ele>192.4</ele>
        <time>2018-02-07T13:34:39.000Z</time>
      </trkpt>
      <trkpt lat="43.77696" lon="1.78489">
        <ele>192.8</ele>
        <time>2018-02-07T13:34:48.000Z</time>
      </trkpt>
      <trkpt lat="43.77689" lon="1.78481">
        <ele>193.2</ele>
        <time>2018-02-07T13:34:57.000Z</time>
      </trkpt>
      <trkpt lat="43.7768" lon="1.78474">
        <ele>194.1</ele>
        <time>2018-02-07T13:35:6.000Z</time>
      </trkpt>
      <trkpt lat="43.77672" lon="1.78468">
        <ele>194.6</ele>
        <time>2018-02-07T13:35:14.000Z</time>
      </trkpt>
      <trkpt lat="43.77664" lon="1.7846">
        <ele>194.9</ele>
        <time>2018-02-07T13:35:22.000Z</time>
      </trkpt>
      <trkpt lat="43.77657" lon="1.78453">
        <ele>195.2</ele>
        <time>2018-02-07T13:35:29.000Z</time>
      </trkpt>
      <trkpt lat="43.77648" lon="1.78448">
        <ele>195.6</ele>
        <time>2018-02-07T13:35:36.000Z</time>
      </trkpt>
      <trkpt lat="43.7764" lon="1.78442">
        <ele>195.9</ele>
        <time>2018-02-07T13:35:43.000Z</time>
      </trkpt>
      <trkpt lat="43.77631" lon="1.78438">
        <ele>196.5</ele>
        <time>2018-02-07T13:35:51.000Z</time>
      </trkpt>
      <trkpt lat="43.77621" lon="1.78434">
        <ele>197</ele>
        <time>2018-02-07T13:36:0.000Z</time>
      </trkpt>
      <trkpt lat="43.77612" lon="1.78433">
        <ele>197.3</ele>
        <time>2018-02-07T13:36:8.000Z</time>
      </trkpt>
      <trkpt lat="43.77603" lon="1.78428">
        <ele>197.6</ele>
        <time>2018-02-07T13:36:16.000Z</time>
      </trkpt>
      <trkpt lat="43.77594" lon="1.78423">
        <ele>197.9</ele>
        <time>2018-02-07T13:36:26.000Z</time>
      </trkpt>
      <trkpt lat="43.77584" lon="1.78421">
        <ele>198.2</ele>
        <time>2018-02-07T13:36:34.000Z</time>
      </trkpt>
      <trkpt lat="43.77575" lon="1.78418">
        <ele>198.4</ele>
        <time>2018-02-07T13:36:42.000Z</time>
      </trkpt>
      <trkpt lat="43.77566" lon="1.78414">
        <ele>198.9</ele>
        <time>2018-02-07T13:36:52.000Z</time>
      </trkpt>
      <trkpt lat="43.77555" lon="1.78412">
        <ele>199.2</ele>
        <time>2018-02-07T13:36:59.000Z</time>
      </trkpt>
      <trkpt lat="43.77547" lon="1.78408">
        <ele>199.4</ele>
        <time>2018-02-07T13:37:7.000Z</time>
      </trkpt>
      <trkpt lat="43.77537" lon="1.78405">
        <ele>199.2</ele>
        <time>2018-02-07T13:37:16.000Z</time>
      </trkpt>
      <trkpt lat="43.77528" lon="1.78401">
        <ele>199.4</ele>
        <time>2018-02-07T13:37:25.000Z</time>
      </trkpt>
      <trkpt lat="43.77518" lon="1.78399">
        <ele>199.5</ele>
        <time>2018-02-07T13:37:31.000Z</time>
      </trkpt>
      <trkpt lat="43.77509" lon="1.78395">
        <ele>199.6</ele>
        <time>2018-02-07T13:37:38.000Z</time>
      </trkpt>
      <trkpt lat="43.775" lon="1.78391">
        <ele>199.7</ele>
        <time>2018-02-07T13:37:45.000Z</time>
      </trkpt>
      <trkpt lat="43.77491" lon="1.78388">
        <ele>199.8</ele>
        <time>2018-02-07T13:37:53.000Z</time>
      </trkpt>
      <trkpt lat="43.77484" lon="1.78381">
        <ele>199.9</ele>
        <time>2018-02-07T13:38:1.000Z</time>
      </trkpt>
      <trkpt lat="43.77474" lon="1.78377">
        <ele>199.9</ele>
        <time>2018-02-07T13:38:10.000Z</time>
      </trkpt>
      <trkpt lat="43.77466" lon="1.78371">
        <ele>199.8</ele>
        <time>2018-02-07T13:38:19.000Z</time>
      </trkpt>
      <trkpt lat="43.77456" lon="1.78368">
        <ele>199.8</ele>
        <time>2018-02-07T13:38:26.000Z</time>
      </trkpt>
      <trkpt lat="43.77447" lon="1.78365">
        <ele>199.7</ele>
        <time>2018-02-07T13:38:34.000Z</time>
      </trkpt>
      <trkpt lat="43.77438" lon="1.78361">
        <ele>199.4</ele>
        <time>2018-02-07T13:38:43.000Z</time>
      </trkpt>
      <trkpt lat="43.77429" lon="1.78357">
        <ele>198.7</ele>
        <time>2018-02-07T13:38:51.000Z</time>
      </trkpt>
      <trkpt lat="43.77419" lon="1.78356">
        <ele>198.2</ele>
        <time>2018-02-07T13:38:56.000Z</time>
      </trkpt>
      <trkpt lat="43.77409" lon="1.78354">
        <ele>197.7</ele>
        <time>2018-02-07T13:39:2.000Z</time>
      </trkpt>
      <trkpt lat="43.774" lon="1.78349">
        <ele>196.9</ele>
        <time>2018-02-07T13:39:9.000Z</time>
      </trkpt>
      <trkpt lat="43.77391" lon="1.78346">
        <ele>196</ele>
        <time>2018-02-07T13:39:16.000Z</time>
      </trkpt>
      <trkpt lat="43.77381" lon="1.78342">
        <ele>195.2</ele>
        <time>2018-02-07T13:39:22.000Z</time>
      </trkpt>
      <trkpt lat="43.77373" lon="1.78339">
        <ele>194.5</ele>
        <time>2018-02-07T13:39:28.000Z</time>
      </trkpt>
      <trkpt lat="43.77365" lon="1.7833">
        <ele>193.2</ele>
        <time>2018-02-07T13:39:36.000Z</time>
      </trkpt>
      <trkpt lat="43.77358" lon="1.78322">
        <ele>192.4</ele>
        <time>2018-02-07T13:39:43.000Z</time>
      </trkpt>
      <trkpt lat="43.7735" lon="1.78314">
        <ele>192</ele>
        <time>2018-02-07T13:39:49.000Z</time>
      </trkpt>
      <trkpt lat="43.77344" lon="1.78303">
        <ele>191.8</ele>
        <time>2018-02-07T13:39:56.000Z</time>
      </trkpt>
      <trkpt lat="43.77338" lon="1.78291">
        <ele>191.5</ele>
        <time>2018-02-07T13:40:2.000Z</time>
      </trkpt>
      <trkpt lat="43.77331" lon="1.78281">
        <ele>191.4</ele>
        <time>2018-02-07T13:40:8.000Z</time>
      </trkpt>
      <trkpt lat="43.77324" lon="1.78271">
        <ele>191.4</ele>
        <time>2018-02-07T13:40:15.000Z</time>
      </trkpt>
      <trkpt lat="43.77317" lon="1.78261">
        <ele>191.4</ele>
        <time>2018-02-07T13:40:22.000Z</time>
      </trkpt>
      <trkpt lat="43.77311" lon="1.78251">
        <ele>191.5</ele>
        <time>2018-02-07T13:40:29.000Z</time>
      </trkpt>
      <trkpt lat="43.77303" lon="1.78243">
        <ele>191.7</ele>
        <time>2018-02-07T13:40:36.000Z</time>
      </trkpt>
      <trkpt lat="43.77299" lon="1.78232">
        <ele>192.1</ele>
        <time>2018-02-07T13:40:43.000Z</time>
      </trkpt>
      <trkpt lat="43.77295" lon="1.7822">
        <ele>192.8</ele>
        <time>2018-02-07T13:40:50.000Z</time>
      </trkpt>
      <trkpt lat="43.7729" lon="1.78208">
        <ele>193.7</ele>
        <time>2018-02-07T13:40:57.000Z</time>
      </trkpt>
      <trkpt lat="43.77284" lon="1.78196">
        <ele>194.8</ele>
        <time>2018-02-07T13:41:5.000Z</time>
      </trkpt>
      <trkpt lat="43.77279" lon="1.78184">
        <ele>195.7</ele>
        <time>2018-02-07T13:41:11.000Z</time>
      </trkpt>
      <trkpt lat="43.77275" lon="1.78172">
        <ele>196.7</ele>
        <time>2018-02-07T13:41:17.000Z</time>
      </trkpt>
      <trkpt lat="43.77269" lon="1.7816">
        <ele>197.6</ele>
        <time>2018-02-07T13:41:24.000Z</time>
      </trkpt>
      <trkpt lat="43.77264" lon="1.78149">
        <ele>198.5</ele>
        <time>2018-02-07T13:41:30.000Z</time>
      </trkpt>
      <trkpt lat="43.77258" lon="1.78139">
        <ele>199.3</ele>
        <time>2018-02-07T13:41:36.000Z</time>
      </trkpt>
      <trkpt lat="43.77251" lon="1.7813">
        <ele>199.7</ele>
        <time>2018-02-07T13:41:42.000Z</time>
      </trkpt>
      <trkpt lat="43.77244" lon="1.78121">
        <ele>199.7</ele>
        <time>2018-02-07T13:41:49.000Z</time>
      </trkpt>
      <trkpt lat="43.77238" lon="1.78111">
        <ele>200.5</ele>
        <time>2018-02-07T13:41:55.000Z</time>
      </trkpt>
      <trkpt lat="43.77231" lon="1.78101">
        <ele>201</ele>
        <time>2018-02-07T13:42:1.000Z</time>
      </trkpt>
      <trkpt lat="43.77224" lon="1.78092">
        <ele>201.5</ele>
        <time>2018-02-07T13:42:6.000Z</time>
      </trkpt>
      <trkpt lat="43.77217" lon="1.78084">
        <ele>202</ele>
        <time>2018-02-07T13:42:12.000Z</time>
      </trkpt>
      <trkpt lat="43.77209" lon="1.78075">
        <ele>202.4</ele>
        <time>2018-02-07T13:42:19.000Z</time>
      </trkpt>
      <trkpt lat="43.77201" lon="1.78068">
        <ele>202.7</ele>
        <time>2018-02-07T13:42:26.000Z</time>
      </trkpt>
      <trkpt lat="43.77194" lon="1.7806">
        <ele>202.8</ele>
        <time>2018-02-07T13:42:32.000Z</time>
      </trkpt>
      <trkpt lat="43.77187" lon="1.78052">
        <ele>202.9</ele>
        <time>2018-02-07T13:42:38.000Z</time>
      </trkpt>
      <trkpt lat="43.77179" lon="1.78045">
        <ele>203</ele>
        <time>2018-02-07T13:42:44.000Z</time>
      </trkpt>
      <trkpt lat="43.77171" lon="1.7804">
        <ele>203</ele>
        <time>2018-02-07T13:42:51.000Z</time>
      </trkpt>
      <trkpt lat="43.77164" lon="1.78031">
        <ele>203</ele>
        <time>2018-02-07T13:42:57.000Z</time>
      </trkpt>
      <trkpt lat="43.77156" lon="1.78023">
        <ele>203</ele>
        <time>2018-02-07T13:43:4.000Z</time>
      </trkpt>
      <trkpt lat="43.77148" lon="1.78016">
        <ele>203</ele>
        <time>2018-02-07T13:43:10.000Z</time>
      </trkpt>
      <trkpt lat="43.77139" lon="1.7801">
        <ele>203</ele>
        <time>2018-02-07T13:43:17.000Z</time>
      </trkpt>
      <trkpt lat="43.7713" lon="1.78006">
        <ele>203.2</ele>
        <time>2018-02-07T13:43:23.000Z</time>
      </trkpt>
      <trkpt lat="43.77121" lon="1.78003">
        <ele>203.1</ele>
        <time>2018-02-07T13:43:29.000Z</time>
      </trkpt>
      <trkpt lat="43.77112" lon="1.77999">
        <ele>203</ele>
        <time>2018-02-07T13:43:35.000Z</time>
      </trkpt>
      <trkpt lat="43.77103" lon="1.77996">
        <ele>203</ele>
        <time>2018-02-07T13:43:41.000Z</time>
      </trkpt>
      <trkpt lat="43.77094" lon="1.77993">
        <ele>202.8</ele>
        <time>2018-02-07T13:43:47.000Z</time>
      </trkpt>
      <trkpt lat="43.77085" lon="1.77989">
        <ele>202.6</ele>
        <time>2018-02-07T13:43:53.000Z</time>
      </trkpt>
      <trkpt lat="43.77075" lon="1.77984">
        <ele>202.7</ele>
        <time>2018-02-07T13:44:0.000Z</time>
      </trkpt>
      <trkpt lat="43.77066" lon="1.77978">
        <ele>202.7</ele>
        <time>2018-02-07T13:44:7.000Z</time>
      </trkpt>
      <trkpt lat="43.77057" lon="1.77971">
        <ele>202.7</ele>
        <time>2018-02-07T13:44:14.000Z</time>
      </trkpt>
      <trkpt lat="43.77049" lon="1.77966">
        <ele>202.5</ele>
        <time>2018-02-07T13:44:21.000Z</time>
      </trkpt>
      <trkpt lat="43.77039" lon="1.77961">
        <ele>202.1</ele>
        <time>2018-02-07T13:44:28.000Z</time>
      </trkpt>
      <trkpt lat="43.7703" lon="1.77957">
        <ele>201.9</ele>
        <time>2018-02-07T13:44:35.000Z</time>
      </trkpt>
      <trkpt lat="43.77021" lon="1.77952">
        <ele>201.5</ele>
        <time>2018-02-07T13:44:42.000Z</time>
      </trkpt>
      <trkpt lat="43.77012" lon="1.77949">
        <ele>201.3</ele>
        <time>2018-02-07T13:44:48.000Z</time>
      </trkpt>
      <trkpt lat="43.77002" lon="1.77945">
        <ele>201.1</ele>
        <time>2018-02-07T13:44:55.000Z</time>
      </trkpt>
      <trkpt lat="43.76993" lon="1.7794">
        <ele>201</ele>
        <time>2018-02-07T13:45:2.000Z</time>
      </trkpt>
      <trkpt lat="43.76984" lon="1.77936">
        <ele>200.8</ele>
        <time>2018-02-07T13:45:9.000Z</time>
      </trkpt>
      <trkpt lat="43.76975" lon="1.77932">
        <ele>200.4</ele>
        <time>2018-02-07T13:45:15.000Z</time>
      </trkpt>
      <trkpt lat="43.76967" lon="1.77927">
        <ele>200.1</ele>
        <time>2018-02-07T13:45:22.000Z</time>
      </trkpt>
      <trkpt lat="43.76959" lon="1.77919">
        <ele>200</ele>
        <time>2018-02-07T13:45:29.000Z</time>
      </trkpt>
      <trkpt lat="43.76952" lon="1.77912">
        <ele>200.1</ele>
        <time>2018-02-07T13:45:36.000Z</time>
      </trkpt>
      <trkpt lat="43.76949" lon="1.77897">
        <ele>179.4</ele>
        <time>2018-02-07T13:45:43.000Z</time>
      </trkpt>
      <trkpt lat="43.76945" lon="1.77888">
        <ele>179.1</ele>
        <time>2018-02-07T13:45:50.000Z</time>
      </trkpt>
      <trkpt lat="43.76936" lon="1.77872">
        <ele>178.7</ele>
        <time>2018-02-07T13:45:58.000Z</time>
      </trkpt>
      <trkpt lat="43.7693" lon="1.7786">
        <ele>178.4</ele>
        <time>2018-02-07T13:46:5.000Z</time>
      </trkpt>
      <trkpt lat="43.76923" lon="1.77845">
        <ele>178.2</ele>
        <time>2018-02-07T13:46:13.000Z</time>
      </trkpt>
      <trkpt lat="43.76916" lon="1.77836">
        <ele>178</ele>
        <time>2018-02-07T13:46:21.000Z</time>
      </trkpt>
      <trkpt lat="43.76908" lon="1.77822">
        <ele>178.3</ele>
        <time>2018-02-07T13:46:29.000Z</time>
      </trkpt>
      <trkpt lat="43.76902" lon="1.77815">
        <ele>178.5</ele>
        <time>2018-02-07T13:46:36.000Z</time>
      </trkpt>
      <trkpt lat="43.76897" lon="1.77806">
        <ele>178.7</ele>
        <time>2018-02-07T13:46:43.000Z</time>
      </trkpt>
      <trkpt lat="43.76889" lon="1.77799">
        <ele>179</ele>
        <time>2018-02-07T13:46:50.000Z</time>
      </trkpt>
      <trkpt lat="43.76878" lon="1.77795">
        <ele>179.4</ele>
        <time>2018-02-07T13:46:58.000Z</time>
      </trkpt>
      <trkpt lat="43.76871" lon="1.77791">
        <ele>179.6</ele>
        <time>2018-02-07T13:47:5.000Z</time>
      </trkpt>
      <trkpt lat="43.76864" lon="1.77785">
        <ele>180</ele>
        <time>2018-02-07T13:47:12.000Z</time>
      </trkpt>
      <trkpt lat="43.76852" lon="1.77781">
        <ele>180.4</ele>
        <time>2018-02-07T13:47:19.000Z</time>
      </trkpt>
      <trkpt lat="43.76842" lon="1.77776">
        <ele>180.8</ele>
        <time>2018-02-07T13:47:28.000Z</time>
      </trkpt>
      <trkpt lat="43.76832" lon="1.77777">
        <ele>181.1</ele>
        <time>2018-02-07T13:47:36.000Z</time>
      </trkpt>
      <trkpt lat="43.7682" lon="1.77783">
        <ele>180.7</ele>
        <time>2018-02-07T13:47:45.000Z</time>
      </trkpt>
      <trkpt lat="43.76813" lon="1.77788">
        <ele>199.2</ele>
        <time>2018-02-07T13:47:52.000Z</time>
      </trkpt>
      <trkpt lat="43.76803" lon="1.77787">
        <ele>199.3</ele>
        <time>2018-02-07T13:48:1.000Z</time>
      </trkpt>
      <trkpt lat="43.76794" lon="1.77786">
        <ele>199.5</ele>
        <time>2018-02-07T13:48:9.000Z</time>
      </trkpt>
      <trkpt lat="43.76785" lon="1.77784">
        <ele>199.8</ele>
        <time>2018-02-07T13:48:17.000Z</time>
      </trkpt>
      <trkpt lat="43.76775" lon="1.77782">
        <ele>200.2</ele>
        <time>2018-02-07T13:48:25.000Z</time>
      </trkpt>
      <trkpt lat="43.76765" lon="1.7778">
        <ele>200.6</ele>
        <time>2018-02-07T13:48:34.000Z</time>
      </trkpt>
      <trkpt lat="43.76756" lon="1.77779">
        <ele>201</ele>
        <time>2018-02-07T13:48:41.000Z</time>
      </trkpt>
      <trkpt lat="43.76747" lon="1.77778">
        <ele>201.3</ele>
        <time>2018-02-07T13:48:48.000Z</time>
      </trkpt>
      <trkpt lat="43.76738" lon="1.77775">
        <ele>201.8</ele>
        <time>2018-02-07T13:48:56.000Z</time>
      </trkpt>
      <trkpt lat="43.76728" lon="1.77772">
        <ele>202.1</ele>
        <time>2018-02-07T13:49:5.000Z</time>
      </trkpt>
      <trkpt lat="43.76719" lon="1.7777">
        <ele>202.2</ele>
        <time>2018-02-07T13:49:12.000Z</time>
      </trkpt>
      <trkpt lat="43.76709" lon="1.77767">
        <ele>202.3</ele>
        <time>2018-02-07T13:49:19.000Z</time>
      </trkpt>
      <trkpt lat="43.767" lon="1.77762">
        <ele>202.5</ele>
        <time>2018-02-07T13:49:26.000Z</time>
      </trkpt>
      <trkpt lat="43.76692" lon="1.77757">
        <ele>202.7</ele>
        <time>2018-02-07T13:49:34.000Z</time>
      </trkpt>
      <trkpt lat="43.76683" lon="1.77751">
        <ele>203</ele>
        <time>2018-02-07T13:49:41.000Z</time>
      </trkpt>
      <trkpt lat="43.76674" lon="1.77745">
        <ele>203.2</ele>
        <time>2018-02-07T13:49:49.000Z</time>
      </trkpt>
      <trkpt lat="43.76665" lon="1.77739">
        <ele>203.4</ele>
        <time>2018-02-07T13:49:56.000Z</time>
      </trkpt>
      <trkpt lat="43.76656" lon="1.77734">
        <ele>203.4</ele>
        <time>2018-02-07T13:50:3.000Z</time>
      </trkpt>
      <trkpt lat="43.76648" lon="1.77727">
        <ele>203.5</ele>
        <time>2018-02-07T13:50:11.000Z</time>
      </trkpt>
      <trkpt lat="43.7664" lon="1.77718">
        <ele>203.6</ele>
        <time>2018-02-07T13:50:19.000Z</time>
      </trkpt>
      <trkpt lat="43.76633" lon="1.77711">
        <ele>203.7</ele>
        <time>2018-02-07T13:50:26.000Z</time>
      </trkpt>
      <trkpt lat="43.76625" lon="1.77701">
        <ele>203.8</ele>
        <time>2018-02-07T13:50:34.000Z</time>
      </trkpt>
      <trkpt lat="43.76621" lon="1.77689">
        <ele>204</ele>
        <time>2018-02-07T13:50:42.000Z</time>
      </trkpt>
      <trkpt lat="43.76616" lon="1.77678">
        <ele>204.2</ele>
        <time>2018-02-07T13:50:49.000Z</time>
      </trkpt>
      <trkpt lat="43.76611" lon="1.77666">
        <ele>203.9</ele>
        <time>2018-02-07T13:50:56.000Z</time>
      </trkpt>
      <trkpt lat="43.76606" lon="1.77655">
        <ele>203.9</ele>
        <time>2018-02-07T13:51:3.000Z</time>
      </trkpt>
      <trkpt lat="43.76601" lon="1.77644">
        <ele>203.9</ele>
        <time>2018-02-07T13:51:11.000Z</time>
      </trkpt>
      <trkpt lat="43.76595" lon="1.77634">
        <ele>204</ele>
        <time>2018-02-07T13:51:19.000Z</time>
      </trkpt>
      <trkpt lat="43.76588" lon="1.77624">
        <ele>204</ele>
        <time>2018-02-07T13:51:27.000Z</time>
      </trkpt>
      <trkpt lat="43.76582" lon="1.77614">
        <ele>204</ele>
        <time>2018-02-07T13:51:35.000Z</time>
      </trkpt>
      <trkpt lat="43.76575" lon="1.77604">
        <ele>204</ele>
        <time>2018-02-07T13:51:43.000Z</time>
      </trkpt>
      <trkpt lat="43.76568" lon="1.77596">
        <ele>204.1</ele>
        <time>2018-02-07T13:51:50.000Z</time>
      </trkpt>
      <trkpt lat="43.76561" lon="1.77588">
        <ele>204.1</ele>
        <time>2018-02-07T13:51:57.000Z</time>
      </trkpt>
      <trkpt lat="43.76554" lon="1.7758">
        <ele>203.9</ele>
        <time>2018-02-07T13:52:4.000Z</time>
      </trkpt>
      <trkpt lat="43.76545" lon="1.77573">
        <ele>203.9</ele>
        <time>2018-02-07T13:52:12.000Z</time>
      </trkpt>
      <trkpt lat="43.76537" lon="1.77567">
        <ele>203.7</ele>
        <time>2018-02-07T13:52:20.000Z</time>
      </trkpt>
      <trkpt lat="43.76529" lon="1.77559">
        <ele>203.4</ele>
        <time>2018-02-07T13:52:31.000Z</time>
      </trkpt>
      <trkpt lat="43.7652" lon="1.77555">
        <ele>203.1</ele>
        <time>2018-02-07T13:52:39.000Z</time>
      </trkpt>
      <trkpt lat="43.76509" lon="1.77551">
        <ele>202.9</ele>
        <time>2018-02-07T13:52:45.000Z</time>
      </trkpt>
      <trkpt lat="43.76501" lon="1.77544">
        <ele>202.6</ele>
        <time>2018-02-07T13:52:52.000Z</time>
      </trkpt>
      <trkpt lat="43.76492" lon="1.77537">
        <ele>202.5</ele>
        <time>2018-02-07T13:52:58.000Z</time>
      </trkpt>
      <trkpt lat="43.76483" lon="1.77532">
        <ele>202.3</ele>
        <time>2018-02-07T13:53:2.000Z</time>
      </trkpt>
      <trkpt lat="43.76474" lon="1.77526">
        <ele>201.7</ele>
        <time>2018-02-07T13:53:10.000Z</time>
      </trkpt>
      <trkpt lat="43.76465" lon="1.77521">
        <ele>201.5</ele>
        <time>2018-02-07T13:53:17.000Z</time>
      </trkpt>
      <trkpt lat="43.76456" lon="1.77516">
        <ele>201.3</ele>
        <time>2018-02-07T13:53:24.000Z</time>
      </trkpt>
      <trkpt lat="43.76449" lon="1.77507">
        <ele>201.1</ele>
        <time>2018-02-07T13:53:32.000Z</time>
      </trkpt>
      <trkpt lat="43.76448" lon="1.77493">
        <ele>200.6</ele>
        <time>2018-02-07T13:53:44.000Z</time>
      </trkpt>
      <trkpt lat="43.76453" lon="1.77481">
        <ele>200.4</ele>
        <time>2018-02-07T13:53:51.000Z</time>
      </trkpt>
      <trkpt lat="43.76459" lon="1.77471">
        <ele>200.3</ele>
        <time>2018-02-07T13:53:59.000Z</time>
      </trkpt>
      <trkpt lat="43.76465" lon="1.7746">
        <ele>200.4</ele>
        <time>2018-02-07T13:54:7.000Z</time>
      </trkpt>
      <trkpt lat="43.76465" lon="1.77447">
        <ele>200.2</ele>
        <time>2018-02-07T13:54:17.000Z</time>
      </trkpt>
      <trkpt lat="43.7647" lon="1.77435">
        <ele>199.6</ele>
        <time>2018-02-07T13:54:24.000Z</time>
      </trkpt>
      <trkpt lat="43.76477" lon="1.77426">
        <ele>199.3</ele>
        <time>2018-02-07T13:54:30.000Z</time>
      </trkpt>
      <trkpt lat="43.76481" lon="1.77413">
        <ele>199.1</ele>
        <time>2018-02-07T13:54:38.000Z</time>
      </trkpt>
      <trkpt lat="43.76481" lon="1.77401">
        <ele>198.8</ele>
        <time>2018-02-07T13:54:45.000Z</time>
      </trkpt>
      <trkpt lat="43.7648" lon="1.77387">
        <ele>198.3</ele>
        <time>2018-02-07T13:54:55.000Z</time>
      </trkpt>
      <trkpt lat="43.76479" lon="1.77378">
        <ele>197.8</ele>
        <time>2018-02-07T14:00:29.000Z</time>
      </trkpt>
    </trkseg>
  </trk>
</gpx>